Darstellungsparameter: Aktuell verwendete Einstellungen:
Skalierung der Graphiken ... ?
xyx+y,   Skalierungsfaktor:      Skalierung: Modus: x, Faktor: 1
Darstellungszeitraum ... ?
Vom - - bis: - -   Zeitraum: 22.05.2014 - 04.06.2014
Min/Max/Avg-Anzeige ... ?
Zeige MMA aktuell
Zeige MMA Monat
Zeige MMA alles
Zeige --A aktuell
Zeige --A Monat
Zeige --A alles
Keine MMA-Anzeige
MMA:
Keine MMA-Graphiken
MMA-Basis: 22.05.2014 - 04.06.2014
Quicknavigation für Darstellung... ?
Tage:      1T, 2T, 3T, 5T -1T -2T -3T -5T +1T +2T +3T +5T
Wochen: 1W, 2W, 3W -1W -2W -3W +1W +2W +3W
Monate: 1M, 3M, 6M -1M -3M -6M +1M +3M +6M
Jahre:    1J, 3J, 5J, 10J -1J -3J -5J -10J +1J +3J +5J +10J
Nutze für die Darstellung ... ?
Originaldaten oder Mittelwerte auf ...
Stundenbasis Tagesbasis Wochenbasis
Monatsbasis Jahresbasis      Datenbasis: Original-Daten
Darstellen als:
Statistik (Auto) Statistik J:M      Darstellung:
Zur Graphik,    zurück zur Übersicht aller Sensoren.
 
Tabellarische Datenbersicht: ?
 
Sensor: Nr:Datum:Temp:Abs-Feuchte:Windchill:Wind:
Aussen-T/F 1 22-05-2014 00:00:00 19.4 C 11.35 g/m*3 19.4 C 1.6 km/h
2 22-05-2014 00:05:00 19.4 C 11.35 g/m*3 19.4 C 1.6 km/h
3 22-05-2014 00:10:00 19.4 C 11.18 g/m*3 19.4 C 1.6 km/h
4 22-05-2014 00:15:00 19.6 C 11.31 g/m*3 19.6 C 1.6 km/h
5 22-05-2014 00:20:00 19.5 C 11.24 g/m*3 19.5 C 3.2 km/h
6 22-05-2014 00:25:00 19.4 C 10.68 g/m*3 19.4 C 1.6 km/h
7 22-05-2014 00:30:00 19.4 C 11.18 g/m*3 19.4 C 0 km/h
8 22-05-2014 00:35:00 19.4 C 11.18 g/m*3 19.4 C 1.6 km/h
9 22-05-2014 00:40:00 19.3 C 10.95 g/m*3 19.3 C 1.6 km/h
10 22-05-2014 00:45:00 19.3 C 11.11 g/m*3 19.3 C 1.6 km/h
11 22-05-2014 00:50:00 19.3 C 10.95 g/m*3 19.3 C 1.6 km/h
12 22-05-2014 00:55:00 19.3 C 11.11 g/m*3 19.3 C 0 km/h
13 22-05-2014 01:00:00 19.3 C 10.95 g/m*3 19.3 C 0 km/h
14 22-05-2014 01:05:00 19.2 C 10.88 g/m*3 19.2 C 0 km/h
15 22-05-2014 01:10:00 19.1 C 10.82 g/m*3 19.1 C 4.8 km/h
16 22-05-2014 01:15:00 19.1 C 10.98 g/m*3 19.1 C 4.8 km/h
17 22-05-2014 01:20:00 19 C 10.92 g/m*3 19 C 1.6 km/h
18 22-05-2014 01:25:00 19.1 C 11.15 g/m*3 19.1 C 3.2 km/h
19 22-05-2014 01:30:00 19 C 10.92 g/m*3 19 C 1.6 km/h
20 22-05-2014 01:35:00 18.8 C 10.79 g/m*3 18.8 C 1.6 km/h
21 22-05-2014 01:40:00 18.8 C 10.79 g/m*3 18.8 C 0 km/h
22 22-05-2014 01:45:00 18.8 C 10.79 g/m*3 18.8 C 8.1 km/h
23 22-05-2014 01:50:00 18.9 C 10.69 g/m*3 18.9 C 4.8 km/h
24 22-05-2014 01:55:00 19.1 C 10.66 g/m*3 19.1 C 4.8 km/h
25 22-05-2014 02:00:00 20.3 C 10.55 g/m*3 20.3 C 17.7 km/h
Sensor: Nr:Datum:Temp:Abs-Feuchte:Windchill:Wind:
Aussen-T/F 26 22-05-2014 02:05:00 21.5 C 10.56 g/m*3 21.5 C 8.1 km/h
27 22-05-2014 02:10:00 21.7 C 10.68 g/m*3 21.7 C 4.8 km/h
28 22-05-2014 02:15:00 22.1 C 10.74 g/m*3 22.1 C 9.7 km/h
29 22-05-2014 02:20:00 22.3 C 11.06 g/m*3 22.3 C 1.6 km/h
30 22-05-2014 02:25:00 22.1 C 11.32 g/m*3 22.1 C 1.6 km/h
31 22-05-2014 02:30:00 21.5 C 11.31 g/m*3 21.5 C 0 km/h
32 22-05-2014 02:35:00 20.9 C 11.29 g/m*3 20.9 C 0 km/h
33 22-05-2014 02:40:00 20.6 C 11.28 g/m*3 20.6 C 1.6 km/h
34 22-05-2014 02:45:00 20.3 C 11.43 g/m*3 20.3 C 0 km/h
35 22-05-2014 02:50:00 20.2 C 11.19 g/m*3 20.2 C 0 km/h
36 22-05-2014 02:55:00 20.1 C 11.3 g/m*3 20.1 C 1.6 km/h
37 22-05-2014 03:00:00 20.1 C 11.3 g/m*3 20.1 C 1.6 km/h
38 22-05-2014 03:05:00 20 C 11.06 g/m*3 20 C 3.2 km/h
39 22-05-2014 03:10:00 20.2 C 11.54 g/m*3 20.2 C 1.6 km/h
40 22-05-2014 03:15:00 20.2 C 11.37 g/m*3 20.2 C 3.2 km/h
41 22-05-2014 03:20:00 20.4 C 11.5 g/m*3 20.4 C 3.2 km/h
42 22-05-2014 03:25:00 20.4 C 11.5 g/m*3 20.4 C 1.6 km/h
43 22-05-2014 03:30:00 20.6 C 11.63 g/m*3 20.6 C 4.8 km/h
44 22-05-2014 03:35:00 20.8 C 11.77 g/m*3 20.8 C 9.7 km/h
45 22-05-2014 03:40:00 20.8 C 11.77 g/m*3 20.8 C 8.1 km/h
46 22-05-2014 03:45:00 20.7 C 11.88 g/m*3 20.7 C 12.9 km/h
47 22-05-2014 03:50:00 20.6 C 11.99 g/m*3 20.6 C 16.1 km/h
48 22-05-2014 03:55:00 20.4 C 12.03 g/m*3 20.4 C 9.7 km/h
49 22-05-2014 04:00:00 20.2 C 12.06 g/m*3 20.2 C 4.8 km/h
50 22-05-2014 04:05:00 20.1 C 12.17 g/m*3 20.1 C 6.4 km/h
Sensor: Nr:Datum:Temp:Abs-Feuchte:Windchill:Wind:
Aussen-T/F 51 22-05-2014 04:10:00 19.9 C 12.03 g/m*3 19.9 C 4.8 km/h
52 22-05-2014 04:15:00 19.7 C 12.23 g/m*3 19.7 C 0 km/h
53 22-05-2014 04:20:00 19.5 C 12.08 g/m*3 19.5 C 1.6 km/h
54 22-05-2014 04:25:00 19.3 C 12.27 g/m*3 19.3 C 1.6 km/h
55 22-05-2014 04:30:00 19.1 C 12.13 g/m*3 19.1 C 3.2 km/h
56 22-05-2014 04:35:00 18.9 C 12.15 g/m*3 18.9 C 0 km/h
57 22-05-2014 04:40:00 18.7 C 12.17 g/m*3 18.7 C 1.6 km/h
58 22-05-2014 04:45:00 18.6 C 12.26 g/m*3 18.6 C 4.8 km/h
59 22-05-2014 04:50:00 18.4 C 12.27 g/m*3 18.4 C 1.6 km/h
60 22-05-2014 04:55:00 18.2 C 12.12 g/m*3 18.2 C 1.6 km/h
61 22-05-2014 05:00:00 18.1 C 12.05 g/m*3 18.1 C 1.6 km/h
62 22-05-2014 05:05:00 18 C 12.13 g/m*3 18 C 1.6 km/h
63 22-05-2014 05:10:00 17.9 C 12.06 g/m*3 17.9 C 0 km/h
64 22-05-2014 05:15:00 17.8 C 11.84 g/m*3 17.8 C 0 km/h
65 22-05-2014 05:20:00 17.7 C 11.77 g/m*3 17.7 C 1.6 km/h
66 22-05-2014 05:25:00 17.6 C 11.85 g/m*3 17.6 C 0 km/h
67 22-05-2014 05:30:00 17.4 C 11.86 g/m*3 17.4 C 0 km/h
68 22-05-2014 05:35:00 17.3 C 11.79 g/m*3 17.3 C 1.6 km/h
69 22-05-2014 05:40:00 17.1 C 11.79 g/m*3 17.1 C 0 km/h
70 22-05-2014 05:45:00 16.9 C 11.65 g/m*3 16.9 C 0 km/h
71 22-05-2014 05:50:00 16.8 C 11.72 g/m*3 16.8 C 0 km/h
72 22-05-2014 05:55:00 16.6 C 11.72 g/m*3 16.6 C 0 km/h
73 22-05-2014 06:00:00 16.5 C 11.65 g/m*3 16.5 C 0 km/h
74 22-05-2014 06:05:00 16.4 C 11.58 g/m*3 16.4 C 0 km/h
75 22-05-2014 06:10:00 16.4 C 11.58 g/m*3 16.4 C 0 km/h
Sensor: Nr:Datum:Temp:Abs-Feuchte:Windchill:Wind:
Aussen-T/F 76 22-05-2014 06:15:00 16.4 C 11.72 g/m*3 16.4 C 0 km/h
77 22-05-2014 06:20:00 16.4 C 11.72 g/m*3 16.4 C 0 km/h
78 22-05-2014 06:25:00 16.5 C 11.8 g/m*3 16.5 C 0 km/h
79 22-05-2014 06:30:00 16.6 C 11.72 g/m*3 16.6 C 0 km/h
80 22-05-2014 06:35:00 16.7 C 11.8 g/m*3 16.7 C 1.6 km/h
81 22-05-2014 06:40:00 16.8 C 11.58 g/m*3 16.8 C 3.2 km/h
82 22-05-2014 06:45:00 17.1 C 11.65 g/m*3 17.1 C 1.6 km/h
83 22-05-2014 06:50:00 17.2 C 11.42 g/m*3 17.2 C 1.6 km/h
84 22-05-2014 06:55:00 17.3 C 11.49 g/m*3 17.3 C 1.6 km/h
85 22-05-2014 07:00:00 17.4 C 11.56 g/m*3 17.4 C 1.6 km/h
86 22-05-2014 07:05:00 17.4 C 11.56 g/m*3 17.4 C 3.2 km/h
87 22-05-2014 07:10:00 17.4 C 11.71 g/m*3 17.4 C 0 km/h
88 22-05-2014 07:15:00 17.3 C 11.79 g/m*3 17.3 C 0 km/h
89 22-05-2014 07:20:00 17.3 C 11.93 g/m*3 17.3 C 0 km/h
90 22-05-2014 07:25:00 17.2 C 11.72 g/m*3 17.2 C 0 km/h
91 22-05-2014 07:30:00 17.2 C 11.42 g/m*3 17.2 C 3.2 km/h
92 22-05-2014 07:35:00 17.3 C 11.93 g/m*3 17.3 C 0 km/h
93 22-05-2014 07:40:00 17.2 C 12.01 g/m*3 17.2 C 0 km/h
94 22-05-2014 07:45:00 17.1 C 11.94 g/m*3 17.1 C 0 km/h
95 22-05-2014 07:50:00 17.1 C 11.5 g/m*3 17.1 C 0 km/h
96 22-05-2014 07:55:00 17.1 C 11.79 g/m*3 17.1 C 0 km/h
97 22-05-2014 08:00:00 17 C 11.87 g/m*3 17 C 0 km/h
98 22-05-2014 08:05:00 16.9 C 11.94 g/m*3 16.9 C 0 km/h
99 22-05-2014 08:10:00 16.9 C 11.94 g/m*3 16.9 C 0 km/h
100 22-05-2014 08:15:00 16.9 C 11.94 g/m*3 16.9 C 0 km/h
Sensor: Nr:Datum:Temp:Abs-Feuchte:Windchill:Wind:
Aussen-T/F 101 22-05-2014 08:20:00 17 C 12.01 g/m*3 17 C 0 km/h
102 22-05-2014 08:25:00 17.1 C 12.08 g/m*3 17.1 C 0 km/h
103 22-05-2014 08:30:00 17.2 C 12.15 g/m*3 17.2 C 0 km/h
104 22-05-2014 08:35:00 17.3 C 11.34 g/m*3 17.3 C 4.8 km/h
105 22-05-2014 08:40:00 17.7 C 11.47 g/m*3 17.7 C 3.2 km/h
106 22-05-2014 08:45:00 18 C 11.37 g/m*3 18 C 6.4 km/h
107 22-05-2014 08:50:00 18.2 C 11.04 g/m*3 18.2 C 8.1 km/h
108 22-05-2014 08:55:00 18.4 C 11.17 g/m*3 18.4 C 0 km/h
109 22-05-2014 09:00:00 18.6 C 10.82 g/m*3 18.6 C 4.8 km/h
110 22-05-2014 09:05:00 18.8 C 10.47 g/m*3 18.8 C 12.9 km/h
111 22-05-2014 09:10:00 18.8 C 10.15 g/m*3 18.8 C 11.3 km/h
112 22-05-2014 09:15:00 18.9 C 9.88 g/m*3 18.9 C 9.7 km/h
113 22-05-2014 09:20:00 19 C 9.94 g/m*3 19 C 11.3 km/h
114 22-05-2014 09:25:00 19.1 C 10 g/m*3 19.1 C 4.8 km/h
115 22-05-2014 09:30:00 19.3 C 9.79 g/m*3 19.3 C 9.7 km/h
116 22-05-2014 09:35:00 19.4 C 9.84 g/m*3 19.4 C 9.7 km/h
117 22-05-2014 09:40:00 19.7 C 9.85 g/m*3 19.7 C 9.7 km/h
118 22-05-2014 09:45:00 19.9 C 9.62 g/m*3 19.9 C 11.3 km/h
119 22-05-2014 09:50:00 20.1 C 9.56 g/m*3 20.1 C 11.3 km/h
120 22-05-2014 09:55:00 20.2 C 9.44 g/m*3 20.2 C 9.7 km/h
121 22-05-2014 10:00:00 20.4 C 9.55 g/m*3 20.4 C 6.4 km/h
122 22-05-2014 10:05:00 20.6 C 9.31 g/m*3 20.6 C 12.9 km/h
123 22-05-2014 10:10:00 20.8 C 9.23 g/m*3 20.8 C 8.1 km/h
124 22-05-2014 10:15:00 20.9 C 9.29 g/m*3 20.9 C 9.7 km/h
125 22-05-2014 10:20:00 21 C 8.98 g/m*3 21 C 9.7 km/h
Sensor: Nr:Datum:Temp:Abs-Feuchte:Windchill:Wind:
Aussen-T/F 126 22-05-2014 10:25:00 21.1 C 9.21 g/m*3 21.1 C 9.7 km/h
127 22-05-2014 10:30:00 21.3 C 9.69 g/m*3 21.3 C 8.1 km/h
128 22-05-2014 10:35:00 21.5 C 9.62 g/m*3 21.5 C 9.7 km/h
129 22-05-2014 10:40:00 21.7 C 9.16 g/m*3 21.7 C 4.8 km/h
130 22-05-2014 10:45:00 21.8 C 9.21 g/m*3 21.8 C 6.4 km/h
131 22-05-2014 10:50:00 21.9 C 9.07 g/m*3 21.9 C 6.4 km/h
132 22-05-2014 10:55:00 22.2 C 10.21 g/m*3 22.2 C 3.2 km/h
133 22-05-2014 11:00:00 22.4 C 9.73 g/m*3 22.4 C 4.8 km/h
134 22-05-2014 11:05:00 22.6 C 9.64 g/m*3 22.6 C 6.4 km/h
135 22-05-2014 11:10:00 22.9 C 8.99 g/m*3 22.9 C 8.1 km/h
136 22-05-2014 11:15:00 23.1 C 9.3 g/m*3 23.1 C 9.7 km/h
137 22-05-2014 11:20:00 23.3 C 9.2 g/m*3 23.3 C 6.4 km/h
138 22-05-2014 11:25:00 23.5 C 9.31 g/m*3 23.5 C 11.3 km/h
139 22-05-2014 11:30:00 23.3 C 9.2 g/m*3 23.3 C 8.1 km/h
140 22-05-2014 11:35:00 23.3 C 8.78 g/m*3 23.3 C 4.8 km/h
141 22-05-2014 11:40:00 23.2 C 8.94 g/m*3 23.2 C 6.4 km/h
142 22-05-2014 11:45:00 23.3 C 8.99 g/m*3 23.3 C 8.1 km/h
143 22-05-2014 11:50:00 23.4 C 9.46 g/m*3 23.4 C 8.1 km/h
144 22-05-2014 11:55:00 23.7 C 9.2 g/m*3 23.7 C 6.4 km/h
145 22-05-2014 12:00:00 24.1 C 8.75 g/m*3 24.1 C 6.4 km/h
146 22-05-2014 12:05:00 24.3 C 8.85 g/m*3 24.3 C 6.4 km/h
147 22-05-2014 12:10:00 24.3 C 8.85 g/m*3 24.3 C 3.2 km/h
148 22-05-2014 12:15:00 24.6 C 9 g/m*3 24.6 C 6.4 km/h
149 22-05-2014 12:20:00 24.8 C 9.33 g/m*3 24.8 C 6.4 km/h
150 22-05-2014 12:25:00 24.8 C 8.65 g/m*3 24.8 C 3.2 km/h
Sensor: Nr:Datum:Temp:Abs-Feuchte:Windchill:Wind:
Aussen-T/F 151 22-05-2014 12:30:00 24.9 C 9.39 g/m*3 24.9 C 6.4 km/h
152 22-05-2014 12:35:00 25.2 C 8.85 g/m*3 25.2 C 6.4 km/h
153 22-05-2014 12:40:00 25.2 C 9.08 g/m*3 25.2 C 8.1 km/h
154 22-05-2014 12:45:00 25.2 C 9.31 g/m*3 25.2 C 8.1 km/h
155 22-05-2014 12:50:00 25.2 C 9.54 g/m*3 25.2 C 4.8 km/h
156 22-05-2014 12:55:00 25.3 C 10.07 g/m*3 25.3 C 6.4 km/h
157 22-05-2014 13:00:00 25.4 C 10.36 g/m*3 25.4 C 9.7 km/h
158 22-05-2014 13:05:00 25.6 C 10.48 g/m*3 25.6 C 3.2 km/h
159 22-05-2014 13:10:00 25.8 C 10.35 g/m*3 25.8 C 4.8 km/h
160 22-05-2014 13:15:00 26.1 C 10.28 g/m*3 26.1 C 8.1 km/h
161 22-05-2014 13:20:00 26 C 10.47 g/m*3 26 C 4.8 km/h
162 22-05-2014 13:25:00 26.2 C 10.34 g/m*3 26.2 C 4.8 km/h
163 22-05-2014 13:30:00 26.3 C 11.39 g/m*3 26.3 C 3.2 km/h
164 22-05-2014 13:35:00 26.2 C 10.09 g/m*3 26.2 C 6.4 km/h
165 22-05-2014 13:40:00 26.2 C 10.59 g/m*3 26.2 C 1.6 km/h
166 22-05-2014 13:45:00 26.3 C 10.64 g/m*3 26.3 C 4.8 km/h
167 22-05-2014 13:50:00 26.4 C 10.46 g/m*3 26.4 C 4.8 km/h
168 22-05-2014 13:55:00 26.7 C 10.88 g/m*3 26.7 C 6.4 km/h
169 22-05-2014 14:00:00 26.8 C 10.94 g/m*3 26.8 C 4.8 km/h
170 22-05-2014 14:05:00 26.7 C 10.12 g/m*3 26.7 C 11.3 km/h
171 22-05-2014 14:10:00 26.6 C 10.07 g/m*3 26.6 C 6.4 km/h
172 22-05-2014 14:15:00 26.7 C 10.38 g/m*3 26.7 C 4.8 km/h
173 22-05-2014 14:20:00 26.7 C 10.12 g/m*3 26.7 C 6.4 km/h
174 22-05-2014 14:25:00 26.6 C 9.82 g/m*3 26.6 C 17.7 km/h
175 22-05-2014 14:30:00 26.4 C 10.7 g/m*3 26.4 C 16.1 km/h
Sensor: Nr:Datum:Temp:Abs-Feuchte:Windchill:Wind:
Aussen-T/F 176 22-05-2014 14:35:00 26.5 C 10.01 g/m*3 26.5 C 8.1 km/h
177 22-05-2014 14:40:00 26.8 C 10.94 g/m*3 26.8 C 11.3 km/h
178 22-05-2014 14:45:00 27.1 C 10.35 g/m*3 27.1 C 9.7 km/h
179 22-05-2014 14:50:00 27.1 C 10.35 g/m*3 27.1 C 9.7 km/h
180 22-05-2014 14:55:00 27.2 C 10.15 g/m*3 27.2 C 4.8 km/h
181 22-05-2014 15:00:00 27.3 C 9.94 g/m*3 27.3 C 9.7 km/h
182 22-05-2014 15:05:00 27.2 C 10.93 g/m*3 27.2 C 8.1 km/h
183 22-05-2014 15:10:00 27.4 C 10 g/m*3 27.4 C 14.5 km/h
184 22-05-2014 15:15:00 27.4 C 10.52 g/m*3 27.4 C 14.5 km/h
185 22-05-2014 15:20:00 27.1 C 9.83 g/m*3 27.1 C 11.3 km/h
186 22-05-2014 15:25:00 27 C 10.04 g/m*3 27 C 11.3 km/h
187 22-05-2014 15:30:00 27.3 C 10.2 g/m*3 27.3 C 11.3 km/h
188 22-05-2014 15:35:00 27.3 C 10.2 g/m*3 27.3 C 9.7 km/h
189 22-05-2014 15:40:00 27.2 C 10.15 g/m*3 27.2 C 11.3 km/h
190 22-05-2014 15:45:00 27 C 10.29 g/m*3 27 C 8.1 km/h
191 22-05-2014 15:50:00 27.2 C 9.89 g/m*3 27.2 C 9.7 km/h
192 22-05-2014 15:55:00 27.7 C 10.43 g/m*3 27.7 C 8.1 km/h
193 22-05-2014 16:00:00 27.8 C 10.49 g/m*3 27.8 C 9.7 km/h
194 22-05-2014 16:05:00 27.8 C 9.95 g/m*3 27.8 C 8.1 km/h
195 22-05-2014 16:10:00 27.8 C 9.95 g/m*3 27.8 C 8.1 km/h
196 22-05-2014 16:15:00 28.1 C 10.66 g/m*3 28.1 C 8.1 km/h
197 22-05-2014 16:20:00 28.4 C 10.56 g/m*3 28.4 C 8.1 km/h
198 22-05-2014 16:25:00 28.2 C 9.62 g/m*3 28.2 C 12.9 km/h
199 22-05-2014 16:30:00 27.9 C 10.28 g/m*3 27.9 C 11.3 km/h
200 22-05-2014 16:35:00 28 C 10.06 g/m*3 28 C 11.3 km/h
Sensor: Nr:Datum:Temp:Abs-Feuchte:Windchill:Wind:
Aussen-T/F 201 22-05-2014 16:40:00 27.8 C 10.22 g/m*3 27.8 C 4.8 km/h
202 22-05-2014 16:45:00 27.3 C 10.2 g/m*3 27.3 C 4.8 km/h
203 22-05-2014 16:50:00 27.1 C 10.35 g/m*3 27.1 C 3.2 km/h
204 22-05-2014 16:55:00 26.7 C 9.87 g/m*3 26.7 C 3.2 km/h
205 22-05-2014 17:00:00 26.2 C 11.08 g/m*3 26.2 C 0 km/h
206 22-05-2014 17:05:00 25.7 C 10.53 g/m*3 25.7 C 4.8 km/h
207 22-05-2014 17:10:00 25.4 C 10.36 g/m*3 25.4 C 6.4 km/h
208 22-05-2014 17:15:00 25.2 C 10.48 g/m*3 25.2 C 8.1 km/h
209 22-05-2014 17:20:00 25 C 9.9 g/m*3 25 C 16.1 km/h
210 22-05-2014 17:25:00 25.1 C 10.19 g/m*3 25.1 C 9.7 km/h
211 22-05-2014 17:30:00 25.3 C 10.07 g/m*3 25.3 C 9.7 km/h
212 22-05-2014 17:35:00 25.4 C 10.36 g/m*3 25.4 C 17.7 km/h
213 22-05-2014 17:40:00 25.1 C 10.42 g/m*3 25.1 C 9.7 km/h
214 22-05-2014 17:45:00 24.8 C 10.24 g/m*3 24.8 C 16.1 km/h
215 22-05-2014 17:50:00 24.5 C 10.74 g/m*3 24.5 C 8.1 km/h
216 22-05-2014 17:55:00 24.3 C 10.62 g/m*3 24.3 C 4.8 km/h
217 22-05-2014 18:00:00 24.2 C 10.12 g/m*3 24.2 C 8.1 km/h
218 22-05-2014 18:05:00 24 C 9.57 g/m*3 24 C 14.5 km/h
219 22-05-2014 18:10:00 23.8 C 9.46 g/m*3 23.8 C 12.9 km/h
220 22-05-2014 18:15:00 23.7 C 9.41 g/m*3 23.7 C 16.1 km/h
221 22-05-2014 18:20:00 23.6 C 9.57 g/m*3 23.6 C 17.7 km/h
222 22-05-2014 18:25:00 23.3 C 10.04 g/m*3 23.3 C 16.1 km/h
223 22-05-2014 18:30:00 22.6 C 11.05 g/m*3 22.6 C 16.1 km/h
224 22-05-2014 18:35:00 21.4 C 11.81 g/m*3 21.4 C 14.5 km/h
225 22-05-2014 18:40:00 20.4 C 12.56 g/m*3 20.4 C 1.6 km/h
Sensor: Nr:Datum:Temp:Abs-Feuchte:Windchill:Wind:
Aussen-T/F 226 22-05-2014 18:45:00 19.4 C 13.01 g/m*3 19.4 C 0 km/h
227 22-05-2014 18:50:00 18.8 C 12.88 g/m*3 18.8 C 0 km/h
228 22-05-2014 18:55:00 18.3 C 12.98 g/m*3 18.3 C 0 km/h
229 22-05-2014 19:00:00 17.9 C 13.13 g/m*3 17.9 C 1.6 km/h
230 22-05-2014 19:05:00 17.7 C 12.22 g/m*3 17.7 C 9.7 km/h
231 22-05-2014 19:10:00 17.6 C 12 g/m*3 17.6 C 11.3 km/h
232 22-05-2014 19:15:00 17.5 C 12.08 g/m*3 17.5 C 24.1 km/h
233 22-05-2014 19:20:00 17 C 11.87 g/m*3 17 C 17.7 km/h
234 22-05-2014 19:25:00 16.4 C 11.72 g/m*3 16.4 C 4.8 km/h
235 22-05-2014 19:30:00 16 C 11.72 g/m*3 16 C 3.2 km/h
236 22-05-2014 19:35:00 15.8 C 11.85 g/m*3 15.8 C 3.2 km/h
237 22-05-2014 19:40:00 15.6 C 11.84 g/m*3 15.6 C 1.6 km/h
238 22-05-2014 19:45:00 15.4 C 11.82 g/m*3 15.4 C 0 km/h
239 22-05-2014 19:50:00 15.4 C 12.09 g/m*3 15.4 C 0 km/h
240 22-05-2014 19:55:00 15.3 C 11.88 g/m*3 15.3 C 0 km/h
241 22-05-2014 20:00:00 15.2 C 11.94 g/m*3 15.2 C 0 km/h
242 22-05-2014 20:05:00 15.1 C 11.87 g/m*3 15.1 C 0 km/h
243 22-05-2014 20:10:00 15 C 11.93 g/m*3 15 C 0 km/h
244 22-05-2014 20:15:00 14.9 C 11.85 g/m*3 14.9 C 0 km/h
245 22-05-2014 20:20:00 14.9 C 11.85 g/m*3 14.9 C 0 km/h
246 22-05-2014 20:25:00 14.8 C 11.78 g/m*3 14.8 C 0 km/h
247 22-05-2014 20:30:00 14.8 C 11.91 g/m*3 14.8 C 0 km/h
248 22-05-2014 20:35:00 14.8 C 11.91 g/m*3 14.8 C 0 km/h
249 22-05-2014 20:40:00 14.8 C 11.91 g/m*3 14.8 C 0 km/h
250 22-05-2014 20:45:00 14.7 C 11.83 g/m*3 14.7 C 0 km/h
Sensor: Nr:Datum:Temp:Abs-Feuchte:Windchill:Wind:
Aussen-T/F 251 22-05-2014 20:50:00 14.7 C 11.83 g/m*3 14.7 C 0 km/h
252 22-05-2014 20:55:00 14.7 C 11.83 g/m*3 14.7 C 0 km/h
253 22-05-2014 21:00:00 14.7 C 11.83 g/m*3 14.7 C 0 km/h
254 22-05-2014 21:05:00 14.6 C 11.89 g/m*3 14.6 C 0 km/h
255 22-05-2014 21:10:00 14.6 C 11.89 g/m*3 14.6 C 0 km/h
256 22-05-2014 21:15:00 14.7 C 11.96 g/m*3 14.7 C 3.2 km/h
257 22-05-2014 21:20:00 14.7 C 11.96 g/m*3 14.7 C 1.6 km/h
258 22-05-2014 21:25:00 14.6 C 11.89 g/m*3 14.6 C 1.6 km/h
259 22-05-2014 21:30:00 14.6 C 11.89 g/m*3 14.6 C 1.6 km/h
260 22-05-2014 21:35:00 14.6 C 11.89 g/m*3 14.6 C 1.6 km/h
261 22-05-2014 21:40:00 14.4 C 11.74 g/m*3 14.4 C 1.6 km/h
262 22-05-2014 21:45:00 14.4 C 11.74 g/m*3 14.4 C 0 km/h
263 22-05-2014 21:50:00 14.4 C 11.74 g/m*3 14.4 C 1.6 km/h
264 22-05-2014 21:55:00 14.4 C 11.74 g/m*3 14.4 C 0 km/h
265 22-05-2014 22:00:00 14.3 C 11.67 g/m*3 14.3 C 0 km/h
266 22-05-2014 22:05:00 14.3 C 11.67 g/m*3 14.3 C 0 km/h
267 22-05-2014 22:10:00 14.2 C 11.6 g/m*3 14.2 C 0 km/h
268 22-05-2014 22:15:00 14.2 C 11.6 g/m*3 14.2 C 0 km/h
269 22-05-2014 22:20:00 14.2 C 11.6 g/m*3 14.2 C 1.6 km/h
270 22-05-2014 22:25:00 14.1 C 11.53 g/m*3 14.1 C 1.6 km/h
271 22-05-2014 22:30:00 14 C 11.46 g/m*3 14 C 1.6 km/h
272 22-05-2014 22:35:00 14 C 11.58 g/m*3 14 C 1.6 km/h
273 22-05-2014 22:40:00 13.9 C 11.51 g/m*3 13.9 C 0 km/h
274 22-05-2014 22:45:00 13.9 C 11.51 g/m*3 13.9 C 0 km/h
275 22-05-2014 22:50:00 13.9 C 11.51 g/m*3 13.9 C 0 km/h
Sensor: Nr:Datum:Temp:Abs-Feuchte:Windchill:Wind:
Aussen-T/F 276 22-05-2014 22:55:00 13.9 C 11.51 g/m*3 13.9 C 0 km/h
277 22-05-2014 23:00:00 13.8 C 11.44 g/m*3 13.8 C 0 km/h
278 22-05-2014 23:05:00 13.8 C 11.44 g/m*3 13.8 C 0 km/h
279 22-05-2014 23:10:00 13.8 C 11.44 g/m*3 13.8 C 0 km/h
280 22-05-2014 23:15:00 13.8 C 11.44 g/m*3 13.8 C 0 km/h
281 22-05-2014 23:20:00 13.8 C 11.44 g/m*3 13.8 C 0 km/h
282 22-05-2014 23:25:00 13.8 C 11.44 g/m*3 13.8 C 0 km/h
283 22-05-2014 23:30:00 13.8 C 11.44 g/m*3 13.8 C 0 km/h
284 22-05-2014 23:35:00 13.7 C 11.37 g/m*3 13.7 C 0 km/h
285 22-05-2014 23:40:00 13.7 C 11.37 g/m*3 13.7 C 0 km/h
286 22-05-2014 23:45:00 13.7 C 11.37 g/m*3 13.7 C 0 km/h
287 22-05-2014 23:50:00 13.7 C 11.37 g/m*3 13.7 C 0 km/h
288 22-05-2014 23:55:00 13.6 C 11.3 g/m*3 13.6 C 0 km/h
289 23-05-2014 00:00:00 13.6 C 11.3 g/m*3 13.6 C 0 km/h
290 23-05-2014 00:05:00 13.6 C 11.3 g/m*3 13.6 C 0 km/h
291 23-05-2014 00:10:00 13.6 C 11.3 g/m*3 13.6 C 0 km/h
292 23-05-2014 00:15:00 13.6 C 11.3 g/m*3 13.6 C 1.6 km/h
293 23-05-2014 00:20:00 13.6 C 11.42 g/m*3 13.6 C 0 km/h
294 23-05-2014 00:25:00 13.6 C 11.3 g/m*3 13.6 C 0 km/h
295 23-05-2014 00:30:00 13.6 C 11.3 g/m*3 13.6 C 1.6 km/h
296 23-05-2014 00:35:00 13.6 C 11.42 g/m*3 13.6 C 0 km/h
297 23-05-2014 00:40:00 13.6 C 11.42 g/m*3 13.6 C 1.6 km/h
298 23-05-2014 00:45:00 13.6 C 11.42 g/m*3 13.6 C 0 km/h
299 23-05-2014 00:50:00 13.6 C 11.3 g/m*3 13.6 C 0 km/h
300 23-05-2014 00:55:00 13.6 C 11.3 g/m*3 13.6 C 0 km/h
Sensor: Nr:Datum:Temp:Abs-Feuchte:Windchill:Wind:
Aussen-T/F 301 23-05-2014 01:00:00 13.6 C 11.3 g/m*3 13.6 C 0 km/h
302 23-05-2014 01:05:00 13.6 C 11.42 g/m*3 13.6 C 1.6 km/h
303 23-05-2014 01:10:00 13.5 C 11.35 g/m*3 13.5 C 0 km/h
304 23-05-2014 01:15:00 13.5 C 11.35 g/m*3 13.5 C 1.6 km/h
305 23-05-2014 01:20:00 13.4 C 11.16 g/m*3 13.4 C 3.2 km/h
306 23-05-2014 01:25:00 13.4 C 11.28 g/m*3 13.4 C 0 km/h
307 23-05-2014 01:30:00 13.4 C 11.28 g/m*3 13.4 C 0 km/h
308 23-05-2014 01:35:00 13.4 C 11.28 g/m*3 13.4 C 0 km/h
309 23-05-2014 01:40:00 13.4 C 11.28 g/m*3 13.4 C 0 km/h
310 23-05-2014 01:45:00 13.4 C 11.16 g/m*3 13.4 C 3.2 km/h
311 23-05-2014 01:50:00 13.4 C 11.16 g/m*3 13.4 C 0 km/h
312 23-05-2014 01:55:00 13.4 C 11.28 g/m*3 13.4 C 0 km/h
313 23-05-2014 02:00:00 13.4 C 11.28 g/m*3 13.4 C 0 km/h
314 23-05-2014 02:05:00 13.3 C 11.21 g/m*3 13.3 C 0 km/h
315 23-05-2014 02:10:00 13.3 C 11.21 g/m*3 13.3 C 0 km/h
316 23-05-2014 02:15:00 13.3 C 11.21 g/m*3 13.3 C 0 km/h
317 23-05-2014 02:20:00 13.3 C 11.21 g/m*3 13.3 C 0 km/h
318 23-05-2014 02:25:00 13.3 C 11.21 g/m*3 13.3 C 0 km/h
319 23-05-2014 02:30:00 13.3 C 11.21 g/m*3 13.3 C 0 km/h
320 23-05-2014 02:35:00 13.3 C 11.21 g/m*3 13.3 C 0 km/h
321 23-05-2014 02:40:00 13.3 C 11.21 g/m*3 13.3 C 0 km/h
322 23-05-2014 02:45:00 13.3 C 11.21 g/m*3 13.3 C 0 km/h
323 23-05-2014 02:50:00 13.3 C 11.21 g/m*3 13.3 C 0 km/h
324 23-05-2014 02:55:00 13.3 C 11.21 g/m*3 13.3 C 0 km/h
325 23-05-2014 03:00:00 13.3 C 11.21 g/m*3 13.3 C 0 km/h
Sensor: Nr:Datum:Temp:Abs-Feuchte:Windchill:Wind:
Aussen-T/F 326 23-05-2014 03:05:00 13.3 C 11.21 g/m*3 13.3 C 0 km/h
327 23-05-2014 03:10:00 13.3 C 11.21 g/m*3 13.3 C 0 km/h
328 23-05-2014 03:15:00 13.3 C 11.21 g/m*3 13.3 C 0 km/h
329 23-05-2014 03:20:00 13.2 C 11.14 g/m*3 13.2 C 0 km/h
330 23-05-2014 03:25:00 13.2 C 11.14 g/m*3 13.2 C 0 km/h
331 23-05-2014 03:30:00 13.2 C 11.14 g/m*3 13.2 C 0 km/h
332 23-05-2014 03:35:00 13.2 C 11.14 g/m*3 13.2 C 0 km/h
333 23-05-2014 03:40:00 13.2 C 11.14 g/m*3 13.2 C 0 km/h
334 23-05-2014 03:45:00 13.2 C 11.14 g/m*3 13.2 C 0 km/h
335 23-05-2014 03:50:00 13.2 C 11.14 g/m*3 13.2 C 0 km/h
336 23-05-2014 03:55:00 13.2 C 11.14 g/m*3 13.2 C 0 km/h
337 23-05-2014 04:00:00 13.1 C 11.07 g/m*3 13.1 C 0 km/h
338 23-05-2014 04:05:00 13.1 C 11.07 g/m*3 13.1 C 0 km/h
339 23-05-2014 04:10:00 13.1 C 11.07 g/m*3 13.1 C 0 km/h
340 23-05-2014 04:15:00 13.1 C 11.07 g/m*3 13.1 C 0 km/h
341 23-05-2014 04:20:00 13.1 C 11.07 g/m*3 13.1 C 0 km/h
342 23-05-2014 04:25:00 13 C 11 g/m*3 13 C 0 km/h
343 23-05-2014 04:30:00 12.9 C 10.93 g/m*3 12.9 C 0 km/h
344 23-05-2014 04:35:00 12.9 C 10.93 g/m*3 12.9 C 0 km/h
345 23-05-2014 04:40:00 12.9 C 10.93 g/m*3 12.9 C 0 km/h
346 23-05-2014 04:45:00 12.8 C 10.87 g/m*3 12.8 C 0 km/h
347 23-05-2014 04:50:00 12.8 C 10.87 g/m*3 12.8 C 0 km/h
348 23-05-2014 04:55:00 12.7 C 10.8 g/m*3 12.7 C 0 km/h
349 23-05-2014 05:00:00 12.7 C 10.8 g/m*3 12.7 C 0 km/h
350 23-05-2014 05:05:00 12.7 C 10.8 g/m*3 12.7 C 0 km/h
Sensor: Nr:Datum:Temp:Abs-Feuchte:Windchill:Wind:
Aussen-T/F 351 23-05-2014 05:10:00 12.7 C 10.8 g/m*3 12.7 C 0 km/h
352 23-05-2014 05:15:00 12.7 C 10.8 g/m*3 12.7 C 0 km/h
353 23-05-2014 05:20:00 12.7 C 10.8 g/m*3 12.7 C 0 km/h
354 23-05-2014 05:25:00 12.7 C 10.8 g/m*3 12.7 C 0 km/h
355 23-05-2014 05:30:00 12.7 C 10.8 g/m*3 12.7 C 0 km/h
356 23-05-2014 05:35:00 12.7 C 10.8 g/m*3 12.7 C 0 km/h
357 23-05-2014 05:40:00 12.7 C 10.8 g/m*3 12.7 C 0 km/h
358 23-05-2014 05:45:00 12.8 C 10.87 g/m*3 12.8 C 0 km/h
359 23-05-2014 05:50:00 12.8 C 10.87 g/m*3 12.8 C 0 km/h
360 23-05-2014 05:55:00 12.9 C 11.05 g/m*3 12.9 C 0 km/h
361 23-05-2014 06:00:00 12.9 C 11.05 g/m*3 12.9 C 0 km/h
362 23-05-2014 06:05:00 13.1 C 11.18 g/m*3 13.1 C 0 km/h
363 23-05-2014 06:10:00 13.1 C 11.07 g/m*3 13.1 C 0 km/h
364 23-05-2014 06:15:00 13.1 C 11.07 g/m*3 13.1 C 0 km/h
365 23-05-2014 06:20:00 13.1 C 11.07 g/m*3 13.1 C 0 km/h
366 23-05-2014 06:25:00 13.1 C 11.07 g/m*3 13.1 C 0 km/h
367 23-05-2014 06:30:00 13.1 C 11.07 g/m*3 13.1 C 0 km/h
368 23-05-2014 06:35:00 13.1 C 11.07 g/m*3 13.1 C 0 km/h
369 23-05-2014 06:40:00 13.1 C 11.07 g/m*3 13.1 C 0 km/h
370 23-05-2014 06:45:00 13.1 C 11.07 g/m*3 13.1 C 0 km/h
371 23-05-2014 06:50:00 13.1 C 11.07 g/m*3 13.1 C 0 km/h
372 23-05-2014 06:55:00 13.2 C 11.14 g/m*3 13.2 C 0 km/h
373 23-05-2014 07:00:00 13.2 C 11.14 g/m*3 13.2 C 0 km/h
374 23-05-2014 07:05:00 13.2 C 11.14 g/m*3 13.2 C 0 km/h
375 23-05-2014 07:10:00 13.2 C 11.14 g/m*3 13.2 C 0 km/h
Sensor: Nr:Datum:Temp:Abs-Feuchte:Windchill:Wind:
Aussen-T/F 376 23-05-2014 07:15:00 13.2 C 11.25 g/m*3 13.2 C 0 km/h
377 23-05-2014 07:20:00 13.3 C 11.32 g/m*3 13.3 C 0 km/h
378 23-05-2014 07:25:00 13.3 C 11.32 g/m*3 13.3 C 0 km/h
379 23-05-2014 07:30:00 13.3 C 11.32 g/m*3 13.3 C 0 km/h
380 23-05-2014 07:35:00 13.4 C 11.39 g/m*3 13.4 C 0 km/h
381 23-05-2014 07:40:00 13.6 C 11.53 g/m*3 13.6 C 0 km/h
382 23-05-2014 07:45:00 13.6 C 11.53 g/m*3 13.6 C 0 km/h
383 23-05-2014 07:50:00 13.7 C 11.6 g/m*3 13.7 C 0 km/h
384 23-05-2014 07:55:00 13.8 C 11.68 g/m*3 13.8 C 0 km/h
385 23-05-2014 08:00:00 13.8 C 11.68 g/m*3 13.8 C 0 km/h
386 23-05-2014 08:05:00 13.8 C 11.68 g/m*3 13.8 C 0 km/h
387 23-05-2014 08:10:00 13.8 C 11.68 g/m*3 13.8 C 0 km/h
388 23-05-2014 08:15:00 13.8 C 11.68 g/m*3 13.8 C 0 km/h
389 23-05-2014 08:20:00 13.9 C 11.75 g/m*3 13.9 C 0 km/h
390 23-05-2014 08:25:00 13.9 C 11.75 g/m*3 13.9 C 0 km/h
391 23-05-2014 08:30:00 13.9 C 11.75 g/m*3 13.9 C 0 km/h
392 23-05-2014 08:35:00 14 C 11.82 g/m*3 14 C 0 km/h
393 23-05-2014 08:40:00 13.9 C 11.75 g/m*3 13.9 C 0 km/h
394 23-05-2014 08:45:00 13.9 C 11.75 g/m*3 13.9 C 0 km/h
395 23-05-2014 08:50:00 14 C 11.82 g/m*3 14 C 0 km/h
396 23-05-2014 08:55:00 14 C 11.82 g/m*3 14 C 0 km/h
397 23-05-2014 09:00:00 14 C 11.82 g/m*3 14 C 0 km/h
398 23-05-2014 09:05:00 13.9 C 11.75 g/m*3 13.9 C 0 km/h
399 23-05-2014 09:10:00 13.9 C 11.75 g/m*3 13.9 C 0 km/h
400 23-05-2014 09:15:00 14 C 11.82 g/m*3 14 C 0 km/h
Sensor: Nr:Datum:Temp:Abs-Feuchte:Windchill:Wind:
Aussen-T/F 401 23-05-2014 09:20:00 14 C 11.82 g/m*3 14 C 0 km/h
402 23-05-2014 09:25:00 14 C 11.82 g/m*3 14 C 0 km/h
403 23-05-2014 09:30:00 14.1 C 11.89 g/m*3 14.1 C 3.2 km/h
404 23-05-2014 09:35:00 14 C 11.82 g/m*3 14 C 0 km/h
405 23-05-2014 09:40:00 13.9 C 11.75 g/m*3 13.9 C 1.6 km/h
406 23-05-2014 09:45:00 13.9 C 11.75 g/m*3 13.9 C 0 km/h
407 23-05-2014 09:50:00 13.9 C 11.75 g/m*3 13.9 C 0 km/h
408 23-05-2014 09:55:00 14 C 11.82 g/m*3 14 C 0 km/h
409 23-05-2014 10:00:00 14.1 C 11.89 g/m*3 14.1 C 0 km/h
410 23-05-2014 10:05:00 14.1 C 11.77 g/m*3 14.1 C 0 km/h
411 23-05-2014 10:10:00 14.3 C 12.04 g/m*3 14.3 C 0 km/h
412 23-05-2014 10:15:00 14.4 C 12.11 g/m*3 14.4 C 0 km/h
413 23-05-2014 10:20:00 14.5 C 12.19 g/m*3 14.5 C 0 km/h
414 23-05-2014 10:25:00 14.5 C 12.19 g/m*3 14.5 C 0 km/h
415 23-05-2014 10:30:00 14.5 C 12.06 g/m*3 14.5 C 1.6 km/h
416 23-05-2014 10:35:00 14.6 C 12.14 g/m*3 14.6 C 4.8 km/h
417 23-05-2014 10:40:00 14.6 C 12.14 g/m*3 14.6 C 4.8 km/h
418 23-05-2014 10:45:00 14.7 C 12.21 g/m*3 14.7 C 3.2 km/h
419 23-05-2014 10:50:00 14.8 C 12.16 g/m*3 14.8 C 4.8 km/h
420 23-05-2014 10:55:00 14.9 C 12.11 g/m*3 14.9 C 6.4 km/h
421 23-05-2014 11:00:00 15.1 C 12.26 g/m*3 15.1 C 3.2 km/h
422 23-05-2014 11:05:00 15.2 C 12.33 g/m*3 15.2 C 0 km/h
423 23-05-2014 11:10:00 15.2 C 12.33 g/m*3 15.2 C 0 km/h
424 23-05-2014 11:15:00 15.2 C 12.33 g/m*3 15.2 C 3.2 km/h
425 23-05-2014 11:20:00 15.1 C 12.13 g/m*3 15.1 C 0 km/h
Sensor: Nr:Datum:Temp:Abs-Feuchte:Windchill:Wind:
Aussen-T/F 426 23-05-2014 11:25:00 15.1 C 12.26 g/m*3 15.1 C 0 km/h
427 23-05-2014 11:30:00 15.1 C 12.13 g/m*3 15.1 C 0 km/h
428 23-05-2014 11:35:00 15.2 C 12.33 g/m*3 15.2 C 0 km/h
429 23-05-2014 11:40:00 15.2 C 12.2 g/m*3 15.2 C 1.6 km/h
430 23-05-2014 11:45:00 15.2 C 12.2 g/m*3 15.2 C 1.6 km/h
431 23-05-2014 11:50:00 15.3 C 12.41 g/m*3 15.3 C 0 km/h
432 23-05-2014 11:55:00 15.5 C 12.56 g/m*3 15.5 C 0 km/h
433 23-05-2014 12:00:00 15.6 C 12.5 g/m*3 15.6 C 3.2 km/h
434 23-05-2014 12:05:00 15.7 C 12.31 g/m*3 15.7 C 4.8 km/h
435 23-05-2014 12:10:00 15.8 C 12.25 g/m*3 15.8 C 3.2 km/h
436 23-05-2014 12:15:00 15.9 C 12.19 g/m*3 15.9 C 8.1 km/h
437 23-05-2014 12:20:00 15.9 C 12.05 g/m*3 15.9 C 6.4 km/h
438 23-05-2014 12:25:00 16.1 C 12.34 g/m*3 16.1 C 1.6 km/h
439 23-05-2014 12:30:00 16.1 C 12.34 g/m*3 16.1 C 3.2 km/h
440 23-05-2014 12:35:00 16.3 C 12.35 g/m*3 16.3 C 4.8 km/h
441 23-05-2014 12:40:00 16.4 C 12.28 g/m*3 16.4 C 4.8 km/h
442 23-05-2014 12:45:00 16.5 C 12.08 g/m*3 16.5 C 6.4 km/h
443 23-05-2014 12:50:00 16.7 C 12.36 g/m*3 16.7 C 4.8 km/h
444 23-05-2014 12:55:00 17.1 C 12.52 g/m*3 17.1 C 4.8 km/h
445 23-05-2014 13:00:00 17.4 C 12.15 g/m*3 17.4 C 6.4 km/h
446 23-05-2014 13:05:00 17.8 C 12.29 g/m*3 17.8 C 8.1 km/h
447 23-05-2014 13:10:00 17.8 C 11.99 g/m*3 17.8 C 9.7 km/h
448 23-05-2014 13:15:00 17.8 C 12.29 g/m*3 17.8 C 6.4 km/h
449 23-05-2014 13:20:00 17.6 C 12 g/m*3 17.6 C 6.4 km/h
450 23-05-2014 13:25:00 17.4 C 12.3 g/m*3 17.4 C 3.2 km/h
Sensor: Nr:Datum:Temp:Abs-Feuchte:Windchill:Wind:
Aussen-T/F 451 23-05-2014 13:30:00 17.2 C 12.01 g/m*3 17.2 C 4.8 km/h
452 23-05-2014 13:35:00 17.1 C 12.66 g/m*3 17.1 C 1.6 km/h
453 23-05-2014 13:40:00 17 C 12.59 g/m*3 17 C 0 km/h
454 23-05-2014 13:45:00 16.7 C 11.94 g/m*3 16.7 C 1.6 km/h
455 23-05-2014 13:50:00 16.6 C 11.87 g/m*3 16.6 C 1.6 km/h
456 23-05-2014 13:55:00 16.2 C 11.72 g/m*3 16.2 C 1.6 km/h
457 23-05-2014 14:00:00 15.9 C 11.51 g/m*3 15.9 C 1.6 km/h
458 23-05-2014 14:05:00 15.8 C 12.11 g/m*3 15.8 C 1.6 km/h
459 23-05-2014 14:10:00 16 C 12.53 g/m*3 16 C 0 km/h
460 23-05-2014 14:15:00 16 C 12.53 g/m*3 16 C 0 km/h
461 23-05-2014 14:20:00 16.1 C 12.75 g/m*3 16.1 C 0 km/h
462 23-05-2014 14:25:00 16.2 C 12.82 g/m*3 16.2 C 1.6 km/h
463 23-05-2014 14:30:00 16.3 C 12.76 g/m*3 16.3 C 0 km/h
464 23-05-2014 14:35:00 16.7 C 12.79 g/m*3 16.7 C 0 km/h
465 23-05-2014 14:40:00 17.3 C 12.82 g/m*3 17.3 C 3.2 km/h
466 23-05-2014 14:45:00 17.8 C 11.84 g/m*3 17.8 C 4.8 km/h
467 23-05-2014 14:50:00 18.1 C 12.36 g/m*3 18.1 C 4.8 km/h
468 23-05-2014 14:55:00 18.3 C 12.35 g/m*3 18.3 C 3.2 km/h
469 23-05-2014 15:00:00 18.6 C 12.57 g/m*3 18.6 C 3.2 km/h
470 23-05-2014 15:05:00 18.9 C 12.64 g/m*3 18.9 C 6.4 km/h
471 23-05-2014 15:10:00 19 C 12.71 g/m*3 19 C 6.4 km/h
472 23-05-2014 15:15:00 18.9 C 12.8 g/m*3 18.9 C 1.6 km/h
473 23-05-2014 15:20:00 18.8 C 13.53 g/m*3 18.8 C 3.2 km/h
474 23-05-2014 15:25:00 18.7 C 13.29 g/m*3 18.7 C 3.2 km/h
475 23-05-2014 15:30:00 19 C 13.69 g/m*3 19 C 8.1 km/h
Sensor: Nr:Datum:Temp:Abs-Feuchte:Windchill:Wind:
Aussen-T/F 476 23-05-2014 15:35:00 19.2 C 12.86 g/m*3 19.2 C 4.8 km/h
477 23-05-2014 15:40:00 19.2 C 13.03 g/m*3 19.2 C 6.4 km/h
478 23-05-2014 15:45:00 19.2 C 13.19 g/m*3 19.2 C 6.4 km/h
479 23-05-2014 15:50:00 19.3 C 12.94 g/m*3 19.3 C 8.1 km/h
480 23-05-2014 15:55:00 19.4 C 13.01 g/m*3 19.4 C 9.7 km/h
481 23-05-2014 16:00:00 19.3 C 12.77 g/m*3 19.3 C 4.8 km/h
482 23-05-2014 16:05:00 19.1 C 12.79 g/m*3 19.1 C 6.4 km/h
483 23-05-2014 16:10:00 19.3 C 12.44 g/m*3 19.3 C 8.1 km/h
484 23-05-2014 16:15:00 19.6 C 13.34 g/m*3 19.6 C 9.7 km/h
485 23-05-2014 16:20:00 19.7 C 12.23 g/m*3 19.7 C 8.1 km/h
486 23-05-2014 16:25:00 20.1 C 12.86 g/m*3 20.1 C 9.7 km/h
487 23-05-2014 16:30:00 20.7 C 12.96 g/m*3 20.7 C 8.1 km/h
488 23-05-2014 16:35:00 21.1 C 13.08 g/m*3 21.1 C 8.1 km/h
489 23-05-2014 16:40:00 21.1 C 12.53 g/m*3 21.1 C 6.4 km/h
490 23-05-2014 16:45:00 21 C 12.27 g/m*3 21 C 3.2 km/h
491 23-05-2014 16:50:00 20.6 C 12.71 g/m*3 20.6 C 0 km/h
492 23-05-2014 16:55:00 20.8 C 12.67 g/m*3 20.8 C 4.8 km/h
493 23-05-2014 17:00:00 21.1 C 12.71 g/m*3 21.1 C 6.4 km/h
494 23-05-2014 17:05:00 21.1 C 12.53 g/m*3 21.1 C 8.1 km/h
495 23-05-2014 17:10:00 20.7 C 13.68 g/m*3 20.7 C 3.2 km/h
496 23-05-2014 17:15:00 19.7 C 13.25 g/m*3 19.7 C 0 km/h
497 23-05-2014 17:20:00 19.2 C 12.7 g/m*3 19.2 C 4.8 km/h
498 23-05-2014 17:25:00 19.1 C 12.79 g/m*3 19.1 C 4.8 km/h
499 23-05-2014 17:30:00 19 C 13.36 g/m*3 19 C 0 km/h
500 23-05-2014 17:35:00 18.7 C 13.13 g/m*3 18.7 C 0 km/h
Sensor: Nr:Datum:Temp:Abs-Feuchte:Windchill:Wind:
Aussen-T/F 501 23-05-2014 17:40:00 18.5 C 13.45 g/m*3 18.5 C 0 km/h
502 23-05-2014 17:45:00 18.2 C 13.37 g/m*3 18.2 C 0 km/h
503 23-05-2014 17:50:00 17.8 C 13.36 g/m*3 17.8 C 0 km/h
504 23-05-2014 17:55:00 17.7 C 13.43 g/m*3 17.7 C 0 km/h
505 23-05-2014 18:00:00 17.6 C 13.35 g/m*3 17.6 C 0 km/h
506 23-05-2014 18:05:00 17.5 C 12.08 g/m*3 17.5 C 0 km/h
507 23-05-2014 18:10:00 18 C 13.36 g/m*3 18 C 1.6 km/h
508 23-05-2014 18:15:00 18.3 C 12.35 g/m*3 18.3 C 3.2 km/h
509 23-05-2014 18:20:00 19.1 C 11.97 g/m*3 19.1 C 8.1 km/h
510 23-05-2014 18:25:00 19.9 C 12.2 g/m*3 19.9 C 8.1 km/h
511 23-05-2014 18:30:00 20.6 C 12.35 g/m*3 20.6 C 6.4 km/h
512 23-05-2014 18:35:00 20.8 C 11.59 g/m*3 20.8 C 9.7 km/h
513 23-05-2014 18:40:00 20.8 C 11.77 g/m*3 20.8 C 8.1 km/h
514 23-05-2014 18:45:00 21.2 C 12.42 g/m*3 21.2 C 9.7 km/h
515 23-05-2014 18:50:00 21.3 C 11.74 g/m*3 21.3 C 8.1 km/h
516 23-05-2014 18:55:00 21.3 C 11.74 g/m*3 21.3 C 6.4 km/h
517 23-05-2014 19:00:00 21 C 11.91 g/m*3 21 C 9.7 km/h
518 23-05-2014 19:05:00 20.9 C 11.66 g/m*3 20.9 C 8.1 km/h
519 23-05-2014 19:10:00 20.7 C 11.88 g/m*3 20.7 C 6.4 km/h
520 23-05-2014 19:15:00 20.5 C 11.92 g/m*3 20.5 C 1.6 km/h
521 23-05-2014 19:20:00 20.3 C 11.96 g/m*3 20.3 C 4.8 km/h
522 23-05-2014 19:25:00 20.3 C 11.78 g/m*3 20.3 C 6.4 km/h
523 23-05-2014 19:30:00 20.4 C 11.68 g/m*3 20.4 C 9.7 km/h
524 23-05-2014 19:35:00 20.3 C 11.61 g/m*3 20.3 C 4.8 km/h
525 23-05-2014 19:40:00 20.2 C 12.94 g/m*3 20.2 C 1.6 km/h
Sensor: Nr:Datum:Temp:Abs-Feuchte:Windchill:Wind:
Aussen-T/F 526 23-05-2014 19:45:00 19.9 C 11.68 g/m*3 19.9 C 3.2 km/h
527 23-05-2014 19:50:00 19.8 C 11.61 g/m*3 19.8 C 6.4 km/h
528 23-05-2014 19:55:00 19.8 C 12.13 g/m*3 19.8 C 4.8 km/h
529 23-05-2014 20:00:00 19.7 C 13.25 g/m*3 19.7 C 1.6 km/h
530 23-05-2014 20:05:00 19.3 C 11.61 g/m*3 19.3 C 1.6 km/h
531 23-05-2014 20:10:00 19.2 C 11.71 g/m*3 19.2 C 0 km/h
532 23-05-2014 20:15:00 19.1 C 13.28 g/m*3 19.1 C 0 km/h
533 23-05-2014 20:20:00 18.6 C 12.73 g/m*3 18.6 C 3.2 km/h
534 23-05-2014 20:25:00 18.3 C 12.98 g/m*3 18.3 C 1.6 km/h
535 23-05-2014 20:30:00 17.9 C 12.83 g/m*3 17.9 C 0 km/h
536 23-05-2014 20:35:00 17.6 C 12.75 g/m*3 17.6 C 0 km/h
537 23-05-2014 20:40:00 17.3 C 12.52 g/m*3 17.3 C 0 km/h
538 23-05-2014 20:45:00 17.2 C 12.45 g/m*3 17.2 C 1.6 km/h
539 23-05-2014 20:50:00 17 C 12.44 g/m*3 17 C 0 km/h
540 23-05-2014 20:55:00 16.7 C 12.36 g/m*3 16.7 C 0 km/h
541 23-05-2014 21:00:00 16.3 C 12.07 g/m*3 16.3 C 1.6 km/h
542 23-05-2014 21:05:00 16 C 11.99 g/m*3 16 C 0 km/h
543 23-05-2014 21:10:00 15.7 C 11.91 g/m*3 15.7 C 0 km/h
544 23-05-2014 21:15:00 15.4 C 11.69 g/m*3 15.4 C 1.6 km/h
545 23-05-2014 21:20:00 15.3 C 11.62 g/m*3 15.3 C 1.6 km/h
546 23-05-2014 21:25:00 15.2 C 11.55 g/m*3 15.2 C 1.6 km/h
547 23-05-2014 21:30:00 15 C 11.54 g/m*3 15 C 0 km/h
548 23-05-2014 21:35:00 14.9 C 11.47 g/m*3 14.9 C 0 km/h
549 23-05-2014 21:40:00 14.7 C 11.33 g/m*3 14.7 C 1.6 km/h
550 23-05-2014 21:45:00 14.6 C 11.26 g/m*3 14.6 C 3.2 km/h
Sensor: Nr:Datum:Temp:Abs-Feuchte:Windchill:Wind:
Aussen-T/F 551 23-05-2014 21:50:00 14.6 C 11.39 g/m*3 14.6 C 1.6 km/h
552 23-05-2014 21:55:00 14.4 C 11.25 g/m*3 14.4 C 1.6 km/h
553 23-05-2014 22:00:00 14.3 C 11.18 g/m*3 14.3 C 0 km/h
554 23-05-2014 22:05:00 14.3 C 11.18 g/m*3 14.3 C 0 km/h
555 23-05-2014 22:10:00 14.2 C 11.23 g/m*3 14.2 C 0 km/h
556 23-05-2014 22:15:00 14.2 C 11.23 g/m*3 14.2 C 0 km/h
557 23-05-2014 22:20:00 14.1 C 11.17 g/m*3 14.1 C 1.6 km/h
558 23-05-2014 22:25:00 14.1 C 11.17 g/m*3 14.1 C 0 km/h
559 23-05-2014 22:30:00 13.9 C 11.03 g/m*3 13.9 C 0 km/h
560 23-05-2014 22:35:00 13.9 C 11.03 g/m*3 13.9 C 0 km/h
561 23-05-2014 22:40:00 13.8 C 10.96 g/m*3 13.8 C 1.6 km/h
562 23-05-2014 22:45:00 13.8 C 10.96 g/m*3 13.8 C 0 km/h
563 23-05-2014 22:50:00 13.7 C 11.01 g/m*3 13.7 C 0 km/h
564 23-05-2014 22:55:00 13.7 C 11.01 g/m*3 13.7 C 1.6 km/h
565 23-05-2014 23:00:00 13.6 C 10.95 g/m*3 13.6 C 0 km/h
566 23-05-2014 23:05:00 13.6 C 10.95 g/m*3 13.6 C 0 km/h
567 23-05-2014 23:10:00 13.6 C 10.95 g/m*3 13.6 C 0 km/h
568 23-05-2014 23:15:00 13.5 C 10.88 g/m*3 13.5 C 0 km/h
569 23-05-2014 23:20:00 13.4 C 10.81 g/m*3 13.4 C 1.6 km/h
570 23-05-2014 23:25:00 13.4 C 10.81 g/m*3 13.4 C 0 km/h
571 23-05-2014 23:30:00 13.3 C 10.74 g/m*3 13.3 C 0 km/h
572 23-05-2014 23:35:00 13.3 C 10.74 g/m*3 13.3 C 0 km/h
573 23-05-2014 23:40:00 13.3 C 10.74 g/m*3 13.3 C 0 km/h
574 23-05-2014 23:45:00 13.2 C 10.68 g/m*3 13.2 C 0 km/h
575 23-05-2014 23:50:00 13.2 C 10.68 g/m*3 13.2 C 0 km/h
Sensor: Nr:Datum:Temp:Abs-Feuchte:Windchill:Wind:
Aussen-T/F 576 23-05-2014 23:55:00 13.1 C 10.73 g/m*3 13.1 C 0 km/h
577 24-05-2014 00:00:00 13.1 C 10.73 g/m*3 13.1 C 0 km/h
578 24-05-2014 00:05:00 13.1 C 10.73 g/m*3 13.1 C 0 km/h
579 24-05-2014 00:10:00 12.9 C 10.59 g/m*3 12.9 C 0 km/h
580 24-05-2014 00:15:00 12.9 C 10.59 g/m*3 12.9 C 0 km/h
581 24-05-2014 00:20:00 12.9 C 10.59 g/m*3 12.9 C 1.6 km/h
582 24-05-2014 00:25:00 12.9 C 10.59 g/m*3 12.9 C 0 km/h
583 24-05-2014 00:30:00 12.8 C 10.64 g/m*3 12.8 C 0 km/h
584 24-05-2014 00:35:00 12.8 C 10.64 g/m*3 12.8 C 0 km/h
585 24-05-2014 00:40:00 12.7 C 10.58 g/m*3 12.7 C 0 km/h
586 24-05-2014 00:45:00 12.7 C 10.46 g/m*3 12.7 C 0 km/h
587 24-05-2014 00:50:00 12.7 C 10.58 g/m*3 12.7 C 0 km/h
588 24-05-2014 00:55:00 12.7 C 10.58 g/m*3 12.7 C 0 km/h
589 24-05-2014 01:00:00 12.6 C 10.51 g/m*3 12.6 C 0 km/h
590 24-05-2014 01:05:00 12.5 C 10.44 g/m*3 12.5 C 0 km/h
591 24-05-2014 01:10:00 12.4 C 10.38 g/m*3 12.4 C 0 km/h
592 24-05-2014 01:15:00 12.4 C 10.38 g/m*3 12.4 C 0 km/h
593 24-05-2014 01:20:00 12.4 C 10.38 g/m*3 12.4 C 0 km/h
594 24-05-2014 01:25:00 12.4 C 10.38 g/m*3 12.4 C 0 km/h
595 24-05-2014 01:30:00 12.4 C 10.38 g/m*3 12.4 C 1.6 km/h
596 24-05-2014 01:35:00 12.3 C 10.32 g/m*3 12.3 C 0 km/h
597 24-05-2014 01:40:00 12.2 C 10.25 g/m*3 12.2 C 0 km/h
598 24-05-2014 01:45:00 12.2 C 10.25 g/m*3 12.2 C 0 km/h
599 24-05-2014 01:50:00 12.1 C 10.19 g/m*3 12.1 C 0 km/h
600 24-05-2014 01:55:00 11.9 C 10.06 g/m*3 11.9 C 0 km/h
Sensor: Nr:Datum:Temp:Abs-Feuchte:Windchill:Wind:
Aussen-T/F 601 24-05-2014 02:00:00 11.8 C 10 g/m*3 11.8 C 0 km/h
602 24-05-2014 02:05:00 11.7 C 9.94 g/m*3 11.7 C 0 km/h
603 24-05-2014 02:10:00 11.7 C 9.94 g/m*3 11.7 C 0 km/h
604 24-05-2014 02:15:00 11.7 C 10.04 g/m*3 11.7 C 0 km/h
605 24-05-2014 02:20:00 11.7 C 10.04 g/m*3 11.7 C 0 km/h
606 24-05-2014 02:25:00 11.8 C 10.1 g/m*3 11.8 C 0 km/h
607 24-05-2014 02:30:00 11.8 C 10.1 g/m*3 11.8 C 0 km/h
608 24-05-2014 02:35:00 11.8 C 10.1 g/m*3 11.8 C 0 km/h
609 24-05-2014 02:40:00 11.8 C 10.1 g/m*3 11.8 C 0 km/h
610 24-05-2014 02:45:00 12 C 10.23 g/m*3 12 C 4.8 km/h
611 24-05-2014 02:50:00 12.3 C 10.53 g/m*3 12.3 C 14.5 km/h
612 24-05-2014 02:55:00 12.6 C 10.62 g/m*3 12.6 C 3.2 km/h
613 24-05-2014 03:00:00 12.8 C 10.75 g/m*3 12.8 C 1.6 km/h
614 24-05-2014 03:05:00 12.9 C 10.71 g/m*3 12.9 C 4.8 km/h
615 24-05-2014 03:10:00 13.1 C 10.61 g/m*3 13.1 C 9.7 km/h
616 24-05-2014 03:15:00 13.6 C 10.36 g/m*3 13.6 C 8.1 km/h
617 24-05-2014 03:20:00 13.9 C 10.31 g/m*3 13.9 C 11.3 km/h
618 24-05-2014 03:25:00 14.1 C 10.32 g/m*3 14.1 C 4.8 km/h
619 24-05-2014 03:30:00 14.1 C 10.32 g/m*3 14.1 C 6.4 km/h
620 24-05-2014 03:35:00 14.1 C 10.44 g/m*3 14.1 C 3.2 km/h
621 24-05-2014 03:40:00 14 C 10.25 g/m*3 14 C 4.8 km/h
622 24-05-2014 03:45:00 14.1 C 10.19 g/m*3 14.1 C 6.4 km/h
623 24-05-2014 03:50:00 14.1 C 10.19 g/m*3 14.1 C 12.9 km/h
624 24-05-2014 03:55:00 14.2 C 10.26 g/m*3 14.2 C 12.9 km/h
625 24-05-2014 04:00:00 14.2 C 10.14 g/m*3 14.2 C 6.4 km/h
Sensor: Nr:Datum:Temp:Abs-Feuchte:Windchill:Wind:
Aussen-T/F 626 24-05-2014 04:05:00 14.2 C 10.26 g/m*3 14.2 C 4.8 km/h
627 24-05-2014 04:10:00 14.1 C 10.07 g/m*3 14.1 C 8.1 km/h
628 24-05-2014 04:15:00 14.1 C 9.95 g/m*3 14.1 C 14.5 km/h
629 24-05-2014 04:20:00 14.1 C 9.95 g/m*3 14.1 C 9.7 km/h
630 24-05-2014 04:25:00 14.1 C 9.95 g/m*3 14.1 C 11.3 km/h
631 24-05-2014 04:30:00 14 C 9.89 g/m*3 14 C 9.7 km/h
632 24-05-2014 04:35:00 14 C 9.77 g/m*3 14 C 6.4 km/h
633 24-05-2014 04:40:00 13.9 C 9.83 g/m*3 13.9 C 11.3 km/h
634 24-05-2014 04:45:00 13.9 C 9.71 g/m*3 13.9 C 8.1 km/h
635 24-05-2014 04:50:00 13.8 C 9.77 g/m*3 13.8 C 8.1 km/h
636 24-05-2014 04:55:00 13.8 C 9.65 g/m*3 13.8 C 12.9 km/h
637 24-05-2014 05:00:00 13.7 C 9.59 g/m*3 13.7 C 9.7 km/h
638 24-05-2014 05:05:00 13.7 C 9.59 g/m*3 13.7 C 4.8 km/h
639 24-05-2014 05:10:00 13.7 C 9.59 g/m*3 13.7 C 8.1 km/h
640 24-05-2014 05:15:00 13.7 C 9.47 g/m*3 13.7 C 1.6 km/h
641 24-05-2014 05:20:00 13.7 C 9.59 g/m*3 13.7 C 1.6 km/h
642 24-05-2014 05:25:00 13.6 C 9.65 g/m*3 13.6 C 0 km/h
643 24-05-2014 05:30:00 13.5 C 9.59 g/m*3 13.5 C 0 km/h
644 24-05-2014 05:35:00 13.5 C 9.94 g/m*3 13.5 C 0 km/h
645 24-05-2014 05:40:00 13.3 C 10.05 g/m*3 13.3 C 0 km/h
646 24-05-2014 05:45:00 13.1 C 10.16 g/m*3 13.1 C 0 km/h
647 24-05-2014 05:50:00 12.7 C 10.13 g/m*3 12.7 C 1.6 km/h
648 24-05-2014 05:55:00 12.5 C 10.11 g/m*3 12.5 C 1.6 km/h
649 24-05-2014 06:00:00 12.3 C 10.1 g/m*3 12.3 C 1.6 km/h
650 24-05-2014 06:05:00 12.3 C 10.1 g/m*3 12.3 C 0 km/h
Sensor: Nr:Datum:Temp:Abs-Feuchte:Windchill:Wind:
Aussen-T/F 651 24-05-2014 06:10:00 12.2 C 10.04 g/m*3 12.2 C 1.6 km/h
652 24-05-2014 06:15:00 12.2 C 10.14 g/m*3 12.2 C 1.6 km/h
653 24-05-2014 06:20:00 12.1 C 10.08 g/m*3 12.1 C 0 km/h
654 24-05-2014 06:25:00 12.1 C 10.08 g/m*3 12.1 C 1.6 km/h
655 24-05-2014 06:30:00 12.2 C 10.25 g/m*3 12.2 C 8.1 km/h
656 24-05-2014 06:35:00 12.2 C 10.25 g/m*3 12.2 C 1.6 km/h
657 24-05-2014 06:40:00 12.2 C 10.25 g/m*3 12.2 C 0 km/h
658 24-05-2014 06:45:00 12.2 C 10.25 g/m*3 12.2 C 0 km/h
659 24-05-2014 06:50:00 12.2 C 10.25 g/m*3 12.2 C 0 km/h
660 24-05-2014 06:55:00 12.2 C 10.25 g/m*3 12.2 C 1.6 km/h
661 24-05-2014 07:00:00 12.1 C 10.19 g/m*3 12.1 C 0 km/h
662 24-05-2014 07:05:00 12.2 C 10.36 g/m*3 12.2 C 0 km/h
663 24-05-2014 07:10:00 12.2 C 10.36 g/m*3 12.2 C 0 km/h
664 24-05-2014 07:15:00 12.2 C 10.36 g/m*3 12.2 C 0 km/h
665 24-05-2014 07:20:00 12.2 C 10.36 g/m*3 12.2 C 1.6 km/h
666 24-05-2014 07:25:00 12.2 C 10.36 g/m*3 12.2 C 1.6 km/h
667 24-05-2014 07:30:00 12.1 C 10.29 g/m*3 12.1 C 4.8 km/h
668 24-05-2014 07:35:00 12.1 C 10.19 g/m*3 12.1 C 3.2 km/h
669 24-05-2014 07:40:00 12.1 C 10.19 g/m*3 12.1 C 3.2 km/h
670 24-05-2014 07:45:00 12.2 C 10.25 g/m*3 12.2 C 1.6 km/h
671 24-05-2014 07:50:00 12.2 C 10.25 g/m*3 12.2 C 1.6 km/h
672 24-05-2014 07:55:00 12.3 C 10.21 g/m*3 12.3 C 4.8 km/h
673 24-05-2014 08:00:00 12.4 C 10.38 g/m*3 12.4 C 4.8 km/h
674 24-05-2014 08:05:00 12.4 C 10.38 g/m*3 12.4 C 0 km/h
675 24-05-2014 08:10:00 12.5 C 10.44 g/m*3 12.5 C 1.6 km/h
Sensor: Nr:Datum:Temp:Abs-Feuchte:Windchill:Wind:
Aussen-T/F 676 24-05-2014 08:15:00 12.6 C 10.51 g/m*3 12.6 C 1.6 km/h
677 24-05-2014 08:20:00 12.6 C 10.51 g/m*3 12.6 C 0 km/h
678 24-05-2014 08:25:00 12.7 C 10.58 g/m*3 12.7 C 0 km/h
679 24-05-2014 08:30:00 12.7 C 10.58 g/m*3 12.7 C 0 km/h
680 24-05-2014 08:35:00 12.8 C 10.64 g/m*3 12.8 C 0 km/h
681 24-05-2014 08:40:00 12.8 C 10.64 g/m*3 12.8 C 3.2 km/h
682 24-05-2014 08:45:00 12.9 C 10.71 g/m*3 12.9 C 3.2 km/h
683 24-05-2014 08:50:00 12.9 C 10.71 g/m*3 12.9 C 0 km/h
684 24-05-2014 08:55:00 13 C 10.89 g/m*3 13 C 0 km/h
685 24-05-2014 09:00:00 13.2 C 11.02 g/m*3 13.2 C 0 km/h
686 24-05-2014 09:05:00 13.3 C 11.09 g/m*3 13.3 C 3.2 km/h
687 24-05-2014 09:10:00 13.3 C 11.09 g/m*3 13.3 C 4.8 km/h
688 24-05-2014 09:15:00 13.5 C 11.23 g/m*3 13.5 C 0 km/h
689 24-05-2014 09:20:00 13.6 C 11.18 g/m*3 13.6 C 0 km/h
690 24-05-2014 09:25:00 13.6 C 11.18 g/m*3 13.6 C 0 km/h
691 24-05-2014 09:30:00 13.6 C 11.18 g/m*3 13.6 C 0 km/h
692 24-05-2014 09:35:00 13.6 C 11.18 g/m*3 13.6 C 0 km/h
693 24-05-2014 09:40:00 13.7 C 11.37 g/m*3 13.7 C 0 km/h
694 24-05-2014 09:45:00 13.8 C 11.44 g/m*3 13.8 C 0 km/h
695 24-05-2014 09:50:00 14 C 11.58 g/m*3 14 C 0 km/h
696 24-05-2014 09:55:00 14.2 C 11.72 g/m*3 14.2 C 0 km/h
697 24-05-2014 10:00:00 14.3 C 11.79 g/m*3 14.3 C 0 km/h
698 24-05-2014 10:05:00 14.4 C 11.87 g/m*3 14.4 C 0 km/h
699 24-05-2014 10:10:00 14.4 C 11.62 g/m*3 14.4 C 0 km/h
700 24-05-2014 10:15:00 14.5 C 11.82 g/m*3 14.5 C 3.2 km/h
Sensor: Nr:Datum:Temp:Abs-Feuchte:Windchill:Wind:
Aussen-T/F 701 24-05-2014 10:20:00 14.7 C 11.83 g/m*3 14.7 C 1.6 km/h
702 24-05-2014 10:25:00 14.8 C 11.65 g/m*3 14.8 C 8.1 km/h
703 24-05-2014 10:30:00 14.9 C 11.6 g/m*3 14.9 C 9.7 km/h
704 24-05-2014 10:35:00 15 C 11.41 g/m*3 15 C 11.3 km/h
705 24-05-2014 10:40:00 15 C 11.41 g/m*3 15 C 14.5 km/h
706 24-05-2014 10:45:00 14.7 C 10.95 g/m*3 14.7 C 14.5 km/h
707 24-05-2014 10:50:00 14.4 C 11 g/m*3 14.4 C 11.3 km/h
708 24-05-2014 10:55:00 14.3 C 10.81 g/m*3 14.3 C 14.5 km/h
709 24-05-2014 11:00:00 14.3 C 10.93 g/m*3 14.3 C 11.3 km/h
710 24-05-2014 11:05:00 14.4 C 11 g/m*3 14.4 C 11.3 km/h
711 24-05-2014 11:10:00 14.6 C 11.14 g/m*3 14.6 C 4.8 km/h
712 24-05-2014 11:15:00 14.7 C 10.95 g/m*3 14.7 C 12.9 km/h
713 24-05-2014 11:20:00 14.6 C 10.76 g/m*3 14.6 C 14.5 km/h
714 24-05-2014 11:25:00 14.4 C 10.51 g/m*3 14.4 C 16.1 km/h
715 24-05-2014 11:30:00 14.3 C 10.57 g/m*3 14.3 C 16.1 km/h
716 24-05-2014 11:35:00 14.3 C 10.44 g/m*3 14.3 C 11.3 km/h
717 24-05-2014 11:40:00 14.6 C 10.76 g/m*3 14.6 C 8.1 km/h
718 24-05-2014 11:45:00 14.9 C 10.83 g/m*3 14.9 C 8.1 km/h
719 24-05-2014 11:50:00 15.1 C 10.45 g/m*3 15.1 C 19.3 km/h
720 24-05-2014 11:55:00 14.9 C 10.2 g/m*3 14.9 C 16.1 km/h
721 24-05-2014 12:00:00 14.8 C 10.01 g/m*3 14.8 C 16.1 km/h
722 24-05-2014 12:05:00 14.6 C 9.76 g/m*3 14.6 C 9.7 km/h
723 24-05-2014 12:10:00 14.4 C 10.01 g/m*3 14.4 C 8.1 km/h
724 24-05-2014 12:15:00 14.4 C 10.01 g/m*3 14.4 C 8.1 km/h
725 24-05-2014 12:20:00 14.6 C 10.26 g/m*3 14.6 C 11.3 km/h
Sensor: Nr:Datum:Temp:Abs-Feuchte:Windchill:Wind:
Aussen-T/F 726 24-05-2014 12:25:00 14.7 C 10.32 g/m*3 14.7 C 6.4 km/h
727 24-05-2014 12:30:00 14.9 C 10.45 g/m*3 14.9 C 11.3 km/h
728 24-05-2014 12:35:00 15.2 C 10.38 g/m*3 15.2 C 6.4 km/h
729 24-05-2014 12:40:00 15.7 C 10.84 g/m*3 15.7 C 11.3 km/h
730 24-05-2014 12:45:00 16.3 C 10.96 g/m*3 16.3 C 11.3 km/h
731 24-05-2014 12:50:00 16.3 C 10.54 g/m*3 16.3 C 14.5 km/h
732 24-05-2014 12:55:00 16.3 C 10.82 g/m*3 16.3 C 12.9 km/h
733 24-05-2014 13:00:00 16.4 C 10.61 g/m*3 16.4 C 9.7 km/h
734 24-05-2014 13:05:00 16.4 C 10.47 g/m*3 16.4 C 9.7 km/h
735 24-05-2014 13:10:00 16.6 C 10.74 g/m*3 16.6 C 6.4 km/h
736 24-05-2014 13:15:00 16.7 C 10.66 g/m*3 16.7 C 9.7 km/h
737 24-05-2014 13:20:00 16.7 C 10.66 g/m*3 16.7 C 8.1 km/h
738 24-05-2014 13:25:00 16.9 C 10.64 g/m*3 16.9 C 16.1 km/h
739 24-05-2014 13:30:00 17.2 C 10.98 g/m*3 17.2 C 12.9 km/h
740 24-05-2014 13:35:00 17.4 C 10.67 g/m*3 17.4 C 9.7 km/h
741 24-05-2014 13:40:00 17.5 C 10.73 g/m*3 17.5 C 9.7 km/h
742 24-05-2014 13:45:00 17.5 C 10.44 g/m*3 17.5 C 11.3 km/h
743 24-05-2014 13:50:00 17.4 C 10.37 g/m*3 17.4 C 9.7 km/h
744 24-05-2014 13:55:00 17.4 C 10.37 g/m*3 17.4 C 11.3 km/h
745 24-05-2014 14:00:00 17.4 C 10.37 g/m*3 17.4 C 8.1 km/h
746 24-05-2014 14:05:00 17.4 C 10.23 g/m*3 17.4 C 9.7 km/h
747 24-05-2014 14:10:00 17.4 C 10.23 g/m*3 17.4 C 11.3 km/h
748 24-05-2014 14:15:00 17.4 C 10.23 g/m*3 17.4 C 8.1 km/h
749 24-05-2014 14:20:00 17.4 C 10.37 g/m*3 17.4 C 6.4 km/h
750 24-05-2014 14:25:00 17.6 C 10.2 g/m*3 17.6 C 11.3 km/h
Sensor: Nr:Datum:Temp:Abs-Feuchte:Windchill:Wind:
Aussen-T/F 751 24-05-2014 14:30:00 18 C 9.98 g/m*3 18 C 17.7 km/h
752 24-05-2014 14:35:00 18.1 C 10.04 g/m*3 18.1 C 11.3 km/h
753 24-05-2014 14:40:00 18.1 C 10.04 g/m*3 18.1 C 11.3 km/h
754 24-05-2014 14:45:00 18.5 C 10.28 g/m*3 18.5 C 11.3 km/h
755 24-05-2014 14:50:00 18.7 C 9.61 g/m*3 18.7 C 17.7 km/h
756 24-05-2014 14:55:00 18.3 C 9.69 g/m*3 18.3 C 8.1 km/h
757 24-05-2014 15:00:00 18.3 C 9.85 g/m*3 18.3 C 16.1 km/h
758 24-05-2014 15:05:00 18.5 C 9.81 g/m*3 18.5 C 14.5 km/h
759 24-05-2014 15:10:00 18.5 C 9.81 g/m*3 18.5 C 6.4 km/h
760 24-05-2014 15:15:00 18.5 C 9.97 g/m*3 18.5 C 16.1 km/h
761 24-05-2014 15:20:00 18.8 C 9.66 g/m*3 18.8 C 19.3 km/h
762 24-05-2014 15:25:00 19.1 C 10 g/m*3 19.1 C 12.9 km/h
763 24-05-2014 15:30:00 19.4 C 9.34 g/m*3 19.4 C 17.7 km/h
764 24-05-2014 15:35:00 19.6 C 9.79 g/m*3 19.6 C 11.3 km/h
765 24-05-2014 15:40:00 19.7 C 9.85 g/m*3 19.7 C 14.5 km/h
766 24-05-2014 15:45:00 19.7 C 9.51 g/m*3 19.7 C 12.9 km/h
767 24-05-2014 15:50:00 19.4 C 9.68 g/m*3 19.4 C 8.1 km/h
768 24-05-2014 15:55:00 19.1 C 9.51 g/m*3 19.1 C 8.1 km/h
769 24-05-2014 16:00:00 18.7 C 9.61 g/m*3 18.7 C 9.7 km/h
770 24-05-2014 16:05:00 18.4 C 9.44 g/m*3 18.4 C 16.1 km/h
771 24-05-2014 16:10:00 18.7 C 9.29 g/m*3 18.7 C 19.3 km/h
772 24-05-2014 16:15:00 18.3 C 9.22 g/m*3 18.3 C 12.9 km/h
773 24-05-2014 16:20:00 18.1 C 9.73 g/m*3 18.1 C 9.7 km/h
774 24-05-2014 16:25:00 18.3 C 9.54 g/m*3 18.3 C 16.1 km/h
775 24-05-2014 16:30:00 18.6 C 9.39 g/m*3 18.6 C 12.9 km/h
Sensor: Nr:Datum:Temp:Abs-Feuchte:Windchill:Wind:
Aussen-T/F 776 24-05-2014 16:35:00 19.1 C 9.51 g/m*3 19.1 C 9.7 km/h
777 24-05-2014 16:40:00 19.1 C 9.67 g/m*3 19.1 C 11.3 km/h
778 24-05-2014 16:45:00 19.1 C 9.67 g/m*3 19.1 C 11.3 km/h
779 24-05-2014 16:50:00 18.8 C 9.02 g/m*3 18.8 C 9.7 km/h
780 24-05-2014 16:55:00 18.8 C 9.5 g/m*3 18.8 C 14.5 km/h
781 24-05-2014 17:00:00 19.3 C 9.79 g/m*3 19.3 C 14.5 km/h
782 24-05-2014 17:05:00 20 C 9.33 g/m*3 20 C 19.3 km/h
783 24-05-2014 17:10:00 19.8 C 9.22 g/m*3 19.8 C 16.1 km/h
784 24-05-2014 17:15:00 19.4 C 8.84 g/m*3 19.4 C 17.7 km/h
785 24-05-2014 17:20:00 19.2 C 8.74 g/m*3 19.2 C 14.5 km/h
786 24-05-2014 17:25:00 19.2 C 8.74 g/m*3 19.2 C 9.7 km/h
787 24-05-2014 17:30:00 19.3 C 8.96 g/m*3 19.3 C 9.7 km/h
788 24-05-2014 17:35:00 19.5 C 8.73 g/m*3 19.5 C 12.9 km/h
789 24-05-2014 17:40:00 19.6 C 8.78 g/m*3 19.6 C 16.1 km/h
790 24-05-2014 17:45:00 19.7 C 8.83 g/m*3 19.7 C 12.9 km/h
791 24-05-2014 17:50:00 19.8 C 9.05 g/m*3 19.8 C 14.5 km/h
792 24-05-2014 17:55:00 20.1 C 9.04 g/m*3 20.1 C 14.5 km/h
793 24-05-2014 18:00:00 19.9 C 8.42 g/m*3 19.9 C 11.3 km/h
794 24-05-2014 18:05:00 19.4 C 8.18 g/m*3 19.4 C 12.9 km/h
795 24-05-2014 18:10:00 19.4 C 8.51 g/m*3 19.4 C 14.5 km/h
796 24-05-2014 18:15:00 19.8 C 8.37 g/m*3 19.8 C 12.9 km/h
797 24-05-2014 18:20:00 19.6 C 8.27 g/m*3 19.6 C 12.9 km/h
798 24-05-2014 18:25:00 19 C 7.99 g/m*3 19 C 8.1 km/h
799 24-05-2014 18:30:00 18.6 C 8.59 g/m*3 18.6 C 4.8 km/h
800 24-05-2014 18:35:00 18.3 C 8.6 g/m*3 18.3 C 4.8 km/h
Sensor: Nr:Datum:Temp:Abs-Feuchte:Windchill:Wind:
Aussen-T/F 801 24-05-2014 18:40:00 18 C 9.06 g/m*3 18 C 4.8 km/h
802 24-05-2014 18:45:00 17.8 C 8.8 g/m*3 17.8 C 1.6 km/h
803 24-05-2014 18:50:00 17.5 C 9.24 g/m*3 17.5 C 0 km/h
804 24-05-2014 18:55:00 17.2 C 10.4 g/m*3 17.2 C 0 km/h
805 24-05-2014 19:00:00 16.8 C 9.15 g/m*3 16.8 C 1.6 km/h
806 24-05-2014 19:05:00 16.5 C 9.97 g/m*3 16.5 C 0 km/h
807 24-05-2014 19:10:00 16.3 C 10.13 g/m*3 16.3 C 0 km/h
808 24-05-2014 19:15:00 16.3 C 9.02 g/m*3 16.3 C 1.6 km/h
809 24-05-2014 19:20:00 16.3 C 9.02 g/m*3 16.3 C 1.6 km/h
810 24-05-2014 19:25:00 16.4 C 9.21 g/m*3 16.4 C 3.2 km/h
811 24-05-2014 19:30:00 16.4 C 10.05 g/m*3 16.4 C 1.6 km/h
812 24-05-2014 19:35:00 16.3 C 10.41 g/m*3 16.3 C 0 km/h
813 24-05-2014 19:40:00 16.2 C 10.48 g/m*3 16.2 C 0 km/h
814 24-05-2014 19:45:00 16 C 10.35 g/m*3 16 C 0 km/h
815 24-05-2014 19:50:00 15.8 C 10.63 g/m*3 15.8 C 1.6 km/h
816 24-05-2014 19:55:00 15.8 C 10.1 g/m*3 15.8 C 0 km/h
817 24-05-2014 20:00:00 16.1 C 10.55 g/m*3 16.1 C 4.8 km/h
818 24-05-2014 20:05:00 16.2 C 9.52 g/m*3 16.2 C 6.4 km/h
819 24-05-2014 20:10:00 16.3 C 10.54 g/m*3 16.3 C 3.2 km/h
820 24-05-2014 20:15:00 16.2 C 10.34 g/m*3 16.2 C 0 km/h
821 24-05-2014 20:20:00 16.1 C 10.55 g/m*3 16.1 C 0 km/h
822 24-05-2014 20:25:00 16 C 10.22 g/m*3 16 C 1.6 km/h
823 24-05-2014 20:30:00 15.8 C 10.5 g/m*3 15.8 C 1.6 km/h
824 24-05-2014 20:35:00 15.6 C 10.51 g/m*3 15.6 C 1.6 km/h
825 24-05-2014 20:40:00 15.4 C 10.25 g/m*3 15.4 C 1.6 km/h
Sensor: Nr:Datum:Temp:Abs-Feuchte:Windchill:Wind:
Aussen-T/F 826 24-05-2014 20:45:00 15.2 C 10.38 g/m*3 15.2 C 1.6 km/h
827 24-05-2014 20:50:00 14.9 C 10.32 g/m*3 14.9 C 1.6 km/h
828 24-05-2014 20:55:00 14.7 C 10.32 g/m*3 14.7 C 1.6 km/h
829 24-05-2014 21:00:00 14.4 C 10.01 g/m*3 14.4 C 1.6 km/h
830 24-05-2014 21:05:00 14.1 C 9.95 g/m*3 14.1 C 3.2 km/h
831 24-05-2014 21:10:00 13.9 C 9.83 g/m*3 13.9 C 1.6 km/h
832 24-05-2014 21:15:00 13.8 C 9.77 g/m*3 13.8 C 1.6 km/h
833 24-05-2014 21:20:00 13.6 C 9.77 g/m*3 13.6 C 1.6 km/h
834 24-05-2014 21:25:00 13.5 C 9.71 g/m*3 13.5 C 1.6 km/h
835 24-05-2014 21:30:00 13.4 C 9.88 g/m*3 13.4 C 1.6 km/h
836 24-05-2014 21:35:00 13.2 C 9.76 g/m*3 13.2 C 1.6 km/h
837 24-05-2014 21:40:00 13.1 C 9.7 g/m*3 13.1 C 0 km/h
838 24-05-2014 21:45:00 12.9 C 9.58 g/m*3 12.9 C 0 km/h
839 24-05-2014 21:50:00 12.7 C 9.35 g/m*3 12.7 C 0 km/h
840 24-05-2014 21:55:00 12.6 C 9.29 g/m*3 12.6 C 0 km/h
841 24-05-2014 22:00:00 12.4 C 9.18 g/m*3 12.4 C 0 km/h
842 24-05-2014 22:05:00 12.3 C 9.23 g/m*3 12.3 C 0 km/h
843 24-05-2014 22:10:00 12.3 C 9.23 g/m*3 12.3 C 0 km/h
844 24-05-2014 22:35:00 11.8 C 9.16 g/m*3 11.8 C 0 km/h
845 24-05-2014 22:40:00 11.8 C 9.16 g/m*3 11.8 C 0 km/h
846 24-05-2014 22:45:00 11.7 C 9.1 g/m*3 11.7 C 0 km/h
847 24-05-2014 22:50:00 11.6 C 9.04 g/m*3 11.6 C 0 km/h
848 24-05-2014 22:55:00 11.4 C 8.93 g/m*3 11.4 C 0 km/h
849 24-05-2014 23:00:00 11.3 C 8.87 g/m*3 11.3 C 0 km/h
850 24-05-2014 23:05:00 11.3 C 8.98 g/m*3 11.3 C 0 km/h
Sensor: Nr:Datum:Temp:Abs-Feuchte:Windchill:Wind:
Aussen-T/F 851 24-05-2014 23:10:00 11.2 C 8.92 g/m*3 11.2 C 0 km/h
852 24-05-2014 23:15:00 11.2 C 8.82 g/m*3 11.2 C 0 km/h
853 24-05-2014 23:20:00 11.3 C 8.87 g/m*3 11.3 C 0 km/h
854 24-05-2014 23:25:00 11.3 C 8.87 g/m*3 11.3 C 0 km/h
855 24-05-2014 23:30:00 11.2 C 8.82 g/m*3 11.2 C 0 km/h
856 24-05-2014 23:35:00 11.1 C 8.76 g/m*3 11.1 C 0 km/h
857 24-05-2014 23:40:00 11 C 8.81 g/m*3 11 C 0 km/h
858 24-05-2014 23:45:00 10.9 C 8.75 g/m*3 10.9 C 0 km/h
859 24-05-2014 23:50:00 10.8 C 8.7 g/m*3 10.8 C 0 km/h
860 24-05-2014 23:55:00 10.7 C 8.74 g/m*3 10.7 C 0 km/h
861 25-05-2014 00:00:00 10.7 C 8.74 g/m*3 10.7 C 0 km/h
862 25-05-2014 00:05:00 10.7 C 8.74 g/m*3 10.7 C 0 km/h
863 25-05-2014 00:10:00 10.6 C 8.69 g/m*3 10.6 C 0 km/h
864 25-05-2014 00:15:00 10.5 C 8.53 g/m*3 10.5 C 1.6 km/h
865 25-05-2014 00:20:00 10.4 C 8.48 g/m*3 10.4 C 1.6 km/h
866 25-05-2014 00:25:00 10.3 C 8.52 g/m*3 10.3 C 0 km/h
867 25-05-2014 00:30:00 10.2 C 8.47 g/m*3 10.2 C 0 km/h
868 25-05-2014 00:35:00 10 C 8.46 g/m*3 10 C 0 km/h
869 25-05-2014 00:40:00 9.9 C 8.4 g/m*3 9.9 C 0 km/h
870 25-05-2014 00:45:00 9.9 C 8.5 g/m*3 9.9 C 0 km/h
871 25-05-2014 00:50:00 9.8 C 8.44 g/m*3 9.8 C 0 km/h
872 25-05-2014 00:55:00 9.8 C 8.44 g/m*3 9.8 C 0 km/h
873 25-05-2014 01:00:00 9.7 C 8.39 g/m*3 9.7 C 0 km/h
874 25-05-2014 01:05:00 9.7 C 8.39 g/m*3 9.7 C 0 km/h
875 25-05-2014 01:10:00 9.6 C 8.34 g/m*3 9.6 C 0 km/h
Sensor: Nr:Datum:Temp:Abs-Feuchte:Windchill:Wind:
Aussen-T/F 876 25-05-2014 01:15:00 9.5 C 8.28 g/m*3 9.5 C 0 km/h
877 25-05-2014 01:20:00 9.5 C 8.28 g/m*3 9.5 C 0 km/h
878 25-05-2014 01:25:00 9.4 C 8.23 g/m*3 9.4 C 0 km/h
879 25-05-2014 01:30:00 9.3 C 8.27 g/m*3 9.3 C 0 km/h
880 25-05-2014 01:35:00 9.3 C 8.27 g/m*3 9.3 C 0 km/h
881 25-05-2014 01:40:00 9.3 C 8.27 g/m*3 9.3 C 0 km/h
882 25-05-2014 01:45:00 9.3 C 8.27 g/m*3 9.3 C 0 km/h
883 25-05-2014 01:50:00 9.3 C 8.36 g/m*3 9.3 C 0 km/h
884 25-05-2014 01:55:00 9.3 C 8.36 g/m*3 9.3 C 0 km/h
885 25-05-2014 02:00:00 9.2 C 8.22 g/m*3 9.2 C 0 km/h
886 25-05-2014 02:05:00 9.1 C 8.16 g/m*3 9.1 C 0 km/h
887 25-05-2014 02:10:00 9 C 8.11 g/m*3 9 C 0 km/h
888 25-05-2014 02:15:00 8.9 C 8.15 g/m*3 8.9 C 0 km/h
889 25-05-2014 02:20:00 8.9 C 8.15 g/m*3 8.9 C 0 km/h
890 25-05-2014 02:25:00 8.9 C 8.15 g/m*3 8.9 C 0 km/h
891 25-05-2014 02:30:00 8.8 C 8.09 g/m*3 8.8 C 0 km/h
892 25-05-2014 02:35:00 8.8 C 8.09 g/m*3 8.8 C 0 km/h
893 25-05-2014 02:40:00 8.7 C 8.04 g/m*3 8.7 C 0 km/h
894 25-05-2014 02:45:00 8.7 C 8.13 g/m*3 8.7 C 0 km/h
895 25-05-2014 02:50:00 8.7 C 8.04 g/m*3 8.7 C 0 km/h
896 25-05-2014 02:55:00 8.7 C 8.13 g/m*3 8.7 C 0 km/h
897 25-05-2014 03:00:00 8.6 C 8.08 g/m*3 8.6 C 0 km/h
898 25-05-2014 03:05:00 8.6 C 8.08 g/m*3 8.6 C 0 km/h
899 25-05-2014 03:10:00 8.5 C 8.03 g/m*3 8.5 C 0 km/h
900 25-05-2014 03:15:00 8.5 C 8.03 g/m*3 8.5 C 0 km/h
Sensor: Nr:Datum:Temp:Abs-Feuchte:Windchill:Wind:
Aussen-T/F 901 25-05-2014 03:20:00 8.4 C 7.97 g/m*3 8.4 C 0 km/h
902 25-05-2014 03:25:00 8.3 C 7.92 g/m*3 8.3 C 0 km/h
903 25-05-2014 03:30:00 8.3 C 7.92 g/m*3 8.3 C 0 km/h
904 25-05-2014 03:35:00 8.2 C 7.87 g/m*3 8.2 C 0 km/h
905 25-05-2014 03:40:00 8.2 C 7.87 g/m*3 8.2 C 0 km/h
906 25-05-2014 03:45:00 8.2 C 7.87 g/m*3 8.2 C 0 km/h
907 25-05-2014 03:50:00 8.2 C 7.87 g/m*3 8.2 C 0 km/h
908 25-05-2014 03:55:00 8.1 C 7.9 g/m*3 8.1 C 0 km/h
909 25-05-2014 04:00:00 8.1 C 7.9 g/m*3 8.1 C 0 km/h
910 25-05-2014 04:05:00 8.1 C 7.9 g/m*3 8.1 C 0 km/h
911 25-05-2014 04:10:00 8 C 7.85 g/m*3 8 C 0 km/h
912 25-05-2014 04:15:00 7.9 C 7.8 g/m*3 7.9 C 0 km/h
913 25-05-2014 04:20:00 7.9 C 7.8 g/m*3 7.9 C 0 km/h
914 25-05-2014 04:25:00 7.9 C 7.8 g/m*3 7.9 C 0 km/h
915 25-05-2014 04:30:00 7.9 C 7.8 g/m*3 7.9 C 0 km/h
916 25-05-2014 04:35:00 7.8 C 7.75 g/m*3 7.8 C 0 km/h
917 25-05-2014 04:40:00 7.8 C 7.75 g/m*3 7.8 C 0 km/h
918 25-05-2014 04:45:00 7.8 C 7.75 g/m*3 7.8 C 0 km/h
919 25-05-2014 04:50:00 7.8 C 7.75 g/m*3 7.8 C 0 km/h
920 25-05-2014 04:55:00 7.7 C 7.7 g/m*3 7.7 C 0 km/h
921 25-05-2014 05:00:00 7.7 C 7.7 g/m*3 7.7 C 0 km/h
922 25-05-2014 05:05:00 7.7 C 7.7 g/m*3 7.7 C 0 km/h
923 25-05-2014 05:10:00 7.7 C 7.7 g/m*3 7.7 C 0 km/h
924 25-05-2014 05:15:00 7.6 C 7.65 g/m*3 7.6 C 0 km/h
925 25-05-2014 05:20:00 7.6 C 7.65 g/m*3 7.6 C 0 km/h
Sensor: Nr:Datum:Temp:Abs-Feuchte:Windchill:Wind:
Aussen-T/F 926 25-05-2014 05:25:00 7.5 C 7.6 g/m*3 7.5 C 0 km/h
927 25-05-2014 05:30:00 7.5 C 7.68 g/m*3 7.5 C 0 km/h
928 25-05-2014 05:35:00 7.5 C 7.68 g/m*3 7.5 C 0 km/h
929 25-05-2014 05:40:00 7.5 C 7.68 g/m*3 7.5 C 0 km/h
930 25-05-2014 05:45:00 7.5 C 7.68 g/m*3 7.5 C 0 km/h
931 25-05-2014 05:50:00 7.4 C 7.63 g/m*3 7.4 C 0 km/h
932 25-05-2014 05:55:00 7.4 C 7.63 g/m*3 7.4 C 0 km/h
933 25-05-2014 06:00:00 7.4 C 7.63 g/m*3 7.4 C 0 km/h
934 25-05-2014 06:05:00 7.4 C 7.63 g/m*3 7.4 C 1.6 km/h
935 25-05-2014 06:10:00 7.5 C 7.68 g/m*3 7.5 C 1.6 km/h
936 25-05-2014 06:15:00 7.5 C 7.68 g/m*3 7.5 C 0 km/h
937 25-05-2014 06:20:00 7.5 C 7.68 g/m*3 7.5 C 0 km/h
938 25-05-2014 06:25:00 7.5 C 7.68 g/m*3 7.5 C 0 km/h
939 25-05-2014 06:30:00 7.5 C 7.68 g/m*3 7.5 C 0 km/h
940 25-05-2014 06:35:00 7.5 C 7.68 g/m*3 7.5 C 0 km/h
941 25-05-2014 06:40:00 7.5 C 7.68 g/m*3 7.5 C 0 km/h
942 25-05-2014 06:45:00 7.5 C 7.68 g/m*3 7.5 C 0 km/h
943 25-05-2014 06:50:00 7.5 C 7.68 g/m*3 7.5 C 0 km/h
944 25-05-2014 06:55:00 7.6 C 7.73 g/m*3 7.6 C 3.2 km/h
945 25-05-2014 07:00:00 7.7 C 7.78 g/m*3 7.7 C 4.8 km/h
946 25-05-2014 07:05:00 7.8 C 7.83 g/m*3 7.8 C 3.2 km/h
947 25-05-2014 07:10:00 7.8 C 7.83 g/m*3 7.8 C 3.2 km/h
948 25-05-2014 07:15:00 7.8 C 7.83 g/m*3 7.8 C 3.2 km/h
949 25-05-2014 07:20:00 7.9 C 7.89 g/m*3 7.9 C 3.2 km/h
950 25-05-2014 07:25:00 7.9 C 7.89 g/m*3 7.9 C 3.2 km/h
Sensor: Nr:Datum:Temp:Abs-Feuchte:Windchill:Wind:
Aussen-T/F 951 25-05-2014 07:30:00 8 C 8.02 g/m*3 8 C 0 km/h
952 25-05-2014 07:35:00 8.1 C 8.07 g/m*3 8.1 C 1.6 km/h
953 25-05-2014 07:40:00 8.2 C 8.04 g/m*3 8.2 C 0 km/h
954 25-05-2014 07:45:00 8.3 C 8.18 g/m*3 8.3 C 0 km/h
955 25-05-2014 07:50:00 8.4 C 8.23 g/m*3 8.4 C 1.6 km/h
956 25-05-2014 07:55:00 8.6 C 8.34 g/m*3 8.6 C 0 km/h
957 25-05-2014 08:00:00 8.9 C 8.41 g/m*3 8.9 C 0 km/h
958 25-05-2014 08:05:00 9.1 C 8.52 g/m*3 9.1 C 0 km/h
959 25-05-2014 08:10:00 9.3 C 8.54 g/m*3 9.3 C 0 km/h
960 25-05-2014 08:15:00 9.6 C 8.7 g/m*3 9.6 C 0 km/h
961 25-05-2014 08:20:00 9.8 C 8.72 g/m*3 9.8 C 0 km/h
962 25-05-2014 08:25:00 10.2 C 8.85 g/m*3 10.2 C 0 km/h
963 25-05-2014 08:30:00 10.3 C 8.91 g/m*3 10.3 C 0 km/h
964 25-05-2014 08:35:00 10.6 C 8.98 g/m*3 10.6 C 0 km/h
965 25-05-2014 08:40:00 10.8 C 8.99 g/m*3 10.8 C 0 km/h
966 25-05-2014 08:45:00 11.1 C 9.07 g/m*3 11.1 C 0 km/h
967 25-05-2014 08:50:00 11.3 C 9.18 g/m*3 11.3 C 0 km/h
968 25-05-2014 08:55:00 11.4 C 9.14 g/m*3 11.4 C 0 km/h
969 25-05-2014 09:00:00 11.6 C 9.25 g/m*3 11.6 C 0 km/h
970 25-05-2014 09:05:00 11.6 C 9.25 g/m*3 11.6 C 0 km/h
971 25-05-2014 09:10:00 11.5 C 9.19 g/m*3 11.5 C 0 km/h
972 25-05-2014 09:15:00 11.4 C 9.24 g/m*3 11.4 C 0 km/h
973 25-05-2014 09:20:00 11.4 C 9.34 g/m*3 11.4 C 0 km/h
974 25-05-2014 09:25:00 11.6 C 9.46 g/m*3 11.6 C 0 km/h
975 25-05-2014 09:30:00 11.7 C 9.62 g/m*3 11.7 C 0 km/h
Sensor: Nr:Datum:Temp:Abs-Feuchte:Windchill:Wind:
Aussen-T/F 976 25-05-2014 09:35:00 11.9 C 9.74 g/m*3 11.9 C 0 km/h
977 25-05-2014 09:40:00 12.1 C 9.87 g/m*3 12.1 C 0 km/h
978 25-05-2014 09:45:00 12.3 C 9.88 g/m*3 12.3 C 0 km/h
979 25-05-2014 09:50:00 12.4 C 9.94 g/m*3 12.4 C 0 km/h
980 25-05-2014 09:55:00 12.7 C 10.13 g/m*3 12.7 C 1.6 km/h
981 25-05-2014 10:00:00 13.1 C 10.38 g/m*3 13.1 C 0 km/h
982 25-05-2014 10:05:00 13.6 C 10.59 g/m*3 13.6 C 0 km/h
983 25-05-2014 10:10:00 14.2 C 10.75 g/m*3 14.2 C 0 km/h
984 25-05-2014 10:15:00 14.7 C 10.83 g/m*3 14.7 C 0 km/h
985 25-05-2014 10:20:00 14.9 C 10.96 g/m*3 14.9 C 0 km/h
986 25-05-2014 10:25:00 15.3 C 10.71 g/m*3 15.3 C 1.6 km/h
987 25-05-2014 10:30:00 15.8 C 10.9 g/m*3 15.8 C 1.6 km/h
988 25-05-2014 10:35:00 16.2 C 11.17 g/m*3 16.2 C 1.6 km/h
989 25-05-2014 10:40:00 16.6 C 10.88 g/m*3 16.6 C 3.2 km/h
990 25-05-2014 10:45:00 16.8 C 11.15 g/m*3 16.8 C 1.6 km/h
991 25-05-2014 10:50:00 16.7 C 11.23 g/m*3 16.7 C 0 km/h
992 25-05-2014 10:55:00 16.7 C 11.37 g/m*3 16.7 C 1.6 km/h
993 25-05-2014 11:00:00 16.8 C 11.15 g/m*3 16.8 C 3.2 km/h
994 25-05-2014 11:05:00 17.2 C 11.42 g/m*3 17.2 C 1.6 km/h
995 25-05-2014 11:10:00 17.4 C 10.97 g/m*3 17.4 C 0 km/h
996 25-05-2014 11:15:00 17.8 C 11.08 g/m*3 17.8 C 1.6 km/h
997 25-05-2014 11:20:00 18.1 C 11.59 g/m*3 18.1 C 0 km/h
998 25-05-2014 11:25:00 18.3 C 11.41 g/m*3 18.3 C 4.8 km/h
999 25-05-2014 11:30:00 18.6 C 10.19 g/m*3 18.6 C 1.6 km/h
1000 25-05-2014 11:35:00 18.7 C 10.73 g/m*3 18.7 C 3.2 km/h
Sensor: Nr:Datum:Temp:Abs-Feuchte:Windchill:Wind:
Aussen-T/F 1001 25-05-2014 11:40:00 19.1 C 10.16 g/m*3 19.1 C 4.8 km/h
1002 25-05-2014 11:45:00 19.6 C 9.62 g/m*3 19.6 C 6.4 km/h
1003 25-05-2014 11:50:00 20 C 9.85 g/m*3 20 C 3.2 km/h
1004 25-05-2014 11:55:00 20.2 C 9.97 g/m*3 20.2 C 8.1 km/h
1005 25-05-2014 12:00:00 20.6 C 10.02 g/m*3 20.6 C 8.1 km/h
1006 25-05-2014 12:05:00 20.8 C 9.78 g/m*3 20.8 C 9.7 km/h
1007 25-05-2014 12:10:00 20.9 C 9.29 g/m*3 20.9 C 11.3 km/h
1008 25-05-2014 12:15:00 21.1 C 10.5 g/m*3 21.1 C 11.3 km/h
1009 25-05-2014 12:20:00 20.9 C 8.56 g/m*3 20.9 C 4.8 km/h
1010 25-05-2014 12:25:00 20.9 C 9.11 g/m*3 20.9 C 8.1 km/h
1011 25-05-2014 12:30:00 21.1 C 9.03 g/m*3 21.1 C 6.4 km/h
1012 25-05-2014 12:35:00 21.3 C 9.69 g/m*3 21.3 C 8.1 km/h
1013 25-05-2014 12:40:00 21.3 C 8.57 g/m*3 21.3 C 6.4 km/h
1014 25-05-2014 12:45:00 21.3 C 8.76 g/m*3 21.3 C 8.1 km/h
1015 25-05-2014 12:50:00 21.5 C 8.86 g/m*3 21.5 C 4.8 km/h
1016 25-05-2014 12:55:00 21.7 C 9.73 g/m*3 21.7 C 6.4 km/h
1017 25-05-2014 13:00:00 22.1 C 8.78 g/m*3 22.1 C 6.4 km/h
1018 25-05-2014 13:05:00 22 C 8.93 g/m*3 22 C 9.7 km/h
1019 25-05-2014 13:10:00 21.9 C 8.49 g/m*3 21.9 C 8.1 km/h
1020 25-05-2014 13:15:00 21.9 C 8.3 g/m*3 21.9 C 8.1 km/h
1021 25-05-2014 13:20:00 21.9 C 8.88 g/m*3 21.9 C 9.7 km/h
1022 25-05-2014 13:25:00 22.1 C 8.39 g/m*3 22.1 C 9.7 km/h
1023 25-05-2014 13:30:00 22.4 C 8.14 g/m*3 22.4 C 11.3 km/h
1024 25-05-2014 13:35:00 22.3 C 8.49 g/m*3 22.3 C 3.2 km/h
1025 25-05-2014 13:40:00 22.4 C 8.94 g/m*3 22.4 C 8.1 km/h
Sensor: Nr:Datum:Temp:Abs-Feuchte:Windchill:Wind:
Aussen-T/F 1026 25-05-2014 13:45:00 22.6 C 9.44 g/m*3 22.6 C 6.4 km/h
1027 25-05-2014 13:50:00 22.4 C 9.33 g/m*3 22.4 C 4.8 km/h
1028 25-05-2014 13:55:00 22.7 C 9.29 g/m*3 22.7 C 9.7 km/h
1029 25-05-2014 14:00:00 23.1 C 9.1 g/m*3 23.1 C 8.1 km/h
1030 25-05-2014 14:05:00 22.9 C 10.01 g/m*3 22.9 C 4.8 km/h
1031 25-05-2014 14:10:00 22.9 C 10.42 g/m*3 22.9 C 6.4 km/h
1032 25-05-2014 14:15:00 23.1 C 9.51 g/m*3 23.1 C 4.8 km/h
1033 25-05-2014 14:20:00 23.1 C 9.72 g/m*3 23.1 C 8.1 km/h
1034 25-05-2014 14:25:00 23.2 C 9.36 g/m*3 23.2 C 8.1 km/h
1035 25-05-2014 14:30:00 23.1 C 9.1 g/m*3 23.1 C 9.7 km/h
1036 25-05-2014 14:35:00 22.9 C 8.79 g/m*3 22.9 C 9.7 km/h
1037 25-05-2014 14:40:00 23.1 C 9.1 g/m*3 23.1 C 6.4 km/h
1038 25-05-2014 14:45:00 23.2 C 9.36 g/m*3 23.2 C 8.1 km/h
1039 25-05-2014 14:50:00 23.3 C 9.83 g/m*3 23.3 C 9.7 km/h
1040 25-05-2014 14:55:00 23.5 C 9.52 g/m*3 23.5 C 11.3 km/h
1041 25-05-2014 15:00:00 23.4 C 9.67 g/m*3 23.4 C 9.7 km/h
1042 25-05-2014 15:05:00 23.4 C 9.46 g/m*3 23.4 C 14.5 km/h
1043 25-05-2014 15:10:00 23.8 C 9.68 g/m*3 23.8 C 16.1 km/h
1044 25-05-2014 15:15:00 23.7 C 8.98 g/m*3 23.7 C 9.7 km/h
1045 25-05-2014 15:20:00 23.3 C 9.2 g/m*3 23.3 C 6.4 km/h
1046 25-05-2014 15:25:00 23.3 C 8.99 g/m*3 23.3 C 16.1 km/h
1047 25-05-2014 15:30:00 23.6 C 8.93 g/m*3 23.6 C 8.1 km/h
1048 25-05-2014 15:35:00 23.6 C 9.36 g/m*3 23.6 C 8.1 km/h
1049 25-05-2014 15:40:00 23.5 C 9.31 g/m*3 23.5 C 8.1 km/h
1050 25-05-2014 15:45:00 23.6 C 9.15 g/m*3 23.6 C 8.1 km/h
Sensor: Nr:Datum:Temp:Abs-Feuchte:Windchill:Wind:
Aussen-T/F 1051 25-05-2014 15:50:00 23.4 C 9.67 g/m*3 23.4 C 6.4 km/h
1052 25-05-2014 15:55:00 23.2 C 8.32 g/m*3 23.2 C 4.8 km/h
1053 25-05-2014 16:00:00 22.9 C 10.42 g/m*3 22.9 C 6.4 km/h
1054 25-05-2014 16:05:00 22.7 C 9.09 g/m*3 22.7 C 4.8 km/h
1055 25-05-2014 16:10:00 22.7 C 9.29 g/m*3 22.7 C 9.7 km/h
1056 25-05-2014 16:15:00 23.1 C 9.3 g/m*3 23.1 C 8.1 km/h
1057 25-05-2014 16:20:00 23.7 C 10.69 g/m*3 23.7 C 3.2 km/h
1058 25-05-2014 16:25:00 23.6 C 9.36 g/m*3 23.6 C 4.8 km/h
1059 25-05-2014 16:30:00 23.8 C 9.25 g/m*3 23.8 C 6.4 km/h
1060 25-05-2014 16:35:00 23.8 C 9.46 g/m*3 23.8 C 4.8 km/h
1061 25-05-2014 16:40:00 24.1 C 9.41 g/m*3 24.1 C 9.7 km/h
1062 25-05-2014 16:45:00 24.6 C 9.45 g/m*3 24.6 C 9.7 km/h
1063 25-05-2014 16:50:00 24.7 C 8.83 g/m*3 24.7 C 4.8 km/h
1064 25-05-2014 16:55:00 24.8 C 9.56 g/m*3 24.8 C 4.8 km/h
1065 25-05-2014 17:00:00 24.8 C 8.88 g/m*3 24.8 C 4.8 km/h
1066 25-05-2014 17:05:00 24.6 C 8.78 g/m*3 24.6 C 1.6 km/h
1067 25-05-2014 17:10:00 24.5 C 9.4 g/m*3 24.5 C 8.1 km/h
1068 25-05-2014 17:15:00 24.4 C 8.9 g/m*3 24.4 C 3.2 km/h
1069 25-05-2014 17:20:00 24.4 C 8.9 g/m*3 24.4 C 0 km/h
1070 25-05-2014 17:55:00 24.6 C 9.23 g/m*3 24.6 C 3.2 km/h
1071 25-05-2014 18:00:00 24.6 C 9.23 g/m*3 24.6 C 4.8 km/h
1072 25-05-2014 18:05:00 24.3 C 9.52 g/m*3 24.3 C 4.8 km/h
1073 25-05-2014 18:10:00 23.8 C 9.25 g/m*3 23.8 C 3.2 km/h
1074 25-05-2014 18:15:00 23.8 C 9.25 g/m*3 23.8 C 4.8 km/h
1075 25-05-2014 18:20:00 23.8 C 9.25 g/m*3 23.8 C 4.8 km/h
Sensor: Nr:Datum:Temp:Abs-Feuchte:Windchill:Wind:
Aussen-T/F 1076 25-05-2014 18:25:00 23.3 C 8.99 g/m*3 23.3 C 3.2 km/h
1077 25-05-2014 18:30:00 23.3 C 8.99 g/m*3 23.3 C 6.4 km/h
1078 25-05-2014 18:35:00 23.3 C 9.62 g/m*3 23.3 C 6.4 km/h
1079 25-05-2014 18:40:00 23.9 C 9.3 g/m*3 23.9 C 6.4 km/h
1080 25-05-2014 18:45:00 24.2 C 8.8 g/m*3 24.2 C 8.1 km/h
1081 25-05-2014 18:50:00 24 C 10.23 g/m*3 24 C 1.6 km/h
1082 25-05-2014 18:55:00 23.4 C 11.78 g/m*3 23.4 C 3.2 km/h
1083 25-05-2014 19:00:00 22.8 C 10.36 g/m*3 22.8 C 3.2 km/h
1084 25-05-2014 19:05:00 22.3 C 12.24 g/m*3 22.3 C 0 km/h
1085 25-05-2014 19:10:00 21.5 C 12.45 g/m*3 21.5 C 0 km/h
1086 25-05-2014 19:15:00 20.7 C 12.06 g/m*3 20.7 C 0 km/h
1087 25-05-2014 19:20:00 20.1 C 11.82 g/m*3 20.1 C 0 km/h
1088 25-05-2014 19:25:00 19.7 C 11.89 g/m*3 19.7 C 0 km/h
1089 25-05-2014 19:30:00 19.3 C 11.78 g/m*3 19.3 C 1.6 km/h
1090 25-05-2014 19:35:00 19.1 C 11.8 g/m*3 19.1 C 0 km/h
1091 25-05-2014 19:40:00 18.8 C 11.92 g/m*3 18.8 C 1.6 km/h
1092 25-05-2014 19:45:00 18.7 C 11.85 g/m*3 18.7 C 0 km/h
1093 25-05-2014 19:50:00 18.5 C 11.87 g/m*3 18.5 C 0 km/h
1094 25-05-2014 19:55:00 18.4 C 11.95 g/m*3 18.4 C 0 km/h
1095 25-05-2014 20:00:00 18.2 C 11.81 g/m*3 18.2 C 0 km/h
1096 25-05-2014 20:05:00 18.1 C 11.74 g/m*3 18.1 C 0 km/h
1097 25-05-2014 20:10:00 17.9 C 11.6 g/m*3 17.9 C 0 km/h
1098 25-05-2014 20:15:00 17.8 C 11.54 g/m*3 17.8 C 1.6 km/h
1099 25-05-2014 20:20:00 17.7 C 11.62 g/m*3 17.7 C 0 km/h
1100 25-05-2014 20:25:00 17.6 C 11.4 g/m*3 17.6 C 1.6 km/h
Sensor: Nr:Datum:Temp:Abs-Feuchte:Windchill:Wind:
Aussen-T/F 1101 25-05-2014 20:30:00 17.5 C 11.48 g/m*3 17.5 C 0 km/h
1102 25-05-2014 20:35:00 17.4 C 11.41 g/m*3 17.4 C 1.6 km/h
1103 25-05-2014 20:40:00 17.3 C 11.34 g/m*3 17.3 C 1.6 km/h
1104 25-05-2014 20:45:00 17.2 C 11.28 g/m*3 17.2 C 1.6 km/h
1105 25-05-2014 20:50:00 17.2 C 11.13 g/m*3 17.2 C 1.6 km/h
1106 25-05-2014 20:55:00 17.1 C 11.06 g/m*3 17.1 C 1.6 km/h
1107 25-05-2014 21:00:00 17 C 11 g/m*3 17 C 1.6 km/h
1108 25-05-2014 21:05:00 16.9 C 11.08 g/m*3 16.9 C 1.6 km/h
1109 25-05-2014 21:10:00 16.8 C 11.01 g/m*3 16.8 C 3.2 km/h
1110 25-05-2014 21:15:00 16.7 C 10.94 g/m*3 16.7 C 0 km/h
1111 25-05-2014 21:20:00 16.6 C 10.88 g/m*3 16.6 C 1.6 km/h
1112 25-05-2014 21:25:00 16.6 C 11.16 g/m*3 16.6 C 0 km/h
1113 25-05-2014 21:30:00 16.4 C 10.75 g/m*3 16.4 C 0 km/h
1114 25-05-2014 21:35:00 16.4 C 10.89 g/m*3 16.4 C 1.6 km/h
1115 25-05-2014 21:40:00 16.3 C 10.68 g/m*3 16.3 C 0 km/h
1116 25-05-2014 21:45:00 16.3 C 10.68 g/m*3 16.3 C 0 km/h
1117 25-05-2014 21:50:00 16.2 C 10.48 g/m*3 16.2 C 0 km/h
1118 25-05-2014 21:55:00 16.1 C 10.55 g/m*3 16.1 C 0 km/h
1119 25-05-2014 22:00:00 16.1 C 10.55 g/m*3 16.1 C 0 km/h
1120 25-05-2014 22:05:00 15.8 C 10.5 g/m*3 15.8 C 0 km/h
1121 25-05-2014 22:10:00 15.8 C 10.77 g/m*3 15.8 C 0 km/h
1122 25-05-2014 22:15:00 15.7 C 10.57 g/m*3 15.7 C 1.6 km/h
1123 25-05-2014 22:20:00 15.7 C 10.7 g/m*3 15.7 C 0 km/h
1124 25-05-2014 22:25:00 15.6 C 10.51 g/m*3 15.6 C 0 km/h
1125 25-05-2014 22:30:00 15.6 C 10.37 g/m*3 15.6 C 0 km/h
Sensor: Nr:Datum:Temp:Abs-Feuchte:Windchill:Wind:
Aussen-T/F 1126 25-05-2014 22:35:00 15.6 C 10.37 g/m*3 15.6 C 0 km/h
1127 25-05-2014 22:40:00 15.6 C 10.51 g/m*3 15.6 C 0 km/h
1128 25-05-2014 22:45:00 15.6 C 10.37 g/m*3 15.6 C 0 km/h
1129 25-05-2014 22:50:00 15.6 C 10.64 g/m*3 15.6 C 0 km/h
1130 25-05-2014 22:55:00 15.6 C 10.77 g/m*3 15.6 C 0 km/h
1131 25-05-2014 23:00:00 15.5 C 10.57 g/m*3 15.5 C 0 km/h
1132 25-05-2014 23:05:00 15.5 C 10.57 g/m*3 15.5 C 0 km/h
1133 25-05-2014 23:10:00 15.4 C 10.51 g/m*3 15.4 C 0 km/h
1134 25-05-2014 23:15:00 15.3 C 10.45 g/m*3 15.3 C 0 km/h
1135 25-05-2014 23:20:00 15.3 C 10.45 g/m*3 15.3 C 0 km/h
1136 25-05-2014 23:25:00 15.2 C 10.38 g/m*3 15.2 C 0 km/h
1137 25-05-2014 23:30:00 15.1 C 10.19 g/m*3 15.1 C 0 km/h
1138 25-05-2014 23:35:00 14.9 C 10.07 g/m*3 14.9 C 0 km/h
1139 25-05-2014 23:40:00 14.8 C 10.13 g/m*3 14.8 C 0 km/h
1140 25-05-2014 23:45:00 14.8 C 10.13 g/m*3 14.8 C 0 km/h
1141 25-05-2014 23:50:00 14.7 C 10.07 g/m*3 14.7 C 0 km/h
1142 25-05-2014 23:55:00 14.7 C 10.2 g/m*3 14.7 C 0 km/h
1143 26-05-2014 00:00:00 14.6 C 10.26 g/m*3 14.6 C 0 km/h
1144 26-05-2014 00:05:00 14.6 C 10.14 g/m*3 14.6 C 0 km/h
1145 26-05-2014 00:10:00 14.5 C 10.07 g/m*3 14.5 C 0 km/h
1146 26-05-2014 00:15:00 14.4 C 10.14 g/m*3 14.4 C 0 km/h
1147 26-05-2014 00:20:00 14.3 C 10.07 g/m*3 14.3 C 0 km/h
1148 26-05-2014 00:25:00 14.3 C 10.2 g/m*3 14.3 C 0 km/h
1149 26-05-2014 00:30:00 14.2 C 10.14 g/m*3 14.2 C 0 km/h
1150 26-05-2014 00:35:00 14.1 C 10.07 g/m*3 14.1 C 0 km/h
Sensor: Nr:Datum:Temp:Abs-Feuchte:Windchill:Wind:
Aussen-T/F 1151 26-05-2014 00:40:00 13.9 C 9.95 g/m*3 13.9 C 0 km/h
1152 26-05-2014 00:45:00 13.9 C 9.95 g/m*3 13.9 C 0 km/h
1153 26-05-2014 00:50:00 13.9 C 9.95 g/m*3 13.9 C 0 km/h
1154 26-05-2014 00:55:00 13.9 C 9.95 g/m*3 13.9 C 0 km/h
1155 26-05-2014 01:00:00 14 C 10.01 g/m*3 14 C 0 km/h
1156 26-05-2014 01:05:00 14 C 10.01 g/m*3 14 C 0 km/h
1157 26-05-2014 01:10:00 13.9 C 9.95 g/m*3 13.9 C 0 km/h
1158 26-05-2014 01:15:00 13.9 C 9.95 g/m*3 13.9 C 0 km/h
1159 26-05-2014 01:20:00 13.9 C 9.83 g/m*3 13.9 C 0 km/h
1160 26-05-2014 01:25:00 13.9 C 9.95 g/m*3 13.9 C 0 km/h
1161 26-05-2014 01:30:00 13.8 C 9.89 g/m*3 13.8 C 0 km/h
1162 26-05-2014 01:35:00 13.8 C 9.89 g/m*3 13.8 C 0 km/h
1163 26-05-2014 01:40:00 13.7 C 9.71 g/m*3 13.7 C 0 km/h
1164 26-05-2014 01:45:00 13.7 C 9.83 g/m*3 13.7 C 0 km/h
1165 26-05-2014 01:50:00 13.7 C 9.95 g/m*3 13.7 C 0 km/h
1166 26-05-2014 01:55:00 13.6 C 9.89 g/m*3 13.6 C 0 km/h
1167 26-05-2014 02:00:00 13.5 C 9.83 g/m*3 13.5 C 0 km/h
1168 26-05-2014 02:05:00 13.4 C 9.88 g/m*3 13.4 C 0 km/h
1169 26-05-2014 02:10:00 13.4 C 10 g/m*3 13.4 C 0 km/h
1170 26-05-2014 02:15:00 13.4 C 10 g/m*3 13.4 C 0 km/h
1171 26-05-2014 02:20:00 13.3 C 9.82 g/m*3 13.3 C 0 km/h
1172 26-05-2014 02:25:00 13.3 C 9.82 g/m*3 13.3 C 0 km/h
1173 26-05-2014 02:30:00 13.3 C 9.82 g/m*3 13.3 C 0 km/h
1174 26-05-2014 02:35:00 13.2 C 9.76 g/m*3 13.2 C 0 km/h
1175 26-05-2014 02:40:00 13.2 C 9.87 g/m*3 13.2 C 0 km/h
Sensor: Nr:Datum:Temp:Abs-Feuchte:Windchill:Wind:
Aussen-T/F 1176 26-05-2014 02:45:00 13.2 C 9.87 g/m*3 13.2 C 0 km/h
1177 26-05-2014 02:50:00 13.2 C 9.87 g/m*3 13.2 C 0 km/h
1178 26-05-2014 02:55:00 13.1 C 9.81 g/m*3 13.1 C 0 km/h
1179 26-05-2014 03:00:00 13.1 C 9.81 g/m*3 13.1 C 0 km/h
1180 26-05-2014 03:05:00 13.1 C 9.93 g/m*3 13.1 C 0 km/h
1181 26-05-2014 03:10:00 13.1 C 9.93 g/m*3 13.1 C 0 km/h
1182 26-05-2014 03:15:00 13 C 9.75 g/m*3 13 C 0 km/h
1183 26-05-2014 03:20:00 13 C 9.75 g/m*3 13 C 0 km/h
1184 26-05-2014 03:25:00 13 C 9.75 g/m*3 13 C 0 km/h
1185 26-05-2014 03:30:00 13 C 9.87 g/m*3 13 C 0 km/h
1186 26-05-2014 03:35:00 12.9 C 9.81 g/m*3 12.9 C 0 km/h
1187 26-05-2014 03:40:00 12.9 C 9.81 g/m*3 12.9 C 0 km/h
1188 26-05-2014 03:45:00 12.9 C 9.92 g/m*3 12.9 C 0 km/h
1189 26-05-2014 03:50:00 12.8 C 9.74 g/m*3 12.8 C 0 km/h
1190 26-05-2014 03:55:00 12.8 C 9.74 g/m*3 12.8 C 0 km/h
1191 26-05-2014 04:00:00 12.8 C 9.86 g/m*3 12.8 C 0 km/h
1192 26-05-2014 04:05:00 12.8 C 9.86 g/m*3 12.8 C 0 km/h
1193 26-05-2014 04:10:00 12.8 C 9.86 g/m*3 12.8 C 0 km/h
1194 26-05-2014 04:15:00 12.8 C 9.86 g/m*3 12.8 C 0 km/h
1195 26-05-2014 04:20:00 12.8 C 9.86 g/m*3 12.8 C 0 km/h
1196 26-05-2014 04:25:00 12.8 C 9.86 g/m*3 12.8 C 0 km/h
1197 26-05-2014 04:30:00 12.8 C 9.86 g/m*3 12.8 C 0 km/h
1198 26-05-2014 04:35:00 12.7 C 9.8 g/m*3 12.7 C 0 km/h
1199 26-05-2014 04:40:00 12.8 C 9.86 g/m*3 12.8 C 0 km/h
1200 26-05-2014 04:45:00 12.7 C 9.8 g/m*3 12.7 C 0 km/h
Sensor: Nr:Datum:Temp:Abs-Feuchte:Windchill:Wind:
Aussen-T/F 1201 26-05-2014 04:50:00 12.8 C 9.97 g/m*3 12.8 C 0 km/h
1202 26-05-2014 04:55:00 12.8 C 9.97 g/m*3 12.8 C 0 km/h
1203 26-05-2014 05:00:00 12.8 C 9.86 g/m*3 12.8 C 0 km/h
1204 26-05-2014 05:05:00 12.8 C 9.86 g/m*3 12.8 C 0 km/h
1205 26-05-2014 05:10:00 12.8 C 9.86 g/m*3 12.8 C 0 km/h
1206 26-05-2014 05:15:00 12.9 C 9.92 g/m*3 12.9 C 0 km/h
1207 26-05-2014 05:20:00 13 C 9.98 g/m*3 13 C 0 km/h
1208 26-05-2014 05:25:00 13.1 C 10.04 g/m*3 13.1 C 0 km/h
1209 26-05-2014 05:30:00 13.1 C 10.04 g/m*3 13.1 C 0 km/h
1210 26-05-2014 05:35:00 13.2 C 10.1 g/m*3 13.2 C 0 km/h
1211 26-05-2014 05:40:00 13.2 C 10.1 g/m*3 13.2 C 0 km/h
1212 26-05-2014 05:45:00 13.2 C 10.1 g/m*3 13.2 C 0 km/h
1213 26-05-2014 05:50:00 13.2 C 10.1 g/m*3 13.2 C 0 km/h
1214 26-05-2014 05:55:00 13.2 C 10.1 g/m*3 13.2 C 0 km/h
1215 26-05-2014 06:00:00 13.2 C 10.1 g/m*3 13.2 C 0 km/h
1216 26-05-2014 06:05:00 13.2 C 10.1 g/m*3 13.2 C 0 km/h
1217 26-05-2014 06:10:00 13.2 C 10.22 g/m*3 13.2 C 0 km/h
1218 26-05-2014 06:15:00 13.2 C 10.22 g/m*3 13.2 C 0 km/h
1219 26-05-2014 06:20:00 13.2 C 10.22 g/m*3 13.2 C 0 km/h
1220 26-05-2014 06:25:00 13.2 C 10.22 g/m*3 13.2 C 0 km/h
1221 26-05-2014 06:30:00 13.2 C 10.22 g/m*3 13.2 C 0 km/h
1222 26-05-2014 06:35:00 13.2 C 10.22 g/m*3 13.2 C 0 km/h
1223 26-05-2014 06:40:00 13.2 C 10.22 g/m*3 13.2 C 0 km/h
1224 26-05-2014 06:45:00 13.3 C 10.28 g/m*3 13.3 C 0 km/h
1225 26-05-2014 06:50:00 13.3 C 10.28 g/m*3 13.3 C 0 km/h
Sensor: Nr:Datum:Temp:Abs-Feuchte:Windchill:Wind:
Aussen-T/F 1226 26-05-2014 06:55:00 13.3 C 10.4 g/m*3 13.3 C 0 km/h
1227 26-05-2014 07:00:00 13.3 C 10.4 g/m*3 13.3 C 0 km/h
1228 26-05-2014 07:05:00 13.3 C 10.4 g/m*3 13.3 C 0 km/h
1229 26-05-2014 07:10:00 13.3 C 10.4 g/m*3 13.3 C 0 km/h
1230 26-05-2014 07:15:00 13.4 C 10.46 g/m*3 13.4 C 1.6 km/h
1231 26-05-2014 07:20:00 13.4 C 10.46 g/m*3 13.4 C 0 km/h
1232 26-05-2014 07:25:00 13.4 C 10.46 g/m*3 13.4 C 3.2 km/h
1233 26-05-2014 07:30:00 13.5 C 10.53 g/m*3 13.5 C 3.2 km/h
1234 26-05-2014 07:35:00 13.6 C 10.59 g/m*3 13.6 C 0 km/h
1235 26-05-2014 07:40:00 13.7 C 10.66 g/m*3 13.7 C 0 km/h
1236 26-05-2014 07:45:00 13.8 C 10.72 g/m*3 13.8 C 0 km/h
1237 26-05-2014 07:50:00 13.8 C 10.72 g/m*3 13.8 C 0 km/h
1238 26-05-2014 07:55:00 13.9 C 10.91 g/m*3 13.9 C 0 km/h
1239 26-05-2014 08:00:00 14.1 C 11.04 g/m*3 14.1 C 0 km/h
1240 26-05-2014 08:05:00 14.2 C 10.99 g/m*3 14.2 C 0 km/h
1241 26-05-2014 08:10:00 14.3 C 11.06 g/m*3 14.3 C 0 km/h
1242 26-05-2014 08:15:00 14.3 C 11.06 g/m*3 14.3 C 0 km/h
1243 26-05-2014 08:20:00 14.4 C 11 g/m*3 14.4 C 0 km/h
1244 26-05-2014 08:25:00 14.5 C 11.07 g/m*3 14.5 C 0 km/h
1245 26-05-2014 08:30:00 14.6 C 11.14 g/m*3 14.6 C 0 km/h
1246 26-05-2014 08:35:00 14.8 C 11.15 g/m*3 14.8 C 1.6 km/h
1247 26-05-2014 08:40:00 15 C 11.16 g/m*3 15 C 1.6 km/h
1248 26-05-2014 08:45:00 15.2 C 11.16 g/m*3 15.2 C 0 km/h
1249 26-05-2014 08:50:00 15.4 C 11.43 g/m*3 15.4 C 1.6 km/h
1250 26-05-2014 08:55:00 15.4 C 11.04 g/m*3 15.4 C 1.6 km/h
Sensor: Nr:Datum:Temp:Abs-Feuchte:Windchill:Wind:
Aussen-T/F 1251 26-05-2014 09:00:00 15.5 C 11.37 g/m*3 15.5 C 0 km/h
1252 26-05-2014 09:05:00 15.6 C 11.3 g/m*3 15.6 C 0 km/h
1253 26-05-2014 09:10:00 15.6 C 11.17 g/m*3 15.6 C 0 km/h
1254 26-05-2014 09:15:00 15.7 C 11.37 g/m*3 15.7 C 0 km/h
1255 26-05-2014 09:20:00 15.7 C 11.11 g/m*3 15.7 C 1.6 km/h
1256 26-05-2014 09:25:00 15.7 C 10.97 g/m*3 15.7 C 0 km/h
1257 26-05-2014 09:30:00 15.8 C 11.31 g/m*3 15.8 C 0 km/h
1258 26-05-2014 09:35:00 15.7 C 11.37 g/m*3 15.7 C 0 km/h
1259 26-05-2014 09:40:00 15.7 C 11.51 g/m*3 15.7 C 0 km/h
1260 26-05-2014 09:45:00 15.6 C 11.3 g/m*3 15.6 C 0 km/h
1261 26-05-2014 09:50:00 15.6 C 11.44 g/m*3 15.6 C 0 km/h
1262 26-05-2014 09:55:00 15.6 C 11.3 g/m*3 15.6 C 0 km/h
1263 26-05-2014 10:00:00 15.8 C 11.17 g/m*3 15.8 C 1.6 km/h
1264 26-05-2014 10:05:00 15.9 C 11.51 g/m*3 15.9 C 0 km/h
1265 26-05-2014 10:10:00 15.9 C 11.51 g/m*3 15.9 C 0 km/h
1266 26-05-2014 10:15:00 15.9 C 11.1 g/m*3 15.9 C 3.2 km/h
1267 26-05-2014 10:20:00 16 C 11.17 g/m*3 16 C 1.6 km/h
1268 26-05-2014 10:25:00 16.2 C 11.17 g/m*3 16.2 C 6.4 km/h
1269 26-05-2014 10:30:00 16.4 C 11.31 g/m*3 16.4 C 4.8 km/h
1270 26-05-2014 10:35:00 16.7 C 11.37 g/m*3 16.7 C 6.4 km/h
1271 26-05-2014 10:40:00 16.9 C 11.22 g/m*3 16.9 C 6.4 km/h
1272 26-05-2014 10:45:00 17 C 11.14 g/m*3 17 C 1.6 km/h
1273 26-05-2014 10:50:00 17.2 C 11.42 g/m*3 17.2 C 4.8 km/h
1274 26-05-2014 10:55:00 17.4 C 11.41 g/m*3 17.4 C 6.4 km/h
1275 26-05-2014 11:00:00 17.5 C 11.48 g/m*3 17.5 C 8.1 km/h
Sensor: Nr:Datum:Temp:Abs-Feuchte:Windchill:Wind:
Aussen-T/F 1276 26-05-2014 11:05:00 17.6 C 11.4 g/m*3 17.6 C 3.2 km/h
1277 26-05-2014 11:10:00 17.7 C 11.47 g/m*3 17.7 C 6.4 km/h
1278 26-05-2014 11:15:00 17.8 C 11.54 g/m*3 17.8 C 6.4 km/h
1279 26-05-2014 11:20:00 17.9 C 11.3 g/m*3 17.9 C 6.4 km/h
1280 26-05-2014 11:25:00 17.8 C 11.23 g/m*3 17.8 C 6.4 km/h
1281 26-05-2014 11:30:00 17.8 C 11.23 g/m*3 17.8 C 6.4 km/h
1282 26-05-2014 11:35:00 17.9 C 11.3 g/m*3 17.9 C 8.1 km/h
1283 26-05-2014 11:40:00 18 C 11.37 g/m*3 18 C 8.1 km/h
1284 26-05-2014 11:45:00 18 C 11.21 g/m*3 18 C 8.1 km/h
1285 26-05-2014 11:50:00 18.1 C 11.59 g/m*3 18.1 C 9.7 km/h
1286 26-05-2014 11:55:00 18.2 C 11.5 g/m*3 18.2 C 9.7 km/h
1287 26-05-2014 12:00:00 18.3 C 11.73 g/m*3 18.3 C 6.4 km/h
1288 26-05-2014 12:05:00 18.3 C 11.57 g/m*3 18.3 C 9.7 km/h
1289 26-05-2014 12:10:00 18.3 C 11.73 g/m*3 18.3 C 6.4 km/h
1290 26-05-2014 12:15:00 18.2 C 11.66 g/m*3 18.2 C 6.4 km/h
1291 26-05-2014 12:20:00 18 C 11.37 g/m*3 18 C 6.4 km/h
1292 26-05-2014 12:25:00 17.8 C 11.54 g/m*3 17.8 C 6.4 km/h
1293 26-05-2014 12:30:00 17.7 C 11.47 g/m*3 17.7 C 4.8 km/h
1294 26-05-2014 12:35:00 17.8 C 11.84 g/m*3 17.8 C 8.1 km/h
1295 26-05-2014 12:40:00 17.9 C 11.91 g/m*3 17.9 C 6.4 km/h
1296 26-05-2014 12:45:00 18.2 C 11.66 g/m*3 18.2 C 9.7 km/h
1297 26-05-2014 12:50:00 18.5 C 12.34 g/m*3 18.5 C 11.3 km/h
1298 26-05-2014 12:55:00 18.9 C 12.31 g/m*3 18.9 C 11.3 km/h
1299 26-05-2014 13:00:00 19.3 C 12.44 g/m*3 19.3 C 9.7 km/h
1300 26-05-2014 13:05:00 19.3 C 12.11 g/m*3 19.3 C 12.9 km/h
Sensor: Nr:Datum:Temp:Abs-Feuchte:Windchill:Wind:
Aussen-T/F 1301 26-05-2014 13:10:00 19.6 C 12.83 g/m*3 19.6 C 12.9 km/h
1302 26-05-2014 13:15:00 19.9 C 12.2 g/m*3 19.9 C 11.3 km/h
1303 26-05-2014 13:20:00 19.8 C 12.3 g/m*3 19.8 C 9.7 km/h
1304 26-05-2014 13:25:00 19.7 C 12.06 g/m*3 19.7 C 9.7 km/h
1305 26-05-2014 13:30:00 19.9 C 12.2 g/m*3 19.9 C 8.1 km/h
1306 26-05-2014 13:35:00 19.9 C 12.37 g/m*3 19.9 C 8.1 km/h
1307 26-05-2014 13:40:00 19.8 C 11.96 g/m*3 19.8 C 8.1 km/h
1308 26-05-2014 13:45:00 19.6 C 11.99 g/m*3 19.6 C 6.4 km/h
1309 26-05-2014 13:50:00 19.6 C 12.15 g/m*3 19.6 C 4.8 km/h
1310 26-05-2014 13:55:00 19.6 C 12.15 g/m*3 19.6 C 4.8 km/h
1311 26-05-2014 14:00:00 19.6 C 11.99 g/m*3 19.6 C 4.8 km/h
1312 26-05-2014 14:05:00 19.7 C 12.23 g/m*3 19.7 C 8.1 km/h
1313 26-05-2014 14:10:00 19.8 C 12.3 g/m*3 19.8 C 9.7 km/h
1314 26-05-2014 14:15:00 20.1 C 12.34 g/m*3 20.1 C 9.7 km/h
1315 26-05-2014 14:20:00 20.3 C 12.49 g/m*3 20.3 C 8.1 km/h
1316 26-05-2014 14:25:00 20.6 C 12.35 g/m*3 20.6 C 9.7 km/h
1317 26-05-2014 14:30:00 20.7 C 12.24 g/m*3 20.7 C 8.1 km/h
1318 26-05-2014 14:35:00 20.9 C 12.02 g/m*3 20.9 C 11.3 km/h
1319 26-05-2014 14:40:00 20.9 C 12.2 g/m*3 20.9 C 12.9 km/h
1320 26-05-2014 14:45:00 20.9 C 11.84 g/m*3 20.9 C 11.3 km/h
1321 26-05-2014 14:50:00 20.7 C 11.88 g/m*3 20.7 C 14.5 km/h
1322 26-05-2014 14:55:00 20.8 C 12.31 g/m*3 20.8 C 9.7 km/h
1323 26-05-2014 15:00:00 21 C 12.46 g/m*3 21 C 9.7 km/h
1324 26-05-2014 15:05:00 21.2 C 12.42 g/m*3 21.2 C 8.1 km/h
1325 26-05-2014 15:10:00 21.2 C 11.86 g/m*3 21.2 C 3.2 km/h
Sensor: Nr:Datum:Temp:Abs-Feuchte:Windchill:Wind:
Aussen-T/F 1326 26-05-2014 15:15:00 21.2 C 12.05 g/m*3 21.2 C 6.4 km/h
1327 26-05-2014 15:20:00 21.1 C 11.98 g/m*3 21.1 C 8.1 km/h
1328 26-05-2014 15:25:00 21 C 11.91 g/m*3 21 C 4.8 km/h
1329 26-05-2014 15:30:00 21 C 11.91 g/m*3 21 C 4.8 km/h
1330 26-05-2014 15:35:00 21.1 C 12.16 g/m*3 21.1 C 3.2 km/h
1331 26-05-2014 15:40:00 21.1 C 12.16 g/m*3 21.1 C 6.4 km/h
1332 26-05-2014 15:45:00 21.2 C 11.86 g/m*3 21.2 C 4.8 km/h
1333 26-05-2014 15:50:00 21.6 C 12.52 g/m*3 21.6 C 4.8 km/h
1334 26-05-2014 15:55:00 21.6 C 12.14 g/m*3 21.6 C 9.7 km/h
1335 26-05-2014 16:00:00 21.5 C 12.07 g/m*3 21.5 C 6.4 km/h
1336 26-05-2014 16:05:00 21.6 C 12.33 g/m*3 21.6 C 8.1 km/h
1337 26-05-2014 16:10:00 21.7 C 12.21 g/m*3 21.7 C 6.4 km/h
1338 26-05-2014 16:15:00 21.7 C 12.4 g/m*3 21.7 C 8.1 km/h
1339 26-05-2014 16:20:00 21.9 C 11.96 g/m*3 21.9 C 8.1 km/h
1340 26-05-2014 16:25:00 22.1 C 12.49 g/m*3 22.1 C 9.7 km/h
1341 26-05-2014 16:30:00 22.1 C 12.3 g/m*3 22.1 C 8.1 km/h
1342 26-05-2014 16:35:00 22.1 C 12.49 g/m*3 22.1 C 4.8 km/h
1343 26-05-2014 16:40:00 22.1 C 11.91 g/m*3 22.1 C 1.6 km/h
1344 26-05-2014 16:45:00 22 C 12.23 g/m*3 22 C 3.2 km/h
1345 26-05-2014 16:50:00 21.8 C 12.28 g/m*3 21.8 C 4.8 km/h
1346 26-05-2014 16:55:00 21.8 C 12.47 g/m*3 21.8 C 8.1 km/h
1347 26-05-2014 17:00:00 21.8 C 12.66 g/m*3 21.8 C 4.8 km/h
1348 26-05-2014 17:05:00 21.9 C 12.54 g/m*3 21.9 C 6.4 km/h
1349 26-05-2014 17:10:00 21.9 C 12.35 g/m*3 21.9 C 6.4 km/h
1350 26-05-2014 17:15:00 21.9 C 12.16 g/m*3 21.9 C 4.8 km/h
Sensor: Nr:Datum:Temp:Abs-Feuchte:Windchill:Wind:
Aussen-T/F 1351 26-05-2014 17:20:00 21.8 C 12.47 g/m*3 21.8 C 6.4 km/h
1352 26-05-2014 17:25:00 21.6 C 11.95 g/m*3 21.6 C 3.2 km/h
1353 26-05-2014 17:30:00 21.5 C 12.63 g/m*3 21.5 C 3.2 km/h
1354 26-05-2014 17:35:00 21.4 C 13.31 g/m*3 21.4 C 1.6 km/h
1355 26-05-2014 17:40:00 21.3 C 12.12 g/m*3 21.3 C 4.8 km/h
1356 26-05-2014 17:45:00 21.3 C 12.3 g/m*3 21.3 C 3.2 km/h
1357 26-05-2014 17:50:00 21.4 C 12.19 g/m*3 21.4 C 3.2 km/h
1358 26-05-2014 17:55:00 21.5 C 12.82 g/m*3 21.5 C 1.6 km/h
1359 26-05-2014 18:00:00 21.4 C 13.12 g/m*3 21.4 C 3.2 km/h
1360 26-05-2014 18:05:00 21.3 C 13.05 g/m*3 21.3 C 0 km/h
1361 26-05-2014 18:10:00 21.2 C 13.53 g/m*3 21.2 C 0 km/h
1362 26-05-2014 18:15:00 20.9 C 13.48 g/m*3 20.9 C 0 km/h
1363 26-05-2014 18:20:00 20.6 C 13.6 g/m*3 20.6 C 0 km/h
1364 26-05-2014 18:25:00 20.5 C 13.52 g/m*3 20.5 C 0 km/h
1365 26-05-2014 18:30:00 20.4 C 12.56 g/m*3 20.4 C 6.4 km/h
1366 26-05-2014 18:35:00 20.4 C 12.38 g/m*3 20.4 C 4.8 km/h
1367 26-05-2014 18:40:00 20.6 C 12.71 g/m*3 20.6 C 4.8 km/h
1368 26-05-2014 18:45:00 20.6 C 12.89 g/m*3 20.6 C 3.2 km/h
1369 26-05-2014 18:50:00 20.6 C 12.71 g/m*3 20.6 C 4.8 km/h
1370 26-05-2014 18:55:00 20.6 C 12.89 g/m*3 20.6 C 0 km/h
1371 26-05-2014 19:00:00 20.4 C 12.91 g/m*3 20.4 C 0 km/h
1372 26-05-2014 19:05:00 20.3 C 13.01 g/m*3 20.3 C 0 km/h
1373 26-05-2014 19:10:00 20.2 C 12.94 g/m*3 20.2 C 0 km/h
1374 26-05-2014 19:15:00 20.1 C 13.21 g/m*3 20.1 C 0 km/h
1375 26-05-2014 19:20:00 19.9 C 13.4 g/m*3 19.9 C 0 km/h
Sensor: Nr:Datum:Temp:Abs-Feuchte:Windchill:Wind:
Aussen-T/F 1376 26-05-2014 19:25:00 19.8 C 13.32 g/m*3 19.8 C 0 km/h
1377 26-05-2014 19:30:00 19.6 C 13.17 g/m*3 19.6 C 0 km/h
1378 26-05-2014 19:35:00 19.6 C 13.51 g/m*3 19.6 C 0 km/h
1379 26-05-2014 19:40:00 19.5 C 12.92 g/m*3 19.5 C 0 km/h
1380 26-05-2014 19:45:00 19.4 C 13.35 g/m*3 19.4 C 0 km/h
1381 26-05-2014 19:50:00 19.4 C 12.85 g/m*3 19.4 C 0 km/h
1382 26-05-2014 19:55:00 19.4 C 13.01 g/m*3 19.4 C 0 km/h
1383 26-05-2014 20:00:00 19.4 C 13.35 g/m*3 19.4 C 1.6 km/h
1384 26-05-2014 20:05:00 19.3 C 13.27 g/m*3 19.3 C 0 km/h
1385 26-05-2014 20:10:00 19.2 C 13.19 g/m*3 19.2 C 0 km/h
1386 26-05-2014 20:15:00 19.1 C 12.79 g/m*3 19.1 C 0 km/h
1387 26-05-2014 20:20:00 18.9 C 12.8 g/m*3 18.9 C 0 km/h
1388 26-05-2014 20:25:00 18.7 C 12.65 g/m*3 18.7 C 0 km/h
1389 26-05-2014 20:30:00 18.6 C 12.89 g/m*3 18.6 C 1.6 km/h
1390 26-05-2014 20:35:00 18.3 C 12.98 g/m*3 18.3 C 0 km/h
1391 26-05-2014 20:40:00 18.1 C 12.82 g/m*3 18.1 C 1.6 km/h
1392 26-05-2014 20:45:00 17.9 C 12.67 g/m*3 17.9 C 0 km/h
1393 26-05-2014 20:50:00 17.7 C 12.52 g/m*3 17.7 C 0 km/h
1394 26-05-2014 20:55:00 17.7 C 12.52 g/m*3 17.7 C 0 km/h
1395 26-05-2014 21:00:00 17.7 C 12.52 g/m*3 17.7 C 3.2 km/h
1396 26-05-2014 21:05:00 17.6 C 12.45 g/m*3 17.6 C 0 km/h
1397 26-05-2014 21:10:00 17.5 C 12.52 g/m*3 17.5 C 0 km/h
1398 26-05-2014 21:15:00 17.4 C 12.45 g/m*3 17.4 C 0 km/h
1399 26-05-2014 21:20:00 17.3 C 12.52 g/m*3 17.3 C 0 km/h
1400 26-05-2014 21:25:00 17.3 C 12.67 g/m*3 17.3 C 0 km/h
Sensor: Nr:Datum:Temp:Abs-Feuchte:Windchill:Wind:
Aussen-T/F 1401 26-05-2014 21:30:00 17.3 C 12.67 g/m*3 17.3 C 0 km/h
1402 26-05-2014 21:35:00 17.3 C 12.67 g/m*3 17.3 C 0 km/h
1403 26-05-2014 21:40:00 17.3 C 12.67 g/m*3 17.3 C 0 km/h
1404 26-05-2014 21:45:00 17.3 C 12.67 g/m*3 17.3 C 0 km/h
1405 26-05-2014 21:50:00 17.3 C 12.67 g/m*3 17.3 C 0 km/h
1406 26-05-2014 21:55:00 17.3 C 12.52 g/m*3 17.3 C 0 km/h
1407 26-05-2014 22:00:00 17.3 C 12.52 g/m*3 17.3 C 0 km/h
1408 26-05-2014 22:05:00 17.4 C 12.45 g/m*3 17.4 C 0 km/h
1409 26-05-2014 22:10:00 17.4 C 12.45 g/m*3 17.4 C 1.6 km/h
1410 26-05-2014 22:15:00 17.5 C 12.52 g/m*3 17.5 C 1.6 km/h
1411 26-05-2014 22:20:00 17.6 C 12.6 g/m*3 17.6 C 0 km/h
1412 26-05-2014 22:25:00 17.6 C 12.9 g/m*3 17.6 C 0 km/h
1413 26-05-2014 22:30:00 17.4 C 12.89 g/m*3 17.4 C 0 km/h
1414 26-05-2014 22:35:00 17.3 C 12.96 g/m*3 17.3 C 1.6 km/h
1415 26-05-2014 22:40:00 17.2 C 13.03 g/m*3 17.2 C 0 km/h
1416 26-05-2014 22:45:00 17.1 C 12.96 g/m*3 17.1 C 0 km/h
1417 26-05-2014 22:50:00 16.9 C 12.94 g/m*3 16.9 C 1.6 km/h
1418 26-05-2014 22:55:00 16.8 C 12.87 g/m*3 16.8 C 0 km/h
1419 26-05-2014 23:00:00 16.8 C 13.01 g/m*3 16.8 C 1.6 km/h
1420 26-05-2014 23:05:00 16.7 C 12.93 g/m*3 16.7 C 0 km/h
1421 26-05-2014 23:10:00 16.7 C 13.07 g/m*3 16.7 C 4.8 km/h
1422 26-05-2014 23:15:00 16.6 C 13 g/m*3 16.6 C 3.2 km/h
1423 26-05-2014 23:20:00 16.6 C 13 g/m*3 16.6 C 0 km/h
1424 26-05-2014 23:25:00 16.5 C 13.06 g/m*3 16.5 C 3.2 km/h
1425 26-05-2014 23:30:00 16.4 C 12.98 g/m*3 16.4 C 0 km/h
Sensor: Nr:Datum:Temp:Abs-Feuchte:Windchill:Wind:
Aussen-T/F 1426 26-05-2014 23:35:00 16.3 C 12.9 g/m*3 16.3 C 0 km/h
1427 26-05-2014 23:40:00 16.3 C 13.04 g/m*3 16.3 C 1.6 km/h
1428 26-05-2014 23:45:00 16.3 C 13.04 g/m*3 16.3 C 0 km/h
1429 26-05-2014 23:50:00 16.2 C 12.96 g/m*3 16.2 C 1.6 km/h
1430 26-05-2014 23:55:00 16.2 C 12.96 g/m*3 16.2 C 0 km/h
1431 27-05-2014 00:00:00 16.2 C 12.96 g/m*3 16.2 C 0 km/h
1432 27-05-2014 00:40:00 15.8 C 12.79 g/m*3 15.8 C 0 km/h
1433 27-05-2014 00:45:00 15.8 C 12.79 g/m*3 15.8 C 0 km/h
1434 27-05-2014 00:50:00 15.7 C 12.71 g/m*3 15.7 C 0 km/h
1435 27-05-2014 00:55:00 15.7 C 12.71 g/m*3 15.7 C 0 km/h
1436 27-05-2014 01:00:00 15.7 C 12.71 g/m*3 15.7 C 0 km/h
1437 27-05-2014 01:05:00 15.7 C 12.84 g/m*3 15.7 C 0 km/h
1438 27-05-2014 01:10:00 15.6 C 12.77 g/m*3 15.6 C 0 km/h
1439 27-05-2014 01:15:00 15.6 C 12.77 g/m*3 15.6 C 0 km/h
1440 27-05-2014 01:20:00 15.4 C 12.61 g/m*3 15.4 C 0 km/h
1441 27-05-2014 01:25:00 15.3 C 12.41 g/m*3 15.3 C 0 km/h
1442 27-05-2014 01:30:00 15.2 C 12.33 g/m*3 15.2 C 0 km/h
1443 27-05-2014 01:35:00 15.2 C 12.46 g/m*3 15.2 C 0 km/h
1444 27-05-2014 01:40:00 15.1 C 12.39 g/m*3 15.1 C 0 km/h
1445 27-05-2014 01:45:00 15.1 C 12.39 g/m*3 15.1 C 0 km/h
1446 27-05-2014 01:50:00 15 C 12.31 g/m*3 15 C 0 km/h
1447 27-05-2014 01:55:00 14.9 C 12.24 g/m*3 14.9 C 0 km/h
1448 27-05-2014 02:00:00 14.9 C 12.24 g/m*3 14.9 C 0 km/h
1449 27-05-2014 02:05:00 14.9 C 12.24 g/m*3 14.9 C 0 km/h
1450 27-05-2014 02:10:00 14.8 C 12.16 g/m*3 14.8 C 0 km/h
Sensor: Nr:Datum:Temp:Abs-Feuchte:Windchill:Wind:
Aussen-T/F 1451 27-05-2014 02:15:00 14.8 C 12.16 g/m*3 14.8 C 0 km/h
1452 27-05-2014 02:20:00 14.8 C 12.16 g/m*3 14.8 C 0 km/h
1453 27-05-2014 02:25:00 14.8 C 12.16 g/m*3 14.8 C 0 km/h
1454 27-05-2014 02:30:00 14.8 C 12.16 g/m*3 14.8 C 0 km/h
1455 27-05-2014 02:35:00 14.8 C 12.29 g/m*3 14.8 C 0 km/h
1456 27-05-2014 02:40:00 14.8 C 12.29 g/m*3 14.8 C 0 km/h
1457 27-05-2014 02:45:00 14.8 C 12.29 g/m*3 14.8 C 0 km/h
1458 27-05-2014 02:50:00 14.8 C 12.29 g/m*3 14.8 C 0 km/h
1459 27-05-2014 02:55:00 14.8 C 12.29 g/m*3 14.8 C 0 km/h
1460 27-05-2014 03:00:00 14.8 C 12.29 g/m*3 14.8 C 0 km/h
1461 27-05-2014 03:05:00 14.8 C 12.16 g/m*3 14.8 C 0 km/h
1462 27-05-2014 03:10:00 14.8 C 12.16 g/m*3 14.8 C 0 km/h
1463 27-05-2014 03:15:00 14.8 C 12.29 g/m*3 14.8 C 0 km/h
1464 27-05-2014 03:20:00 14.8 C 12.29 g/m*3 14.8 C 0 km/h
1465 27-05-2014 03:25:00 14.7 C 12.21 g/m*3 14.7 C 0 km/h
1466 27-05-2014 03:30:00 14.7 C 12.21 g/m*3 14.7 C 0 km/h
1467 27-05-2014 03:35:00 14.7 C 12.21 g/m*3 14.7 C 0 km/h
1468 27-05-2014 03:40:00 14.7 C 12.21 g/m*3 14.7 C 0 km/h
1469 27-05-2014 03:45:00 14.7 C 12.21 g/m*3 14.7 C 0 km/h
1470 27-05-2014 03:50:00 14.7 C 12.21 g/m*3 14.7 C 0 km/h
1471 27-05-2014 03:55:00 14.7 C 12.21 g/m*3 14.7 C 0 km/h
1472 27-05-2014 04:00:00 14.7 C 12.21 g/m*3 14.7 C 0 km/h
1473 27-05-2014 04:05:00 14.7 C 12.21 g/m*3 14.7 C 0 km/h
1474 27-05-2014 04:10:00 14.7 C 12.21 g/m*3 14.7 C 0 km/h
1475 27-05-2014 04:15:00 14.7 C 12.21 g/m*3 14.7 C 0 km/h
Sensor: Nr:Datum:Temp:Abs-Feuchte:Windchill:Wind:
Aussen-T/F 1476 27-05-2014 04:20:00 14.7 C 12.21 g/m*3 14.7 C 0 km/h
1477 27-05-2014 04:25:00 14.7 C 12.21 g/m*3 14.7 C 0 km/h
1478 27-05-2014 04:30:00 14.7 C 12.21 g/m*3 14.7 C 0 km/h
1479 27-05-2014 04:35:00 14.7 C 12.21 g/m*3 14.7 C 0 km/h
1480 27-05-2014 04:40:00 14.7 C 12.21 g/m*3 14.7 C 0 km/h
1481 27-05-2014 04:45:00 14.7 C 12.21 g/m*3 14.7 C 0 km/h
1482 27-05-2014 04:50:00 14.6 C 12.14 g/m*3 14.6 C 0 km/h
1483 27-05-2014 04:55:00 14.6 C 12.14 g/m*3 14.6 C 0 km/h
1484 27-05-2014 05:00:00 14.6 C 12.14 g/m*3 14.6 C 0 km/h
1485 27-05-2014 05:05:00 14.6 C 12.14 g/m*3 14.6 C 0 km/h
1486 27-05-2014 05:10:00 14.5 C 12.06 g/m*3 14.5 C 0 km/h
1487 27-05-2014 05:15:00 14.5 C 12.06 g/m*3 14.5 C 0 km/h
1488 27-05-2014 05:20:00 14.5 C 12.06 g/m*3 14.5 C 0 km/h
1489 27-05-2014 05:25:00 14.5 C 12.06 g/m*3 14.5 C 0 km/h
1490 27-05-2014 05:30:00 14.4 C 11.99 g/m*3 14.4 C 0 km/h
1491 27-05-2014 05:35:00 14.4 C 11.99 g/m*3 14.4 C 0 km/h
1492 27-05-2014 05:40:00 14.3 C 11.92 g/m*3 14.3 C 0 km/h
1493 27-05-2014 05:45:00 14.3 C 11.92 g/m*3 14.3 C 0 km/h
1494 27-05-2014 05:50:00 14.3 C 11.92 g/m*3 14.3 C 0 km/h
1495 27-05-2014 05:55:00 14.3 C 11.92 g/m*3 14.3 C 0 km/h
1496 27-05-2014 06:00:00 14.3 C 11.92 g/m*3 14.3 C 0 km/h
1497 27-05-2014 06:05:00 14.3 C 11.92 g/m*3 14.3 C 0 km/h
1498 27-05-2014 06:10:00 14.4 C 11.99 g/m*3 14.4 C 0 km/h
1499 27-05-2014 06:15:00 14.4 C 11.99 g/m*3 14.4 C 0 km/h
1500 27-05-2014 06:20:00 14.4 C 11.99 g/m*3 14.4 C 0 km/h
Sensor: Nr:Datum:Temp:Abs-Feuchte:Windchill:Wind:
Aussen-T/F 1501 27-05-2014 06:25:00 14.4 C 11.99 g/m*3 14.4 C 0 km/h
1502 27-05-2014 06:30:00 14.4 C 11.99 g/m*3 14.4 C 0 km/h
1503 27-05-2014 06:35:00 14.5 C 12.06 g/m*3 14.5 C 0 km/h
1504 27-05-2014 06:40:00 14.6 C 12.14 g/m*3 14.6 C 0 km/h
1505 27-05-2014 06:45:00 14.6 C 12.14 g/m*3 14.6 C 0 km/h
1506 27-05-2014 06:50:00 14.6 C 12.14 g/m*3 14.6 C 0 km/h
1507 27-05-2014 06:55:00 14.7 C 12.34 g/m*3 14.7 C 0 km/h
1508 27-05-2014 07:00:00 14.7 C 12.34 g/m*3 14.7 C 0 km/h
1509 27-05-2014 07:05:00 14.7 C 12.34 g/m*3 14.7 C 0 km/h
1510 27-05-2014 07:10:00 14.7 C 12.34 g/m*3 14.7 C 1.6 km/h
1511 27-05-2014 07:15:00 14.8 C 12.41 g/m*3 14.8 C 1.6 km/h
1512 27-05-2014 07:20:00 14.8 C 12.41 g/m*3 14.8 C 0 km/h
1513 27-05-2014 07:25:00 14.9 C 12.49 g/m*3 14.9 C 3.2 km/h
1514 27-05-2014 07:30:00 14.9 C 12.49 g/m*3 14.9 C 0 km/h
1515 27-05-2014 07:35:00 14.9 C 12.49 g/m*3 14.9 C 1.6 km/h
1516 27-05-2014 07:40:00 15 C 12.57 g/m*3 15 C 3.2 km/h
1517 27-05-2014 07:45:00 15 C 12.57 g/m*3 15 C 1.6 km/h
1518 27-05-2014 07:50:00 15 C 12.57 g/m*3 15 C 3.2 km/h
1519 27-05-2014 07:55:00 15.1 C 12.64 g/m*3 15.1 C 3.2 km/h
1520 27-05-2014 08:00:00 15 C 12.57 g/m*3 15 C 1.6 km/h
1521 27-05-2014 08:05:00 14.9 C 12.49 g/m*3 14.9 C 1.6 km/h
1522 27-05-2014 08:10:00 14.9 C 12.36 g/m*3 14.9 C 0 km/h
1523 27-05-2014 08:15:00 14.9 C 12.36 g/m*3 14.9 C 1.6 km/h
1524 27-05-2014 08:20:00 15 C 12.44 g/m*3 15 C 1.6 km/h
1525 27-05-2014 08:25:00 14.9 C 12.36 g/m*3 14.9 C 8.1 km/h
Sensor: Nr:Datum:Temp:Abs-Feuchte:Windchill:Wind:
Aussen-T/F 1526 27-05-2014 08:30:00 14.9 C 12.36 g/m*3 14.9 C 1.6 km/h
1527 27-05-2014 08:35:00 15 C 12.44 g/m*3 15 C 0 km/h
1528 27-05-2014 08:40:00 15.1 C 12.51 g/m*3 15.1 C 1.6 km/h
1529 27-05-2014 08:45:00 15 C 12.44 g/m*3 15 C 1.6 km/h
1530 27-05-2014 08:50:00 15 C 12.44 g/m*3 15 C 0 km/h
1531 27-05-2014 08:55:00 14.9 C 12.36 g/m*3 14.9 C 8.1 km/h
1532 27-05-2014 09:00:00 14.9 C 12.36 g/m*3 14.9 C 0 km/h
1533 27-05-2014 09:05:00 14.8 C 12.29 g/m*3 14.8 C 1.6 km/h
1534 27-05-2014 09:10:00 14.8 C 12.29 g/m*3 14.8 C 4.8 km/h
1535 27-05-2014 09:15:00 14.8 C 12.29 g/m*3 14.8 C 6.4 km/h
1536 27-05-2014 09:20:00 14.7 C 12.09 g/m*3 14.7 C 6.4 km/h
1537 27-05-2014 09:25:00 14.7 C 12.09 g/m*3 14.7 C 3.2 km/h
1538 27-05-2014 09:30:00 14.7 C 12.09 g/m*3 14.7 C 8.1 km/h
1539 27-05-2014 09:35:00 14.7 C 12.09 g/m*3 14.7 C 8.1 km/h
1540 27-05-2014 09:40:00 14.7 C 12.09 g/m*3 14.7 C 9.7 km/h
1541 27-05-2014 09:45:00 14.7 C 12.09 g/m*3 14.7 C 8.1 km/h
1542 27-05-2014 09:50:00 14.8 C 12.16 g/m*3 14.8 C 3.2 km/h
1543 27-05-2014 09:55:00 14.8 C 12.16 g/m*3 14.8 C 3.2 km/h
1544 27-05-2014 10:00:00 14.9 C 12.24 g/m*3 14.9 C 0 km/h
1545 27-05-2014 10:05:00 14.8 C 12.03 g/m*3 14.8 C 3.2 km/h
1546 27-05-2014 10:10:00 14.8 C 12.03 g/m*3 14.8 C 1.6 km/h
1547 27-05-2014 10:15:00 14.8 C 12.03 g/m*3 14.8 C 9.7 km/h
1548 27-05-2014 10:20:00 14.8 C 12.03 g/m*3 14.8 C 6.4 km/h
1549 27-05-2014 10:25:00 14.8 C 12.03 g/m*3 14.8 C 1.6 km/h
1550 27-05-2014 10:30:00 14.8 C 12.03 g/m*3 14.8 C 6.4 km/h
Sensor: Nr:Datum:Temp:Abs-Feuchte:Windchill:Wind:
Aussen-T/F 1551 27-05-2014 10:35:00 14.9 C 12.11 g/m*3 14.9 C 4.8 km/h
1552 27-05-2014 10:40:00 14.9 C 12.11 g/m*3 14.9 C 6.4 km/h
1553 27-05-2014 10:45:00 15 C 12.18 g/m*3 15 C 4.8 km/h
1554 27-05-2014 10:50:00 15.1 C 12.26 g/m*3 15.1 C 4.8 km/h
1555 27-05-2014 10:55:00 15.2 C 12.33 g/m*3 15.2 C 4.8 km/h
1556 27-05-2014 11:00:00 15.3 C 12.41 g/m*3 15.3 C 4.8 km/h
1557 27-05-2014 11:05:00 15.4 C 12.48 g/m*3 15.4 C 1.6 km/h
1558 27-05-2014 11:10:00 15.4 C 12.48 g/m*3 15.4 C 1.6 km/h
1559 27-05-2014 11:15:00 15.4 C 12.35 g/m*3 15.4 C 3.2 km/h
1560 27-05-2014 11:20:00 15.4 C 12.35 g/m*3 15.4 C 1.6 km/h
1561 27-05-2014 11:25:00 15.4 C 12.22 g/m*3 15.4 C 3.2 km/h
1562 27-05-2014 11:30:00 15.4 C 12.22 g/m*3 15.4 C 1.6 km/h
1563 27-05-2014 11:35:00 15.4 C 12.35 g/m*3 15.4 C 0 km/h
1564 27-05-2014 11:40:00 15.4 C 12.35 g/m*3 15.4 C 8.1 km/h
1565 27-05-2014 11:45:00 15.4 C 12.35 g/m*3 15.4 C 1.6 km/h
1566 27-05-2014 11:50:00 15.3 C 12.28 g/m*3 15.3 C 3.2 km/h
1567 27-05-2014 11:55:00 15.2 C 12.2 g/m*3 15.2 C 3.2 km/h
1568 27-05-2014 12:00:00 15.2 C 12.2 g/m*3 15.2 C 9.7 km/h
1569 27-05-2014 12:05:00 15.2 C 12.07 g/m*3 15.2 C 6.4 km/h
1570 27-05-2014 12:10:00 15.2 C 12.2 g/m*3 15.2 C 3.2 km/h
1571 27-05-2014 12:15:00 15.2 C 12.2 g/m*3 15.2 C 3.2 km/h
1572 27-05-2014 12:20:00 15.3 C 12.14 g/m*3 15.3 C 6.4 km/h
1573 27-05-2014 12:25:00 15.4 C 12.22 g/m*3 15.4 C 4.8 km/h
1574 27-05-2014 12:30:00 15.6 C 12.23 g/m*3 15.6 C 6.4 km/h
1575 27-05-2014 12:35:00 15.7 C 12.18 g/m*3 15.7 C 12.9 km/h
Sensor: Nr:Datum:Temp:Abs-Feuchte:Windchill:Wind:
Aussen-T/F 1576 27-05-2014 12:40:00 15.8 C 12.25 g/m*3 15.8 C 4.8 km/h
1577 27-05-2014 12:45:00 15.9 C 12.32 g/m*3 15.9 C 14.5 km/h
1578 27-05-2014 12:50:00 16.1 C 12.47 g/m*3 16.1 C 4.8 km/h
1579 27-05-2014 12:55:00 16.3 C 12.49 g/m*3 16.3 C 3.2 km/h
1580 27-05-2014 13:00:00 16.6 C 12.71 g/m*3 16.6 C 3.2 km/h
1581 27-05-2014 13:05:00 16.9 C 13.09 g/m*3 16.9 C 9.7 km/h
1582 27-05-2014 13:10:00 17.2 C 13.18 g/m*3 17.2 C 6.4 km/h
1583 27-05-2014 13:15:00 17.3 C 12.82 g/m*3 17.3 C 6.4 km/h
1584 27-05-2014 13:20:00 17.5 C 12.97 g/m*3 17.5 C 14.5 km/h
1585 27-05-2014 13:25:00 17.6 C 12.6 g/m*3 17.6 C 11.3 km/h
1586 27-05-2014 13:30:00 17.6 C 12.75 g/m*3 17.6 C 4.8 km/h
1587 27-05-2014 13:35:00 17.6 C 12.75 g/m*3 17.6 C 8.1 km/h
1588 27-05-2014 13:40:00 17.6 C 12.75 g/m*3 17.6 C 4.8 km/h
1589 27-05-2014 13:45:00 17.6 C 12.75 g/m*3 17.6 C 1.6 km/h
1590 27-05-2014 14:10:00 18.4 C 15.73 g/m*3 18.4 C 9.7 km/h
1591 27-05-2014 14:15:00 18.4 C 15.73 g/m*3 18.4 C 9.7 km/h
1592 27-05-2014 15:30:00 16.5 C 11.8 g/m*3 16.5 C 6.4 km/h
1593 27-05-2014 15:35:00 16.5 C 11.8 g/m*3 16.5 C 3.2 km/h
1594 27-05-2014 15:40:00 16.3 C 11.65 g/m*3 16.3 C 12.9 km/h
1595 27-05-2014 15:45:00 16.3 C 11.65 g/m*3 16.3 C 3.2 km/h
1596 27-05-2014 15:50:00 16.3 C 11.65 g/m*3 16.3 C 1.6 km/h
1597 27-05-2014 15:55:00 16.3 C 11.65 g/m*3 16.3 C 3.2 km/h
1598 27-05-2014 16:00:00 16.2 C 11.58 g/m*3 16.2 C 6.4 km/h
1599 27-05-2014 16:05:00 16.2 C 11.58 g/m*3 16.2 C 3.2 km/h
1600 27-05-2014 16:10:00 16.2 C 11.58 g/m*3 16.2 C 1.6 km/h
Sensor: Nr:Datum:Temp:Abs-Feuchte:Windchill:Wind:
Aussen-T/F 1601 27-05-2014 16:15:00 16.2 C 11.86 g/m*3 16.2 C 1.6 km/h
1602 27-05-2014 16:20:00 16.2 C 11.86 g/m*3 16.2 C 1.6 km/h
1603 27-05-2014 17:00:00 15.4 C 12.22 g/m*3 15.4 C 3.2 km/h
1604 27-05-2014 17:05:00 15.3 C 12.28 g/m*3 15.3 C 1.6 km/h
1605 27-05-2014 17:10:00 15.3 C 12.28 g/m*3 15.3 C 1.6 km/h
1606 27-05-2014 17:15:00 15.3 C 12.28 g/m*3 15.3 C 1.6 km/h
1607 27-05-2014 17:35:00 15.3 C 12.41 g/m*3 15.3 C 3.2 km/h
1608 27-05-2014 17:40:00 15.3 C 12.28 g/m*3 15.3 C 1.6 km/h
1609 27-05-2014 17:45:00 15.3 C 12.28 g/m*3 15.3 C 3.2 km/h
1610 27-05-2014 18:10:00 16.4 C 13.96 g/m*3 16.4 C 11.3 km/h
1611 27-05-2014 18:15:00 16.4 C 13.96 g/m*3 16.4 C 4.8 km/h
1612 27-05-2014 18:20:00 16.4 C 13.96 g/m*3 16.4 C 8.1 km/h
1613 27-05-2014 18:25:00 16.4 C 13.96 g/m*3 16.4 C 4.8 km/h
1614 27-05-2014 19:35:00 15.3 C 13.06 g/m*3 15.3 C 0 km/h
1615 27-05-2014 19:40:00 15.4 C 12.61 g/m*3 15.4 C 0 km/h
1616 27-05-2014 19:45:00 15.4 C 12.61 g/m*3 15.4 C 0 km/h
1617 27-05-2014 19:50:00 15.4 C 12.61 g/m*3 15.4 C 0 km/h
1618 27-05-2014 19:55:00 15.4 C 12.61 g/m*3 15.4 C 0 km/h
1619 27-05-2014 20:00:00 15.4 C 12.61 g/m*3 15.4 C 0 km/h
1620 27-05-2014 20:05:00 15.4 C 12.61 g/m*3 15.4 C 0 km/h
1621 27-05-2014 20:10:00 15.3 C 12.54 g/m*3 15.3 C 0 km/h
1622 27-05-2014 20:15:00 15.3 C 12.54 g/m*3 15.3 C 0 km/h
1623 27-05-2014 20:20:00 15.3 C 12.54 g/m*3 15.3 C 0 km/h
1624 27-05-2014 20:25:00 15.2 C 12.46 g/m*3 15.2 C 1.6 km/h
1625 27-05-2014 20:30:00 15.1 C 12.39 g/m*3 15.1 C 0 km/h
Sensor: Nr:Datum:Temp:Abs-Feuchte:Windchill:Wind:
Aussen-T/F 1626 27-05-2014 20:35:00 14.9 C 12.11 g/m*3 14.9 C 4.8 km/h
1627 27-05-2014 20:40:00 14.8 C 11.78 g/m*3 14.8 C 6.4 km/h
1628 27-05-2014 20:45:00 14.8 C 11.65 g/m*3 14.8 C 3.2 km/h
1629 27-05-2014 20:50:00 14.8 C 11.53 g/m*3 14.8 C 3.2 km/h
1630 27-05-2014 20:55:00 14.8 C 11.65 g/m*3 14.8 C 3.2 km/h
1631 27-05-2014 21:00:00 14.8 C 11.65 g/m*3 14.8 C 1.6 km/h
1632 27-05-2014 21:05:00 14.6 C 11.51 g/m*3 14.6 C 1.6 km/h
1633 27-05-2014 21:10:00 14.6 C 11.51 g/m*3 14.6 C 3.2 km/h
1634 27-05-2014 21:15:00 14.5 C 11.32 g/m*3 14.5 C 3.2 km/h
1635 27-05-2014 21:20:00 14.5 C 11.32 g/m*3 14.5 C 4.8 km/h
1636 27-05-2014 21:25:00 14.6 C 11.26 g/m*3 14.6 C 1.6 km/h
1637 27-05-2014 21:30:00 14.6 C 11.51 g/m*3 14.6 C 1.6 km/h
1638 27-05-2014 21:35:00 14.4 C 11.37 g/m*3 14.4 C 1.6 km/h
1639 27-05-2014 21:40:00 14.4 C 11.25 g/m*3 14.4 C 6.4 km/h
1640 27-05-2014 21:45:00 14.4 C 11.25 g/m*3 14.4 C 8.1 km/h
1641 27-05-2014 21:50:00 14.4 C 11.25 g/m*3 14.4 C 6.4 km/h
1642 28-05-2014 10:35:00 15.6 C 13.3 g/m*3 15.6 C 9.7 km/h
1643 28-05-2014 10:40:00 15.6 C 13.3 g/m*3 15.6 C 8.1 km/h
1644 28-05-2014 10:45:00 15.6 C 13.3 g/m*3 15.6 C 6.4 km/h
1645 28-05-2014 10:50:00 15.6 C 13.3 g/m*3 15.6 C 3.2 km/h
1646 28-05-2014 10:55:00 15.6 C 13.3 g/m*3 15.6 C 6.4 km/h
1647 28-05-2014 11:00:00 15.6 C 13.3 g/m*3 15.6 C 9.7 km/h
1648 28-05-2014 11:05:00 15.6 C 13.3 g/m*3 15.6 C 6.4 km/h
1649 28-05-2014 17:30:00 16.7 C 10.37 g/m*3 16.7 C 3.2 km/h
1650 28-05-2014 17:35:00 16.4 C 11.58 g/m*3 16.4 C 0 km/h
Sensor: Nr:Datum:Temp:Abs-Feuchte:Windchill:Wind:
Aussen-T/F 1651 28-05-2014 17:40:00 16.3 C 11.65 g/m*3 16.3 C 0 km/h
1652 28-05-2014 17:45:00 16.2 C 11.31 g/m*3 16.2 C 0 km/h
1653 28-05-2014 17:50:00 16.2 C 11.17 g/m*3 16.2 C 0 km/h
1654 28-05-2014 17:55:00 16.3 C 11.65 g/m*3 16.3 C 0 km/h
1655 28-05-2014 18:00:00 16.4 C 11.58 g/m*3 16.4 C 0 km/h
1656 28-05-2014 18:05:00 16.6 C 11.44 g/m*3 16.6 C 0 km/h
1657 28-05-2014 18:10:00 16.8 C 11.29 g/m*3 16.8 C 0 km/h
1658 28-05-2014 18:15:00 17.1 C 11.21 g/m*3 17.1 C 0 km/h
1659 28-05-2014 18:20:00 17.2 C 11.57 g/m*3 17.2 C 0 km/h
1660 28-05-2014 18:25:00 17.2 C 11.86 g/m*3 17.2 C 0 km/h
1661 28-05-2014 18:30:00 17.1 C 11.06 g/m*3 17.1 C 0 km/h
1662 28-05-2014 18:35:00 17.1 C 11.79 g/m*3 17.1 C 0 km/h
1663 28-05-2014 18:40:00 16.9 C 11.65 g/m*3 16.9 C 0 km/h
1664 28-05-2014 18:45:00 16.7 C 11.94 g/m*3 16.7 C 1.6 km/h
1665 28-05-2014 18:50:00 16.4 C 11.86 g/m*3 16.4 C 1.6 km/h
1666 28-05-2014 18:55:00 16.3 C 11.79 g/m*3 16.3 C 0 km/h
1667 28-05-2014 19:00:00 16.3 C 11.79 g/m*3 16.3 C 0 km/h
1668 28-05-2014 19:05:00 16.3 C 11.65 g/m*3 16.3 C 0 km/h
1669 28-05-2014 19:10:00 16.2 C 11.72 g/m*3 16.2 C 0 km/h
1670 28-05-2014 19:15:00 16.1 C 11.79 g/m*3 16.1 C 1.6 km/h
1671 28-05-2014 19:20:00 16.1 C 11.65 g/m*3 16.1 C 0 km/h
1672 28-05-2014 19:25:00 16.1 C 11.65 g/m*3 16.1 C 0 km/h
1673 28-05-2014 19:30:00 16.2 C 11.86 g/m*3 16.2 C 0 km/h
1674 28-05-2014 19:35:00 16.2 C 11.45 g/m*3 16.2 C 0 km/h
1675 28-05-2014 19:40:00 16.2 C 11.58 g/m*3 16.2 C 0 km/h
Sensor: Nr:Datum:Temp:Abs-Feuchte:Windchill:Wind:
Aussen-T/F 1676 28-05-2014 19:45:00 16.1 C 11.51 g/m*3 16.1 C 1.6 km/h
1677 28-05-2014 19:50:00 16 C 10.63 g/m*3 16 C 3.2 km/h
1678 28-05-2014 19:55:00 16.1 C 11.38 g/m*3 16.1 C 0 km/h
1679 28-05-2014 20:00:00 16.1 C 11.65 g/m*3 16.1 C 3.2 km/h
1680 28-05-2014 20:05:00 15.9 C 11.38 g/m*3 15.9 C 0 km/h
1681 28-05-2014 20:10:00 15.7 C 11.37 g/m*3 15.7 C 1.6 km/h
1682 28-05-2014 20:15:00 15.6 C 11.44 g/m*3 15.6 C 0 km/h
1683 28-05-2014 20:20:00 15.3 C 11.36 g/m*3 15.3 C 0 km/h
1684 28-05-2014 20:25:00 15.2 C 11.16 g/m*3 15.2 C 1.6 km/h
1685 28-05-2014 20:30:00 15.2 C 11.42 g/m*3 15.2 C 1.6 km/h
1686 28-05-2014 20:35:00 15.2 C 11.42 g/m*3 15.2 C 0 km/h
1687 28-05-2014 20:40:00 15.1 C 11.48 g/m*3 15.1 C 0 km/h
1688 28-05-2014 20:45:00 14.9 C 11.34 g/m*3 14.9 C 0 km/h
1689 28-05-2014 20:50:00 14.7 C 11.21 g/m*3 14.7 C 0 km/h
1690 28-05-2014 20:55:00 14.5 C 11.07 g/m*3 14.5 C 0 km/h
1691 28-05-2014 21:00:00 14.3 C 10.93 g/m*3 14.3 C 0 km/h
1692 28-05-2014 21:05:00 14.1 C 10.8 g/m*3 14.1 C 0 km/h
1693 28-05-2014 21:10:00 13.9 C 10.67 g/m*3 13.9 C 0 km/h
1694 28-05-2014 21:15:00 13.7 C 10.54 g/m*3 13.7 C 1.6 km/h
1695 28-05-2014 21:20:00 13.6 C 10.59 g/m*3 13.6 C 0 km/h
1696 28-05-2014 21:25:00 13.4 C 10.46 g/m*3 13.4 C 0 km/h
1697 28-05-2014 21:30:00 13.3 C 10.51 g/m*3 13.3 C 1.6 km/h
1698 28-05-2014 21:35:00 13.2 C 10.33 g/m*3 13.2 C 1.6 km/h
1699 28-05-2014 21:40:00 13.1 C 10.27 g/m*3 13.1 C 0 km/h
1700 28-05-2014 21:45:00 13.1 C 10.27 g/m*3 13.1 C 0 km/h
Sensor: Nr:Datum:Temp:Abs-Feuchte:Windchill:Wind:
Aussen-T/F 1701 28-05-2014 21:50:00 13 C 10.32 g/m*3 13 C 0 km/h
1702 28-05-2014 21:55:00 12.9 C 10.26 g/m*3 12.9 C 0 km/h
1703 28-05-2014 22:00:00 12.9 C 10.37 g/m*3 12.9 C 0 km/h
1704 28-05-2014 22:05:00 12.8 C 10.3 g/m*3 12.8 C 0 km/h
1705 28-05-2014 22:10:00 12.8 C 10.3 g/m*3 12.8 C 0 km/h
1706 28-05-2014 22:15:00 12.7 C 10.24 g/m*3 12.7 C 0 km/h
1707 28-05-2014 22:20:00 12.6 C 10.18 g/m*3 12.6 C 0 km/h
1708 28-05-2014 22:25:00 12.6 C 10.18 g/m*3 12.6 C 0 km/h
1709 28-05-2014 22:30:00 12.5 C 10.11 g/m*3 12.5 C 0 km/h
1710 28-05-2014 22:35:00 12.4 C 10.05 g/m*3 12.4 C 0 km/h
1711 28-05-2014 22:40:00 12.4 C 10.16 g/m*3 12.4 C 0 km/h
1712 28-05-2014 22:45:00 12.3 C 10.1 g/m*3 12.3 C 0 km/h
1713 28-05-2014 22:50:00 12.3 C 9.99 g/m*3 12.3 C 0 km/h
1714 28-05-2014 22:55:00 12.2 C 9.93 g/m*3 12.2 C 0 km/h
1715 28-05-2014 23:00:00 12.1 C 9.87 g/m*3 12.1 C 0 km/h
1716 28-05-2014 23:05:00 12.1 C 9.87 g/m*3 12.1 C 0 km/h
1717 28-05-2014 23:10:00 11.9 C 9.74 g/m*3 11.9 C 0 km/h
1718 28-05-2014 23:15:00 11.9 C 9.85 g/m*3 11.9 C 0 km/h
1719 28-05-2014 23:20:00 11.8 C 9.79 g/m*3 11.8 C 0 km/h
1720 28-05-2014 23:25:00 11.8 C 9.79 g/m*3 11.8 C 0 km/h
1721 28-05-2014 23:30:00 11.7 C 9.73 g/m*3 11.7 C 0 km/h
1722 28-05-2014 23:35:00 11.7 C 9.83 g/m*3 11.7 C 0 km/h
1723 28-05-2014 23:40:00 11.6 C 9.67 g/m*3 11.6 C 0 km/h
1724 28-05-2014 23:45:00 11.5 C 9.71 g/m*3 11.5 C 0 km/h
1725 28-05-2014 23:50:00 11.4 C 9.65 g/m*3 11.4 C 0 km/h
Sensor: Nr:Datum:Temp:Abs-Feuchte:Windchill:Wind:
Aussen-T/F 1726 28-05-2014 23:55:00 11.4 C 9.65 g/m*3 11.4 C 0 km/h
1727 29-05-2014 00:00:00 11.4 C 9.65 g/m*3 11.4 C 0 km/h
1728 29-05-2014 00:05:00 11.4 C 9.65 g/m*3 11.4 C 0 km/h
1729 29-05-2014 00:10:00 11.3 C 9.59 g/m*3 11.3 C 0 km/h
1730 29-05-2014 00:15:00 11.2 C 9.53 g/m*3 11.2 C 0 km/h
1731 29-05-2014 00:20:00 11.1 C 9.47 g/m*3 11.1 C 0 km/h
1732 29-05-2014 00:25:00 11.1 C 9.57 g/m*3 11.1 C 0 km/h
1733 29-05-2014 00:30:00 11.1 C 9.57 g/m*3 11.1 C 0 km/h
1734 29-05-2014 00:35:00 11.1 C 9.57 g/m*3 11.1 C 0 km/h
1735 29-05-2014 00:40:00 11.1 C 9.57 g/m*3 11.1 C 0 km/h
1736 29-05-2014 00:45:00 11.1 C 9.57 g/m*3 11.1 C 0 km/h
1737 29-05-2014 00:50:00 11.1 C 9.57 g/m*3 11.1 C 0 km/h
1738 29-05-2014 00:55:00 11 C 9.51 g/m*3 11 C 0 km/h
1739 29-05-2014 01:00:00 10.9 C 9.45 g/m*3 10.9 C 0 km/h
1740 29-05-2014 01:05:00 10.9 C 9.45 g/m*3 10.9 C 0 km/h
1741 29-05-2014 01:10:00 10.8 C 9.39 g/m*3 10.8 C 0 km/h
1742 29-05-2014 01:15:00 10.8 C 9.39 g/m*3 10.8 C 0 km/h
1743 29-05-2014 01:20:00 10.7 C 9.33 g/m*3 10.7 C 0 km/h
1744 29-05-2014 01:25:00 10.7 C 9.33 g/m*3 10.7 C 1.6 km/h
1745 29-05-2014 01:30:00 10.6 C 9.27 g/m*3 10.6 C 0 km/h
1746 29-05-2014 01:35:00 10.6 C 9.27 g/m*3 10.6 C 0 km/h
1747 29-05-2014 01:40:00 10.5 C 9.21 g/m*3 10.5 C 0 km/h
1748 29-05-2014 01:45:00 10.4 C 9.25 g/m*3 10.4 C 0 km/h
1749 29-05-2014 01:50:00 10.4 C 9.16 g/m*3 10.4 C 0 km/h
1750 29-05-2014 01:55:00 10.3 C 9.19 g/m*3 10.3 C 1.6 km/h
Sensor: Nr:Datum:Temp:Abs-Feuchte:Windchill:Wind:
Aussen-T/F 1751 29-05-2014 02:00:00 10.3 C 9.19 g/m*3 10.3 C 1.6 km/h
1752 29-05-2014 02:05:00 10.3 C 9.19 g/m*3 10.3 C 0 km/h
1753 29-05-2014 02:10:00 10.3 C 9.19 g/m*3 10.3 C 0 km/h
1754 29-05-2014 02:15:00 10.2 C 9.14 g/m*3 10.2 C 0 km/h
1755 29-05-2014 02:20:00 10.2 C 9.14 g/m*3 10.2 C 0 km/h
1756 29-05-2014 02:25:00 10.1 C 9.08 g/m*3 10.1 C 0 km/h
1757 29-05-2014 02:30:00 10.2 C 9.14 g/m*3 10.2 C 0 km/h
1758 29-05-2014 02:35:00 10.1 C 9.08 g/m*3 10.1 C 0 km/h
1759 29-05-2014 02:40:00 10.1 C 9.08 g/m*3 10.1 C 0 km/h
1760 29-05-2014 02:45:00 10.1 C 9.08 g/m*3 10.1 C 0 km/h
1761 29-05-2014 02:50:00 9.9 C 8.96 g/m*3 9.9 C 0 km/h
1762 29-05-2014 02:55:00 9.9 C 8.96 g/m*3 9.9 C 0 km/h
1763 29-05-2014 03:00:00 9.9 C 8.96 g/m*3 9.9 C 0 km/h
1764 29-05-2014 03:05:00 9.9 C 8.96 g/m*3 9.9 C 0 km/h
1765 29-05-2014 03:10:00 9.9 C 8.96 g/m*3 9.9 C 0 km/h
1766 29-05-2014 03:15:00 9.9 C 8.96 g/m*3 9.9 C 0 km/h
1767 29-05-2014 03:20:00 9.9 C 8.96 g/m*3 9.9 C 0 km/h
1768 29-05-2014 03:25:00 9.9 C 8.96 g/m*3 9.9 C 0 km/h
1769 29-05-2014 03:30:00 9.9 C 8.96 g/m*3 9.9 C 0 km/h
1770 29-05-2014 03:35:00 9.9 C 8.96 g/m*3 9.9 C 0 km/h
1771 29-05-2014 03:40:00 9.8 C 8.91 g/m*3 9.8 C 0 km/h
1772 29-05-2014 03:45:00 9.8 C 8.91 g/m*3 9.8 C 0 km/h
1773 29-05-2014 03:50:00 9.7 C 8.85 g/m*3 9.7 C 0 km/h
1774 29-05-2014 03:55:00 9.6 C 8.79 g/m*3 9.6 C 0 km/h
1775 29-05-2014 04:00:00 9.6 C 8.79 g/m*3 9.6 C 0 km/h
Sensor: Nr:Datum:Temp:Abs-Feuchte:Windchill:Wind:
Aussen-T/F 1776 29-05-2014 04:05:00 9.6 C 8.79 g/m*3 9.6 C 0 km/h
1777 29-05-2014 04:10:00 9.5 C 8.74 g/m*3 9.5 C 0 km/h
1778 29-05-2014 04:15:00 9.6 C 8.89 g/m*3 9.6 C 0 km/h
1779 29-05-2014 04:20:00 9.7 C 8.94 g/m*3 9.7 C 0 km/h
1780 29-05-2014 04:25:00 9.8 C 9 g/m*3 9.8 C 0 km/h
1781 29-05-2014 04:30:00 9.8 C 9 g/m*3 9.8 C 3.2 km/h
1782 29-05-2014 04:35:00 9.9 C 9.06 g/m*3 9.9 C 0 km/h
1783 29-05-2014 04:40:00 9.9 C 9.06 g/m*3 9.9 C 4.8 km/h
1784 29-05-2014 04:45:00 9.9 C 9.06 g/m*3 9.9 C 0 km/h
1785 29-05-2014 04:50:00 9.8 C 8.91 g/m*3 9.8 C 1.6 km/h
1786 29-05-2014 04:55:00 9.7 C 8.94 g/m*3 9.7 C 1.6 km/h
1787 29-05-2014 05:00:00 9.7 C 8.94 g/m*3 9.7 C 1.6 km/h
1788 29-05-2014 05:05:00 9.7 C 8.85 g/m*3 9.7 C 0 km/h
1789 29-05-2014 05:10:00 9.6 C 8.79 g/m*3 9.6 C 0 km/h
1790 29-05-2014 05:15:00 9.6 C 8.79 g/m*3 9.6 C 1.6 km/h
1791 29-05-2014 05:20:00 9.6 C 8.79 g/m*3 9.6 C 0 km/h
1792 29-05-2014 05:25:00 9.6 C 8.79 g/m*3 9.6 C 0 km/h
1793 29-05-2014 05:30:00 9.4 C 8.68 g/m*3 9.4 C 0 km/h
1794 29-05-2014 05:35:00 9.4 C 8.77 g/m*3 9.4 C 0 km/h
1795 29-05-2014 05:40:00 9.4 C 8.77 g/m*3 8.28 C 8.1 km/h
1796 29-05-2014 05:45:00 9.4 C 8.77 g/m*3 9.4 C 3.2 km/h
1797 29-05-2014 05:50:00 9.4 C 8.77 g/m*3 9.4 C 4.8 km/h
1798 29-05-2014 05:55:00 9.4 C 8.77 g/m*3 9.4 C 1.6 km/h
1799 29-05-2014 06:00:00 9.5 C 8.83 g/m*3 9.5 C 4.8 km/h
1800 29-05-2014 06:05:00 9.5 C 8.83 g/m*3 9.5 C 4.8 km/h
Sensor: Nr:Datum:Temp:Abs-Feuchte:Windchill:Wind:
Aussen-T/F 1801 29-05-2014 06:10:00 9.4 C 8.77 g/m*3 9.4 C 0 km/h
1802 29-05-2014 06:15:00 9.4 C 8.77 g/m*3 9.4 C 3.2 km/h
1803 29-05-2014 06:20:00 9.4 C 8.77 g/m*3 9.4 C 4.8 km/h
1804 29-05-2014 06:25:00 9.5 C 8.83 g/m*3 8.09 C 9.7 km/h
1805 29-05-2014 06:30:00 9.5 C 8.83 g/m*3 9.5 C 1.6 km/h
1806 29-05-2014 06:35:00 9.6 C 8.89 g/m*3 9.6 C 3.2 km/h
1807 29-05-2014 06:40:00 9.6 C 8.89 g/m*3 9.6 C 4.8 km/h
1808 29-05-2014 06:45:00 9.6 C 8.89 g/m*3 9.6 C 4.8 km/h
1809 29-05-2014 06:50:00 9.6 C 8.89 g/m*3 9.6 C 3.2 km/h
1810 29-05-2014 06:55:00 9.7 C 8.94 g/m*3 9.7 C 3.2 km/h
1811 29-05-2014 07:00:00 9.6 C 8.89 g/m*3 9.6 C 4.8 km/h
1812 29-05-2014 07:05:00 9.7 C 8.94 g/m*3 9.7 C 4.8 km/h
1813 29-05-2014 07:10:00 9.7 C 8.94 g/m*3 9.7 C 3.2 km/h
1814 29-05-2014 07:15:00 9.7 C 8.94 g/m*3 9.02 C 6.4 km/h
1815 29-05-2014 07:20:00 9.7 C 8.94 g/m*3 9.02 C 6.4 km/h
1816 29-05-2014 07:25:00 9.7 C 8.94 g/m*3 9.02 C 6.4 km/h
1817 29-05-2014 07:30:00 9.7 C 8.94 g/m*3 9.02 C 6.4 km/h
1818 29-05-2014 07:35:00 9.7 C 8.94 g/m*3 8.33 C 9.7 km/h
1819 29-05-2014 07:40:00 9.7 C 8.94 g/m*3 9.02 C 6.4 km/h
1820 29-05-2014 07:45:00 9.8 C 9 g/m*3 9.14 C 6.4 km/h
1821 29-05-2014 07:50:00 9.8 C 9 g/m*3 8.75 C 8.1 km/h
1822 29-05-2014 07:55:00 9.9 C 9.06 g/m*3 8.87 C 8.1 km/h
1823 29-05-2014 08:00:00 9.9 C 9.06 g/m*3 9.9 C 3.2 km/h
1824 29-05-2014 08:05:00 10.1 C 9.17 g/m*3 10.1 C 0 km/h
1825 29-05-2014 08:10:00 10.1 C 9.17 g/m*3 10.1 C 4.8 km/h
Sensor: Nr:Datum:Temp:Abs-Feuchte:Windchill:Wind:
Aussen-T/F 1826 29-05-2014 08:15:00 10.1 C 9.17 g/m*3 10.1 C 4.8 km/h
1827 29-05-2014 08:20:00 10.3 C 9.29 g/m*3 10.3 C 4.8 km/h
1828 29-05-2014 08:25:00 10.4 C 9.35 g/m*3 10.4 C 4.8 km/h
1829 29-05-2014 08:30:00 10.4 C 9.35 g/m*3 10.4 C 4.8 km/h
1830 29-05-2014 08:35:00 10.6 C 9.47 g/m*3 10.6 C 3.2 km/h
1831 29-05-2014 08:40:00 10.7 C 9.53 g/m*3 10.7 C 3.2 km/h
1832 29-05-2014 08:45:00 10.8 C 9.59 g/m*3 10.8 C 4.8 km/h
1833 29-05-2014 08:50:00 10.9 C 9.55 g/m*3 10.9 C 4.8 km/h
1834 29-05-2014 08:55:00 10.9 C 9.55 g/m*3 10.9 C 4.8 km/h
1835 29-05-2014 09:00:00 11.1 C 9.67 g/m*3 11.1 C 3.2 km/h
1836 29-05-2014 09:05:00 11.2 C 9.73 g/m*3 11.2 C 3.2 km/h
1837 29-05-2014 09:10:00 11.2 C 9.73 g/m*3 11.2 C 4.8 km/h
1838 29-05-2014 09:15:00 11.3 C 9.69 g/m*3 11.3 C 3.2 km/h
1839 29-05-2014 09:20:00 11.5 C 9.81 g/m*3 11.5 C 1.6 km/h
1840 29-05-2014 09:25:00 11.7 C 9.94 g/m*3 11.7 C 3.2 km/h
1841 29-05-2014 09:30:00 11.8 C 10 g/m*3 11.8 C 1.6 km/h
1842 29-05-2014 09:35:00 12.1 C 10.08 g/m*3 12.1 C 3.2 km/h
1843 29-05-2014 09:40:00 12.2 C 10.14 g/m*3 12.2 C 3.2 km/h
1844 29-05-2014 09:45:00 12.3 C 10.1 g/m*3 12.3 C 3.2 km/h
1845 29-05-2014 09:50:00 12.6 C 10.29 g/m*3 12.6 C 3.2 km/h
1846 29-05-2014 09:55:00 12.8 C 10.42 g/m*3 12.8 C 4.8 km/h
1847 29-05-2014 10:00:00 12.9 C 10.48 g/m*3 12.9 C 3.2 km/h
1848 29-05-2014 10:05:00 13.2 C 10.56 g/m*3 13.2 C 1.6 km/h
1849 29-05-2014 10:10:00 13.3 C 10.51 g/m*3 13.3 C 0 km/h
1850 29-05-2014 10:15:00 13.4 C 10.58 g/m*3 13.4 C 1.6 km/h
Sensor: Nr:Datum:Temp:Abs-Feuchte:Windchill:Wind:
Aussen-T/F 1851 29-05-2014 10:20:00 13.6 C 10.71 g/m*3 13.6 C 1.6 km/h
1852 29-05-2014 10:25:00 13.8 C 10.84 g/m*3 13.8 C 3.2 km/h
1853 29-05-2014 10:30:00 14.1 C 10.92 g/m*3 14.1 C 0 km/h
1854 29-05-2014 10:35:00 14.2 C 10.99 g/m*3 14.2 C 0 km/h
1855 29-05-2014 10:40:00 14.5 C 11.07 g/m*3 14.5 C 0 km/h
1856 29-05-2014 10:45:00 14.7 C 11.21 g/m*3 14.7 C 3.2 km/h
1857 29-05-2014 10:50:00 14.9 C 11.22 g/m*3 14.9 C 1.6 km/h
1858 29-05-2014 10:55:00 15.1 C 11.22 g/m*3 15.1 C 3.2 km/h
1859 29-05-2014 11:00:00 15.2 C 11.29 g/m*3 15.2 C 1.6 km/h
1860 29-05-2014 11:05:00 15.2 C 11.03 g/m*3 15.2 C 0 km/h
1861 29-05-2014 11:10:00 15.3 C 11.1 g/m*3 15.3 C 3.2 km/h
1862 29-05-2014 11:15:00 15.4 C 11.04 g/m*3 15.4 C 4.8 km/h
1863 29-05-2014 11:20:00 15.6 C 11.17 g/m*3 15.6 C 3.2 km/h
1864 29-05-2014 11:25:00 15.7 C 11.11 g/m*3 15.7 C 1.6 km/h
1865 29-05-2014 11:30:00 15.9 C 11.51 g/m*3 15.9 C 3.2 km/h
1866 29-05-2014 11:35:00 16.2 C 11.72 g/m*3 16.2 C 0 km/h
1867 29-05-2014 11:40:00 16.3 C 11.52 g/m*3 16.3 C 3.2 km/h
1868 29-05-2014 11:45:00 16.4 C 11.31 g/m*3 16.4 C 0 km/h
1869 29-05-2014 11:50:00 16.6 C 11.44 g/m*3 16.6 C 0 km/h
1870 29-05-2014 11:55:00 16.7 C 11.51 g/m*3 16.7 C 6.4 km/h
1871 29-05-2014 12:00:00 16.9 C 11.36 g/m*3 16.9 C 6.4 km/h
1872 29-05-2014 12:05:00 17.1 C 11.5 g/m*3 17.1 C 0 km/h
1873 29-05-2014 12:10:00 17.2 C 11.72 g/m*3 17.2 C 1.6 km/h
1874 29-05-2014 12:15:00 17.3 C 11.49 g/m*3 17.3 C 8.1 km/h
1875 29-05-2014 12:20:00 17.5 C 11.78 g/m*3 17.5 C 4.8 km/h
Sensor: Nr:Datum:Temp:Abs-Feuchte:Windchill:Wind:
Aussen-T/F 1876 29-05-2014 12:25:00 17.5 C 11.33 g/m*3 17.5 C 4.8 km/h
1877 29-05-2014 12:30:00 17.8 C 11.69 g/m*3 17.8 C 1.6 km/h
1878 29-05-2014 12:35:00 17.8 C 11.38 g/m*3 17.8 C 4.8 km/h
1879 29-05-2014 12:40:00 17.8 C 11.23 g/m*3 17.8 C 4.8 km/h
1880 29-05-2014 12:45:00 17.7 C 11.01 g/m*3 17.7 C 4.8 km/h
1881 29-05-2014 12:50:00 17.7 C 11.01 g/m*3 17.7 C 9.7 km/h
1882 29-05-2014 12:55:00 17.8 C 11.54 g/m*3 17.8 C 6.4 km/h
1883 29-05-2014 13:00:00 17.9 C 11.45 g/m*3 17.9 C 8.1 km/h
1884 29-05-2014 13:05:00 18.2 C 11.35 g/m*3 18.2 C 9.7 km/h
1885 29-05-2014 13:10:00 18.4 C 11.17 g/m*3 18.4 C 8.1 km/h
1886 29-05-2014 13:15:00 18.7 C 11.21 g/m*3 18.7 C 6.4 km/h
1887 29-05-2014 13:20:00 18.9 C 11.02 g/m*3 18.9 C 8.1 km/h
1888 29-05-2014 13:25:00 19.1 C 11.31 g/m*3 19.1 C 8.1 km/h
1889 29-05-2014 13:30:00 19.3 C 11.61 g/m*3 19.3 C 8.1 km/h
1890 29-05-2014 13:35:00 19.4 C 11.35 g/m*3 19.4 C 9.7 km/h
1891 29-05-2014 13:40:00 19.2 C 11.38 g/m*3 19.2 C 11.3 km/h
1892 29-05-2014 13:45:00 19.1 C 11.31 g/m*3 19.1 C 9.7 km/h
1893 29-05-2014 13:50:00 19.1 C 11.31 g/m*3 19.1 C 11.3 km/h
1894 29-05-2014 13:55:00 19.1 C 11.31 g/m*3 19.1 C 11.3 km/h
1895 29-05-2014 14:00:00 19.2 C 11.38 g/m*3 19.2 C 9.7 km/h
1896 29-05-2014 14:05:00 19.2 C 11.05 g/m*3 19.2 C 9.7 km/h
1897 29-05-2014 14:10:00 19.1 C 11.15 g/m*3 19.1 C 4.8 km/h
1898 29-05-2014 14:15:00 19 C 11.08 g/m*3 19 C 8.1 km/h
1899 29-05-2014 14:20:00 18.9 C 11.18 g/m*3 18.9 C 8.1 km/h
1900 29-05-2014 14:25:00 18.8 C 10.95 g/m*3 18.8 C 11.3 km/h
Sensor: Nr:Datum:Temp:Abs-Feuchte:Windchill:Wind:
Aussen-T/F 1901 29-05-2014 14:30:00 18.8 C 11.11 g/m*3 18.8 C 11.3 km/h
1902 29-05-2014 14:35:00 18.8 C 11.11 g/m*3 18.8 C 12.9 km/h
1903 29-05-2014 14:40:00 18.7 C 11.05 g/m*3 18.7 C 12.9 km/h
1904 29-05-2014 14:45:00 18.5 C 11.23 g/m*3 18.5 C 6.4 km/h
1905 29-05-2014 14:50:00 18.4 C 11.17 g/m*3 18.4 C 9.7 km/h
1906 29-05-2014 14:55:00 18.4 C 11.17 g/m*3 18.4 C 11.3 km/h
1907 29-05-2014 15:00:00 18.3 C 11.26 g/m*3 18.3 C 9.7 km/h
1908 29-05-2014 15:05:00 18.2 C 11.19 g/m*3 18.2 C 8.1 km/h
1909 29-05-2014 15:10:00 18.2 C 11.19 g/m*3 18.2 C 11.3 km/h
1910 29-05-2014 15:15:00 18.2 C 11.35 g/m*3 18.2 C 11.3 km/h
1911 29-05-2014 15:20:00 18.2 C 11.04 g/m*3 18.2 C 9.7 km/h
1912 29-05-2014 15:25:00 18.1 C 10.97 g/m*3 18.1 C 11.3 km/h
1913 29-05-2014 15:30:00 18.1 C 10.97 g/m*3 18.1 C 9.7 km/h
1914 29-05-2014 15:35:00 17.9 C 10.69 g/m*3 17.9 C 14.5 km/h
1915 29-05-2014 15:40:00 17.7 C 10.71 g/m*3 17.7 C 9.7 km/h
1916 29-05-2014 15:45:00 17.5 C 10.73 g/m*3 17.5 C 8.1 km/h
1917 29-05-2014 15:50:00 17.3 C 10.61 g/m*3 17.3 C 6.4 km/h
1918 29-05-2014 15:55:00 17.2 C 10.54 g/m*3 17.2 C 8.1 km/h
1919 29-05-2014 16:00:00 17.1 C 10.63 g/m*3 17.1 C 8.1 km/h
1920 29-05-2014 16:05:00 17.1 C 10.63 g/m*3 17.1 C 6.4 km/h
1921 29-05-2014 16:10:00 17 C 10.56 g/m*3 17 C 6.4 km/h
1922 29-05-2014 16:15:00 17 C 10.85 g/m*3 17 C 8.1 km/h
1923 29-05-2014 16:20:00 16.9 C 10.79 g/m*3 16.9 C 8.1 km/h
1924 29-05-2014 16:25:00 16.9 C 10.79 g/m*3 16.9 C 8.1 km/h
1925 29-05-2014 16:30:00 16.9 C 10.64 g/m*3 16.9 C 8.1 km/h
Sensor: Nr:Datum:Temp:Abs-Feuchte:Windchill:Wind:
Aussen-T/F 1926 29-05-2014 16:35:00 16.8 C 10.58 g/m*3 16.8 C 12.9 km/h
1927 29-05-2014 16:40:00 16.7 C 10.52 g/m*3 16.7 C 9.7 km/h
1928 29-05-2014 16:45:00 16.7 C 10.66 g/m*3 16.7 C 8.1 km/h
1929 29-05-2014 16:50:00 16.7 C 10.66 g/m*3 16.7 C 8.1 km/h
1930 29-05-2014 16:55:00 16.7 C 10.8 g/m*3 16.7 C 8.1 km/h
1931 29-05-2014 17:00:00 16.7 C 10.8 g/m*3 16.7 C 8.1 km/h
1932 29-05-2014 17:05:00 16.6 C 10.74 g/m*3 16.6 C 8.1 km/h
1933 29-05-2014 17:10:00 16.6 C 10.74 g/m*3 16.6 C 6.4 km/h
1934 29-05-2014 17:15:00 16.5 C 10.53 g/m*3 16.5 C 9.7 km/h
1935 29-05-2014 17:20:00 16.5 C 10.67 g/m*3 16.5 C 8.1 km/h
1936 29-05-2014 17:25:00 16.4 C 10.47 g/m*3 16.4 C 9.7 km/h
1937 29-05-2014 17:30:00 16.4 C 10.61 g/m*3 16.4 C 9.7 km/h
1938 29-05-2014 17:35:00 16.3 C 10.68 g/m*3 16.3 C 9.7 km/h
1939 29-05-2014 17:40:00 16.3 C 10.82 g/m*3 16.3 C 9.7 km/h
1940 29-05-2014 17:45:00 16.3 C 10.68 g/m*3 16.3 C 9.7 km/h
1941 29-05-2014 17:50:00 16.2 C 10.62 g/m*3 16.2 C 8.1 km/h
1942 29-05-2014 17:55:00 16.1 C 10.55 g/m*3 16.1 C 6.4 km/h
1943 29-05-2014 18:00:00 16 C 10.63 g/m*3 16 C 6.4 km/h
1944 29-05-2014 18:05:00 15.9 C 10.7 g/m*3 15.9 C 8.1 km/h
1945 29-05-2014 18:10:00 15.9 C 10.56 g/m*3 15.9 C 9.7 km/h
1946 29-05-2014 18:15:00 15.8 C 10.5 g/m*3 15.8 C 4.8 km/h
1947 29-05-2014 18:20:00 15.7 C 10.57 g/m*3 15.7 C 6.4 km/h
1948 29-05-2014 18:25:00 15.7 C 10.57 g/m*3 15.7 C 8.1 km/h
1949 29-05-2014 18:30:00 15.6 C 10.51 g/m*3 15.6 C 8.1 km/h
1950 29-05-2014 18:35:00 15.6 C 10.64 g/m*3 15.6 C 4.8 km/h
Sensor: Nr:Datum:Temp:Abs-Feuchte:Windchill:Wind:
Aussen-T/F 1951 29-05-2014 18:40:00 15.6 C 10.91 g/m*3 15.6 C 4.8 km/h
1952 29-05-2014 18:45:00 15.4 C 10.77 g/m*3 15.4 C 6.4 km/h
1953 29-05-2014 18:50:00 15.3 C 10.84 g/m*3 15.3 C 4.8 km/h
1954 29-05-2014 18:55:00 15.3 C 10.97 g/m*3 15.3 C 3.2 km/h
1955 29-05-2014 19:00:00 15.2 C 11.16 g/m*3 15.2 C 3.2 km/h
1956 29-05-2014 19:05:00 15.1 C 10.84 g/m*3 15.1 C 4.8 km/h
1957 29-05-2014 19:10:00 14.9 C 10.58 g/m*3 14.9 C 6.4 km/h
1958 29-05-2014 19:15:00 14.8 C 10.77 g/m*3 14.8 C 3.2 km/h
1959 29-05-2014 19:20:00 14.8 C 10.77 g/m*3 14.8 C 4.8 km/h
1960 29-05-2014 19:25:00 14.8 C 10.89 g/m*3 14.8 C 0 km/h
1961 29-05-2014 19:30:00 14.8 C 11.02 g/m*3 14.8 C 0 km/h
1962 29-05-2014 19:35:00 14.8 C 10.77 g/m*3 14.8 C 4.8 km/h
1963 29-05-2014 19:40:00 14.8 C 10.77 g/m*3 14.8 C 3.2 km/h
1964 29-05-2014 19:45:00 14.7 C 10.7 g/m*3 14.7 C 3.2 km/h
1965 29-05-2014 19:50:00 14.8 C 10.89 g/m*3 14.8 C 3.2 km/h
1966 29-05-2014 19:55:00 14.7 C 10.7 g/m*3 14.7 C 4.8 km/h
1967 29-05-2014 20:00:00 14.7 C 10.7 g/m*3 14.7 C 4.8 km/h
1968 29-05-2014 20:05:00 14.7 C 10.7 g/m*3 14.7 C 4.8 km/h
1969 29-05-2014 20:10:00 14.6 C 10.64 g/m*3 14.6 C 4.8 km/h
1970 29-05-2014 20:15:00 14.6 C 10.64 g/m*3 14.6 C 4.8 km/h
1971 29-05-2014 20:20:00 14.6 C 10.76 g/m*3 14.6 C 0 km/h
1972 29-05-2014 20:25:00 14.5 C 10.82 g/m*3 14.5 C 0 km/h
1973 29-05-2014 20:30:00 14.4 C 10.88 g/m*3 14.4 C 0 km/h
1974 29-05-2014 20:35:00 14.3 C 10.93 g/m*3 14.3 C 0 km/h
1975 29-05-2014 20:40:00 14.2 C 10.87 g/m*3 14.2 C 0 km/h
Sensor: Nr:Datum:Temp:Abs-Feuchte:Windchill:Wind:
Aussen-T/F 1976 29-05-2014 20:45:00 14.1 C 10.92 g/m*3 14.1 C 1.6 km/h
1977 29-05-2014 20:50:00 13.9 C 10.79 g/m*3 13.9 C 3.2 km/h
1978 29-05-2014 20:55:00 13.9 C 10.91 g/m*3 13.9 C 0 km/h
1979 29-05-2014 21:00:00 13.8 C 10.84 g/m*3 13.8 C 0 km/h
1980 29-05-2014 21:05:00 13.8 C 10.84 g/m*3 13.8 C 0 km/h
1981 29-05-2014 21:10:00 13.8 C 10.96 g/m*3 13.8 C 0 km/h
1982 29-05-2014 21:15:00 13.7 C 10.89 g/m*3 13.7 C 0 km/h
1983 29-05-2014 21:20:00 13.7 C 10.89 g/m*3 13.7 C 0 km/h
1984 29-05-2014 21:25:00 13.7 C 10.89 g/m*3 13.7 C 1.6 km/h
1985 29-05-2014 21:30:00 13.7 C 10.89 g/m*3 13.7 C 0 km/h
1986 29-05-2014 21:35:00 13.7 C 10.89 g/m*3 13.7 C 0 km/h
1987 29-05-2014 21:40:00 13.6 C 10.95 g/m*3 13.6 C 0 km/h
1988 29-05-2014 21:45:00 13.6 C 10.95 g/m*3 13.6 C 0 km/h
1989 29-05-2014 21:50:00 13.6 C 10.95 g/m*3 13.6 C 0 km/h
1990 29-05-2014 21:55:00 13.5 C 10.88 g/m*3 13.5 C 0 km/h
1991 29-05-2014 22:00:00 13.5 C 10.76 g/m*3 13.5 C 9.7 km/h
1992 29-05-2014 22:05:00 13.4 C 10.46 g/m*3 13.4 C 3.2 km/h
1993 29-05-2014 22:10:00 13.3 C 10.28 g/m*3 13.3 C 8.1 km/h
1994 29-05-2014 22:15:00 13.3 C 10.17 g/m*3 13.3 C 11.3 km/h
1995 29-05-2014 22:20:00 13.2 C 10.1 g/m*3 13.2 C 8.1 km/h
1996 29-05-2014 22:25:00 13.1 C 9.93 g/m*3 13.1 C 4.8 km/h
1997 29-05-2014 22:30:00 13 C 9.87 g/m*3 13 C 8.1 km/h
1998 29-05-2014 22:35:00 12.9 C 9.81 g/m*3 12.9 C 8.1 km/h
1999 29-05-2014 22:40:00 12.8 C 9.63 g/m*3 12.8 C 6.4 km/h
2000 29-05-2014 22:45:00 12.8 C 9.63 g/m*3 12.8 C 1.6 km/h
Sensor: Nr:Datum:Temp:Abs-Feuchte:Windchill:Wind:
Aussen-T/F 2001 29-05-2014 22:50:00 12.7 C 9.57 g/m*3 12.7 C 6.4 km/h
2002 29-05-2014 22:55:00 12.6 C 9.4 g/m*3 12.6 C 4.8 km/h
2003 29-05-2014 23:00:00 12.6 C 9.51 g/m*3 12.6 C 11.3 km/h
2004 29-05-2014 23:05:00 12.5 C 9.35 g/m*3 12.5 C 12.9 km/h
2005 29-05-2014 23:10:00 12.4 C 9.4 g/m*3 12.4 C 8.1 km/h
2006 29-05-2014 23:15:00 12.4 C 9.4 g/m*3 12.4 C 6.4 km/h
2007 29-05-2014 23:20:00 12.4 C 9.4 g/m*3 12.4 C 4.8 km/h
2008 29-05-2014 23:25:00 12.3 C 9.34 g/m*3 12.3 C 4.8 km/h
2009 29-05-2014 23:30:00 12.3 C 9.34 g/m*3 12.3 C 4.8 km/h
2010 29-05-2014 23:35:00 12.3 C 9.34 g/m*3 12.3 C 8.1 km/h
2011 29-05-2014 23:40:00 12.3 C 9.34 g/m*3 12.3 C 11.3 km/h
2012 29-05-2014 23:45:00 12.3 C 9.34 g/m*3 12.3 C 4.8 km/h
2013 29-05-2014 23:50:00 12.2 C 9.28 g/m*3 12.2 C 4.8 km/h
2014 29-05-2014 23:55:00 12.1 C 9.22 g/m*3 12.1 C 6.4 km/h
2015 30-05-2014 00:00:00 12.1 C 9.22 g/m*3 12.1 C 8.1 km/h
2016 30-05-2014 00:05:00 12.1 C 9.22 g/m*3 12.1 C 4.8 km/h
2017 30-05-2014 00:10:00 12 C 9.06 g/m*3 12 C 6.4 km/h
2018 30-05-2014 00:15:00 11.9 C 9 g/m*3 11.9 C 6.4 km/h
2019 30-05-2014 00:20:00 11.9 C 9 g/m*3 11.9 C 8.1 km/h
2020 30-05-2014 00:25:00 11.9 C 9 g/m*3 11.9 C 8.1 km/h
2021 30-05-2014 00:30:00 11.8 C 8.95 g/m*3 11.8 C 8.1 km/h
2022 30-05-2014 00:35:00 11.8 C 8.95 g/m*3 11.8 C 3.2 km/h
2023 30-05-2014 00:40:00 11.8 C 8.95 g/m*3 11.8 C 4.8 km/h
2024 30-05-2014 00:45:00 11.7 C 8.89 g/m*3 11.7 C 9.7 km/h
2025 30-05-2014 00:50:00 11.7 C 8.89 g/m*3 11.7 C 9.7 km/h
Sensor: Nr:Datum:Temp:Abs-Feuchte:Windchill:Wind:
Aussen-T/F 2026 30-05-2014 00:55:00 11.6 C 8.94 g/m*3 11.6 C 4.8 km/h
2027 30-05-2014 01:00:00 11.6 C 8.94 g/m*3 11.6 C 6.4 km/h
2028 30-05-2014 01:05:00 11.5 C 8.88 g/m*3 11.5 C 8.1 km/h
2029 30-05-2014 01:10:00 11.5 C 8.88 g/m*3 11.5 C 6.4 km/h
2030 30-05-2014 01:15:00 11.4 C 8.72 g/m*3 11.4 C 8.1 km/h
2031 30-05-2014 01:20:00 11.4 C 8.72 g/m*3 11.4 C 8.1 km/h
2032 30-05-2014 01:25:00 11.3 C 8.57 g/m*3 11.3 C 8.1 km/h
2033 30-05-2014 01:30:00 11.3 C 8.57 g/m*3 11.3 C 4.8 km/h
2034 30-05-2014 01:35:00 11.2 C 8.51 g/m*3 11.2 C 9.7 km/h
2035 30-05-2014 01:40:00 11.2 C 8.51 g/m*3 11.2 C 6.4 km/h
2036 30-05-2014 01:45:00 11.2 C 8.51 g/m*3 11.2 C 6.4 km/h
2037 30-05-2014 01:50:00 11.2 C 8.41 g/m*3 11.2 C 14.5 km/h
2038 30-05-2014 01:55:00 11.1 C 8.36 g/m*3 11.1 C 12.9 km/h
2039 30-05-2014 02:00:00 11.1 C 8.46 g/m*3 11.1 C 3.2 km/h
2040 30-05-2014 02:05:00 11.1 C 8.36 g/m*3 11.1 C 4.8 km/h
2041 30-05-2014 02:10:00 11.1 C 8.36 g/m*3 11.1 C 3.2 km/h
2042 30-05-2014 02:15:00 11.1 C 8.36 g/m*3 11.1 C 3.2 km/h
2043 30-05-2014 02:20:00 11.1 C 8.46 g/m*3 11.1 C 1.6 km/h
2044 30-05-2014 02:25:00 11.1 C 8.46 g/m*3 11.1 C 4.8 km/h
2045 30-05-2014 02:30:00 11.1 C 8.46 g/m*3 11.1 C 3.2 km/h
2046 30-05-2014 02:35:00 11.1 C 8.56 g/m*3 11.1 C 1.6 km/h
2047 30-05-2014 02:40:00 11.1 C 8.56 g/m*3 11.1 C 3.2 km/h
2048 30-05-2014 02:45:00 11.1 C 8.56 g/m*3 11.1 C 1.6 km/h
2049 30-05-2014 02:50:00 11.1 C 8.56 g/m*3 11.1 C 1.6 km/h
2050 30-05-2014 02:55:00 11.1 C 8.56 g/m*3 11.1 C 6.4 km/h
Sensor: Nr:Datum:Temp:Abs-Feuchte:Windchill:Wind:
Aussen-T/F 2051 30-05-2014 03:00:00 11.1 C 8.56 g/m*3 11.1 C 0 km/h
2052 30-05-2014 03:05:00 11 C 8.51 g/m*3 11 C 3.2 km/h
2053 30-05-2014 03:10:00 10.9 C 8.26 g/m*3 10.41 C 6.4 km/h
2054 30-05-2014 03:15:00 10.9 C 8.26 g/m*3 10.9 C 3.2 km/h
2055 30-05-2014 03:20:00 10.9 C 8.26 g/m*3 10.9 C 3.2 km/h
2056 30-05-2014 03:25:00 10.9 C 8.26 g/m*3 10.9 C 3.2 km/h
2057 30-05-2014 03:30:00 10.9 C 8.36 g/m*3 10.9 C 1.6 km/h
2058 30-05-2014 03:35:00 10.9 C 8.26 g/m*3 10.9 C 4.8 km/h
2059 30-05-2014 03:40:00 10.9 C 8.26 g/m*3 10.9 C 3.2 km/h
2060 30-05-2014 03:45:00 10.8 C 8.2 g/m*3 10.8 C 3.2 km/h
2061 30-05-2014 03:50:00 10.8 C 8.2 g/m*3 10.8 C 4.8 km/h
2062 30-05-2014 03:55:00 10.8 C 8.2 g/m*3 10.8 C 3.2 km/h
2063 30-05-2014 04:00:00 10.8 C 8.11 g/m*3 10.8 C 1.6 km/h
2064 30-05-2014 04:05:00 10.8 C 8.2 g/m*3 10.8 C 4.8 km/h
2065 30-05-2014 04:10:00 10.7 C 8.05 g/m*3 10.7 C 1.6 km/h
2066 30-05-2014 04:15:00 10.7 C 8.05 g/m*3 10.7 C 0 km/h
2067 30-05-2014 04:20:00 10.7 C 8.15 g/m*3 10.7 C 0 km/h
2068 30-05-2014 04:25:00 10.7 C 8.15 g/m*3 10.7 C 0 km/h
2069 30-05-2014 04:30:00 10.7 C 8.25 g/m*3 10.7 C 0 km/h
2070 30-05-2014 04:35:00 10.7 C 8.15 g/m*3 10.7 C 4.8 km/h
2071 30-05-2014 04:40:00 10.6 C 8 g/m*3 10.6 C 4.8 km/h
2072 30-05-2014 04:45:00 10.6 C 8.1 g/m*3 10.6 C 1.6 km/h
2073 30-05-2014 04:50:00 10.6 C 8 g/m*3 10.6 C 3.2 km/h
2074 30-05-2014 04:55:00 10.6 C 8 g/m*3 10.6 C 3.2 km/h
2075 30-05-2014 05:00:00 10.6 C 8.1 g/m*3 10.6 C 0 km/h
Sensor: Nr:Datum:Temp:Abs-Feuchte:Windchill:Wind:
Aussen-T/F 2076 30-05-2014 05:05:00 10.6 C 8 g/m*3 10.6 C 3.2 km/h
2077 30-05-2014 05:10:00 10.6 C 8.1 g/m*3 10.6 C 0 km/h
2078 30-05-2014 05:15:00 10.6 C 8.2 g/m*3 10.6 C 1.6 km/h
2079 30-05-2014 05:20:00 10.5 C 8.15 g/m*3 10.5 C 0 km/h
2080 30-05-2014 05:25:00 10.4 C 8.1 g/m*3 10.4 C 0 km/h
2081 30-05-2014 05:30:00 10.4 C 8 g/m*3 10.4 C 1.6 km/h
2082 30-05-2014 05:35:00 10.4 C 8.1 g/m*3 10.4 C 0 km/h
2083 30-05-2014 05:40:00 10.4 C 7.9 g/m*3 10.4 C 3.2 km/h
2084 30-05-2014 05:45:00 10.3 C 7.95 g/m*3 10.3 C 0 km/h
2085 30-05-2014 05:50:00 10.3 C 8.04 g/m*3 10.3 C 0 km/h
2086 30-05-2014 05:55:00 10.3 C 7.95 g/m*3 10.3 C 1.6 km/h
2087 30-05-2014 06:00:00 10.3 C 7.95 g/m*3 10.3 C 1.6 km/h
2088 30-05-2014 06:05:00 10.3 C 7.95 g/m*3 10.3 C 0 km/h
2089 30-05-2014 06:10:00 10.3 C 7.95 g/m*3 10.3 C 1.6 km/h
2090 30-05-2014 06:15:00 10.3 C 7.95 g/m*3 10.3 C 3.2 km/h
2091 30-05-2014 06:20:00 10.3 C 7.95 g/m*3 10.3 C 3.2 km/h
2092 30-05-2014 06:25:00 10.3 C 7.85 g/m*3 10.3 C 3.2 km/h
2093 30-05-2014 06:30:00 10.4 C 7.9 g/m*3 10.4 C 3.2 km/h
2094 30-05-2014 06:35:00 10.4 C 7.9 g/m*3 10.4 C 4.8 km/h
2095 30-05-2014 06:40:00 10.4 C 7.81 g/m*3 10.4 C 4.8 km/h
2096 30-05-2014 06:45:00 10.4 C 7.81 g/m*3 9.83 C 6.4 km/h
2097 30-05-2014 06:50:00 10.4 C 7.71 g/m*3 9.83 C 6.4 km/h
2098 30-05-2014 06:55:00 10.5 C 7.76 g/m*3 10.5 C 3.2 km/h
2099 30-05-2014 07:00:00 10.5 C 7.76 g/m*3 10.5 C 1.6 km/h
2100 30-05-2014 07:05:00 10.5 C 7.86 g/m*3 10.5 C 1.6 km/h
Sensor: Nr:Datum:Temp:Abs-Feuchte:Windchill:Wind:
Aussen-T/F 2101 30-05-2014 07:10:00 10.6 C 7.81 g/m*3 10.6 C 1.6 km/h
2102 30-05-2014 07:15:00 10.6 C 7.71 g/m*3 10.6 C 3.2 km/h
2103 30-05-2014 07:20:00 10.6 C 7.61 g/m*3 10.6 C 4.8 km/h
2104 30-05-2014 07:25:00 10.6 C 7.71 g/m*3 10.6 C 1.6 km/h
2105 30-05-2014 07:30:00 10.7 C 7.66 g/m*3 10.7 C 1.6 km/h
2106 30-05-2014 07:35:00 10.7 C 7.66 g/m*3 9.52 C 9.7 km/h
2107 30-05-2014 07:40:00 10.8 C 7.61 g/m*3 10.29 C 6.4 km/h
2108 30-05-2014 07:45:00 10.8 C 7.61 g/m*3 10.8 C 4.8 km/h
2109 30-05-2014 07:50:00 10.9 C 7.66 g/m*3 10.9 C 3.2 km/h
2110 30-05-2014 07:55:00 11 C 7.71 g/m*3 10.16 C 8.1 km/h
2111 30-05-2014 08:00:00 11.2 C 7.7 g/m*3 11.2 C 4.8 km/h
2112 30-05-2014 08:05:00 11.3 C 7.75 g/m*3 11.3 C 4.8 km/h
2113 30-05-2014 08:10:00 11.4 C 7.8 g/m*3 11.4 C 4.8 km/h
2114 30-05-2014 08:15:00 11.7 C 7.74 g/m*3 11.7 C 6.4 km/h
2115 30-05-2014 08:20:00 11.9 C 7.84 g/m*3 11.9 C 9.7 km/h
2116 30-05-2014 08:25:00 12 C 7.67 g/m*3 12 C 8.1 km/h
2117 30-05-2014 08:30:00 12.1 C 7.72 g/m*3 12.1 C 8.1 km/h
2118 30-05-2014 08:35:00 12.1 C 7.61 g/m*3 12.1 C 11.3 km/h
2119 30-05-2014 08:40:00 12 C 7.46 g/m*3 12 C 4.8 km/h
2120 30-05-2014 08:45:00 12.1 C 7.51 g/m*3 12.1 C 4.8 km/h
2121 30-05-2014 08:50:00 12.2 C 7.45 g/m*3 12.2 C 6.4 km/h
2122 30-05-2014 08:55:00 12.4 C 7.43 g/m*3 12.4 C 8.1 km/h
2123 30-05-2014 09:00:00 12.5 C 7.37 g/m*3 12.5 C 8.1 km/h
2124 30-05-2014 09:05:00 12.7 C 7.24 g/m*3 12.7 C 11.3 km/h
2125 30-05-2014 09:10:00 12.7 C 7.35 g/m*3 12.7 C 12.9 km/h
Sensor: Nr:Datum:Temp:Abs-Feuchte:Windchill:Wind:
Aussen-T/F 2126 30-05-2014 09:15:00 12.7 C 7.35 g/m*3 12.7 C 8.1 km/h
2127 30-05-2014 09:20:00 12.7 C 7.46 g/m*3 12.7 C 11.3 km/h
2128 30-05-2014 09:25:00 12.6 C 7.3 g/m*3 12.6 C 8.1 km/h
2129 30-05-2014 09:30:00 12.5 C 7.26 g/m*3 12.5 C 9.7 km/h
2130 30-05-2014 09:35:00 12.4 C 7.21 g/m*3 12.4 C 3.2 km/h
2131 30-05-2014 09:40:00 12.3 C 7.38 g/m*3 12.3 C 6.4 km/h
2132 30-05-2014 09:45:00 12.3 C 7.38 g/m*3 12.3 C 11.3 km/h
2133 30-05-2014 09:50:00 12.5 C 7.37 g/m*3 12.5 C 9.7 km/h
2134 30-05-2014 09:55:00 12.7 C 7.46 g/m*3 12.7 C 8.1 km/h
2135 30-05-2014 10:00:00 12.9 C 7.44 g/m*3 12.9 C 9.7 km/h
2136 30-05-2014 10:05:00 13.3 C 7.63 g/m*3 13.3 C 12.9 km/h
2137 30-05-2014 10:10:00 13.7 C 7.82 g/m*3 13.7 C 11.3 km/h
2138 30-05-2014 10:15:00 14 C 7.84 g/m*3 14 C 12.9 km/h
2139 30-05-2014 10:20:00 14.3 C 7.86 g/m*3 14.3 C 12.9 km/h
2140 30-05-2014 10:25:00 14.4 C 7.66 g/m*3 14.4 C 11.3 km/h
2141 30-05-2014 10:30:00 14.6 C 8.01 g/m*3 14.6 C 9.7 km/h
2142 30-05-2014 10:35:00 14.7 C 8.18 g/m*3 14.7 C 12.9 km/h
2143 30-05-2014 10:40:00 14.9 C 8.03 g/m*3 14.9 C 11.3 km/h
2144 30-05-2014 10:45:00 15.2 C 8.05 g/m*3 15.2 C 9.7 km/h
2145 30-05-2014 10:50:00 15.2 C 8.05 g/m*3 15.2 C 11.3 km/h
2146 30-05-2014 10:55:00 14.9 C 7.9 g/m*3 14.9 C 4.8 km/h
2147 30-05-2014 11:00:00 14.7 C 7.81 g/m*3 14.7 C 6.4 km/h
2148 30-05-2014 11:05:00 14.5 C 7.71 g/m*3 14.5 C 8.1 km/h
2149 30-05-2014 11:10:00 14.5 C 8.08 g/m*3 14.5 C 8.1 km/h
2150 30-05-2014 11:15:00 14.6 C 8.13 g/m*3 14.6 C 11.3 km/h
Sensor: Nr:Datum:Temp:Abs-Feuchte:Windchill:Wind:
Aussen-T/F 2151 30-05-2014 11:20:00 14.5 C 7.84 g/m*3 14.5 C 8.1 km/h
2152 30-05-2014 11:25:00 14.6 C 7.88 g/m*3 14.6 C 8.1 km/h
2153 30-05-2014 11:30:00 14.6 C 7.76 g/m*3 14.6 C 9.7 km/h
2154 30-05-2014 11:35:00 14.4 C 7.42 g/m*3 14.4 C 8.1 km/h
2155 30-05-2014 11:40:00 14.3 C 7.74 g/m*3 14.3 C 11.3 km/h
2156 30-05-2014 11:45:00 14.6 C 8.13 g/m*3 14.6 C 12.9 km/h
2157 30-05-2014 11:50:00 15.2 C 8.31 g/m*3 15.2 C 9.7 km/h
2158 30-05-2014 11:55:00 15.7 C 8.3 g/m*3 15.7 C 11.3 km/h
2159 30-05-2014 12:00:00 16.1 C 7.81 g/m*3 16.1 C 11.3 km/h
2160 30-05-2014 12:05:00 16 C 7.9 g/m*3 16 C 8.1 km/h
2161 30-05-2014 12:10:00 15.6 C 7.45 g/m*3 15.6 C 11.3 km/h
2162 30-05-2014 12:15:00 15.2 C 7.53 g/m*3 15.2 C 12.9 km/h
2163 30-05-2014 12:20:00 15.2 C 7.53 g/m*3 15.2 C 9.7 km/h
2164 30-05-2014 12:25:00 15.2 C 7.66 g/m*3 15.2 C 6.4 km/h
2165 30-05-2014 12:30:00 15.2 C 7.79 g/m*3 15.2 C 9.7 km/h
2166 30-05-2014 12:35:00 15.4 C 7.75 g/m*3 15.4 C 9.7 km/h
2167 30-05-2014 12:40:00 15.9 C 8.8 g/m*3 15.9 C 12.9 km/h
2168 30-05-2014 12:45:00 16.4 C 8.1 g/m*3 16.4 C 8.1 km/h
2169 30-05-2014 12:50:00 16.7 C 7.67 g/m*3 16.7 C 11.3 km/h
2170 30-05-2014 12:55:00 16.7 C 7.82 g/m*3 16.7 C 9.7 km/h
2171 30-05-2014 13:00:00 16.8 C 8.44 g/m*3 16.8 C 11.3 km/h
2172 30-05-2014 13:05:00 16.9 C 7.77 g/m*3 16.9 C 14.5 km/h
2173 30-05-2014 13:10:00 17.1 C 8.44 g/m*3 17.1 C 14.5 km/h
2174 30-05-2014 13:15:00 17.1 C 9.17 g/m*3 17.1 C 11.3 km/h
2175 30-05-2014 13:20:00 17.3 C 7.96 g/m*3 17.3 C 17.7 km/h
Sensor: Nr:Datum:Temp:Abs-Feuchte:Windchill:Wind:
Aussen-T/F 2176 30-05-2014 13:25:00 17.1 C 8.15 g/m*3 17.1 C 12.9 km/h
2177 30-05-2014 13:30:00 17.1 C 8.3 g/m*3 17.1 C 8.1 km/h
2178 30-05-2014 13:35:00 17.1 C 8.15 g/m*3 17.1 C 11.3 km/h
2179 30-05-2014 13:40:00 17.2 C 8.64 g/m*3 17.2 C 12.9 km/h
2180 30-05-2014 13:45:00 17.1 C 8.01 g/m*3 17.1 C 11.3 km/h
2181 30-05-2014 13:50:00 17.3 C 8.54 g/m*3 17.3 C 11.3 km/h
2182 30-05-2014 13:55:00 17.3 C 7.81 g/m*3 17.3 C 8.1 km/h
2183 30-05-2014 14:00:00 17.6 C 8.7 g/m*3 17.6 C 8.1 km/h
2184 30-05-2014 14:05:00 17.8 C 8.04 g/m*3 17.8 C 11.3 km/h
2185 30-05-2014 14:10:00 18 C 8.6 g/m*3 18 C 14.5 km/h
2186 30-05-2014 14:15:00 17.8 C 8.04 g/m*3 17.8 C 11.3 km/h
2187 30-05-2014 14:20:00 17.3 C 7.81 g/m*3 17.3 C 8.1 km/h
2188 30-05-2014 14:25:00 17 C 7.67 g/m*3 17 C 8.1 km/h
2189 30-05-2014 14:30:00 17.1 C 8.3 g/m*3 17.1 C 9.7 km/h
2190 30-05-2014 14:35:00 17.2 C 7.61 g/m*3 17.2 C 6.4 km/h
2191 30-05-2014 14:40:00 17.2 C 7.47 g/m*3 17.2 C 14.5 km/h
2192 30-05-2014 14:45:00 17.6 C 7.8 g/m*3 17.6 C 12.9 km/h
2193 30-05-2014 14:50:00 17.2 C 7.91 g/m*3 17.2 C 14.5 km/h
2194 30-05-2014 14:55:00 16.8 C 7.72 g/m*3 16.8 C 11.3 km/h
2195 30-05-2014 15:00:00 16.6 C 7.63 g/m*3 16.6 C 9.7 km/h
2196 30-05-2014 15:05:00 16.4 C 7.54 g/m*3 16.4 C 17.7 km/h
2197 30-05-2014 15:10:00 16.1 C 7.54 g/m*3 16.1 C 8.1 km/h
2198 30-05-2014 15:15:00 16 C 7.77 g/m*3 16 C 11.3 km/h
2199 30-05-2014 15:20:00 16.4 C 8.23 g/m*3 16.4 C 11.3 km/h
2200 30-05-2014 15:25:00 16.7 C 7.96 g/m*3 16.7 C 14.5 km/h
Sensor: Nr:Datum:Temp:Abs-Feuchte:Windchill:Wind:
Aussen-T/F 2201 30-05-2014 15:30:00 16.7 C 7.96 g/m*3 16.7 C 9.7 km/h
2202 30-05-2014 15:35:00 16.9 C 7.91 g/m*3 16.9 C 11.3 km/h
2203 30-05-2014 15:40:00 17.2 C 8.05 g/m*3 17.2 C 8.1 km/h
2204 30-05-2014 15:45:00 17.3 C 8.25 g/m*3 17.3 C 14.5 km/h
2205 30-05-2014 15:50:00 17.9 C 8.24 g/m*3 17.9 C 14.5 km/h
2206 30-05-2014 15:55:00 17.8 C 8.2 g/m*3 17.8 C 8.1 km/h
2207 30-05-2014 16:00:00 17.3 C 7.96 g/m*3 17.3 C 12.9 km/h
2208 30-05-2014 16:05:00 17 C 8.1 g/m*3 17 C 11.3 km/h
2209 30-05-2014 16:10:00 16.8 C 8.01 g/m*3 16.8 C 8.1 km/h
2210 30-05-2014 16:15:00 16.6 C 8.05 g/m*3 16.6 C 6.4 km/h
2211 30-05-2014 16:20:00 16.5 C 7.72 g/m*3 16.5 C 6.4 km/h
2212 30-05-2014 16:25:00 16.3 C 8.19 g/m*3 16.3 C 6.4 km/h
2213 30-05-2014 16:30:00 16.6 C 8.76 g/m*3 16.6 C 8.1 km/h
2214 30-05-2014 16:35:00 17.3 C 8.4 g/m*3 17.3 C 8.1 km/h
2215 30-05-2014 16:40:00 17.9 C 8.24 g/m*3 17.9 C 11.3 km/h
2216 30-05-2014 16:45:00 18 C 8.29 g/m*3 18 C 11.3 km/h
2217 30-05-2014 16:50:00 17.6 C 8.1 g/m*3 17.6 C 9.7 km/h
2218 30-05-2014 16:55:00 17.2 C 7.91 g/m*3 17.2 C 4.8 km/h
2219 30-05-2014 17:00:00 16.7 C 7.82 g/m*3 16.7 C 9.7 km/h
2220 30-05-2014 17:05:00 16.4 C 7.96 g/m*3 16.4 C 9.7 km/h
2221 30-05-2014 17:10:00 16.2 C 7.86 g/m*3 16.2 C 8.1 km/h
2222 30-05-2014 17:15:00 16.2 C 8 g/m*3 16.2 C 11.3 km/h
2223 30-05-2014 17:20:00 16.1 C 7.95 g/m*3 16.1 C 9.7 km/h
2224 30-05-2014 17:25:00 16.1 C 8.36 g/m*3 16.1 C 12.9 km/h
2225 30-05-2014 17:30:00 16.1 C 8.09 g/m*3 16.1 C 8.1 km/h
Sensor: Nr:Datum:Temp:Abs-Feuchte:Windchill:Wind:
Aussen-T/F 2226 30-05-2014 17:35:00 15.9 C 7.99 g/m*3 15.9 C 11.3 km/h
2227 30-05-2014 17:40:00 15.7 C 7.76 g/m*3 15.7 C 12.9 km/h
2228 30-05-2014 17:45:00 15.9 C 8.4 g/m*3 15.9 C 12.9 km/h
2229 30-05-2014 17:50:00 16.3 C 7.77 g/m*3 16.3 C 12.9 km/h
2230 30-05-2014 17:55:00 16.4 C 8.1 g/m*3 16.4 C 14.5 km/h
2231 30-05-2014 18:00:00 16.7 C 7.96 g/m*3 16.7 C 11.3 km/h
2232 30-05-2014 18:05:00 16.8 C 7.86 g/m*3 16.8 C 11.3 km/h
2233 30-05-2014 18:10:00 16.9 C 8.05 g/m*3 16.9 C 9.7 km/h
2234 30-05-2014 18:15:00 16.8 C 8.01 g/m*3 16.8 C 11.3 km/h
2235 30-05-2014 18:20:00 16.6 C 7.77 g/m*3 16.6 C 12.9 km/h
2236 30-05-2014 18:25:00 16.4 C 7.82 g/m*3 16.4 C 8.1 km/h
2237 30-05-2014 18:30:00 16.1 C 7.68 g/m*3 16.1 C 4.8 km/h
2238 30-05-2014 18:35:00 15.9 C 7.85 g/m*3 15.9 C 8.1 km/h
2239 30-05-2014 18:40:00 16 C 8.04 g/m*3 16 C 8.1 km/h
2240 30-05-2014 18:45:00 16.3 C 8.05 g/m*3 16.3 C 11.3 km/h
2241 30-05-2014 18:50:00 16.7 C 8.24 g/m*3 16.7 C 9.7 km/h
2242 30-05-2014 18:55:00 17 C 8.25 g/m*3 17 C 11.3 km/h
2243 30-05-2014 19:00:00 16.7 C 7.96 g/m*3 16.7 C 14.5 km/h
2244 30-05-2014 19:05:00 16.2 C 7.86 g/m*3 16.2 C 6.4 km/h
2245 30-05-2014 19:10:00 15.6 C 7.58 g/m*3 15.6 C 12.9 km/h
2246 30-05-2014 19:15:00 15.3 C 7.84 g/m*3 15.3 C 8.1 km/h
2247 30-05-2014 19:20:00 15.1 C 7.74 g/m*3 15.1 C 9.7 km/h
2248 30-05-2014 19:25:00 15 C 7.82 g/m*3 15 C 9.7 km/h
2249 30-05-2014 19:30:00 15.1 C 7.87 g/m*3 15.1 C 6.4 km/h
2250 30-05-2014 19:35:00 15.1 C 7.74 g/m*3 15.1 C 8.1 km/h
Sensor: Nr:Datum:Temp:Abs-Feuchte:Windchill:Wind:
Aussen-T/F 2251 30-05-2014 19:40:00 15 C 7.69 g/m*3 15 C 8.1 km/h
2252 30-05-2014 19:45:00 14.9 C 7.65 g/m*3 14.9 C 9.7 km/h
2253 30-05-2014 19:50:00 14.8 C 7.73 g/m*3 14.8 C 8.1 km/h
2254 30-05-2014 19:55:00 14.7 C 7.55 g/m*3 14.7 C 9.7 km/h
2255 30-05-2014 20:00:00 14.6 C 7.63 g/m*3 14.6 C 3.2 km/h
2256 30-05-2014 20:05:00 14.6 C 7.63 g/m*3 14.6 C 6.4 km/h
2257 30-05-2014 20:10:00 14.6 C 7.51 g/m*3 14.6 C 3.2 km/h
2258 30-05-2014 20:15:00 14.6 C 7.76 g/m*3 14.6 C 1.6 km/h
2259 30-05-2014 20:20:00 14.4 C 7.29 g/m*3 14.4 C 3.2 km/h
2260 30-05-2014 20:25:00 14.4 C 7.42 g/m*3 14.4 C 0 km/h
2261 30-05-2014 20:30:00 14.3 C 7.25 g/m*3 14.3 C 1.6 km/h
2262 30-05-2014 20:35:00 14.2 C 8.06 g/m*3 14.2 C 0 km/h
2263 30-05-2014 20:40:00 14.1 C 7.4 g/m*3 14.1 C 0 km/h
2264 30-05-2014 20:45:00 14 C 7.72 g/m*3 14 C 0 km/h
2265 30-05-2014 20:50:00 13.8 C 8.22 g/m*3 13.8 C 0 km/h
2266 30-05-2014 20:55:00 13.6 C 8.47 g/m*3 13.6 C 0 km/h
2267 30-05-2014 21:00:00 13.2 C 8.5 g/m*3 13.2 C 0 km/h
2268 30-05-2014 21:05:00 12.8 C 8.4 g/m*3 12.8 C 0 km/h
2269 30-05-2014 21:10:00 12.4 C 8.19 g/m*3 12.4 C 0 km/h
2270 30-05-2014 21:15:00 12.1 C 8.15 g/m*3 12.1 C 1.6 km/h
2271 30-05-2014 21:20:00 11.7 C 8.05 g/m*3 11.7 C 0 km/h
2272 30-05-2014 21:25:00 11.5 C 7.95 g/m*3 11.5 C 0 km/h
2273 30-05-2014 21:30:00 11.3 C 7.85 g/m*3 11.3 C 1.6 km/h
2274 30-05-2014 21:35:00 11.1 C 7.76 g/m*3 11.1 C 1.6 km/h
2275 30-05-2014 21:40:00 10.9 C 7.66 g/m*3 10.9 C 0 km/h
Sensor: Nr:Datum:Temp:Abs-Feuchte:Windchill:Wind:
Aussen-T/F 2276 30-05-2014 21:45:00 10.7 C 7.66 g/m*3 10.7 C 0 km/h
2277 30-05-2014 21:50:00 10.6 C 7.52 g/m*3 10.6 C 1.6 km/h
2278 30-05-2014 21:55:00 10.5 C 7.57 g/m*3 10.5 C 0 km/h
2279 30-05-2014 22:00:00 10.4 C 7.52 g/m*3 10.4 C 0 km/h
2280 30-05-2014 22:05:00 10.3 C 7.57 g/m*3 10.3 C 1.6 km/h
2281 30-05-2014 22:10:00 10.2 C 7.61 g/m*3 10.2 C 0 km/h
2282 30-05-2014 22:15:00 10.1 C 7.66 g/m*3 10.1 C 0 km/h
2283 30-05-2014 22:20:00 10.1 C 7.66 g/m*3 10.1 C 0 km/h
2284 30-05-2014 22:25:00 10 C 7.61 g/m*3 10 C 0 km/h
2285 30-05-2014 22:30:00 9.9 C 7.56 g/m*3 9.9 C 0 km/h
2286 30-05-2014 22:35:00 9.8 C 7.61 g/m*3 9.8 C 0 km/h
2287 30-05-2014 22:40:00 9.7 C 7.56 g/m*3 9.7 C 0 km/h
2288 30-05-2014 22:45:00 9.6 C 7.69 g/m*3 9.6 C 0 km/h
2289 30-05-2014 22:50:00 9.5 C 7.65 g/m*3 9.5 C 0 km/h
2290 30-05-2014 22:55:00 9.4 C 7.6 g/m*3 9.4 C 0 km/h
2291 30-05-2014 23:00:00 9.4 C 7.6 g/m*3 9.4 C 0 km/h
2292 30-05-2014 23:05:00 9.3 C 7.55 g/m*3 9.3 C 0 km/h
2293 30-05-2014 23:10:00 9.2 C 7.5 g/m*3 9.2 C 0 km/h
2294 30-05-2014 23:15:00 9.1 C 7.54 g/m*3 9.1 C 0 km/h
2295 30-05-2014 23:20:00 8.9 C 7.45 g/m*3 8.9 C 0 km/h
2296 30-05-2014 23:25:00 8.8 C 7.4 g/m*3 8.8 C 0 km/h
2297 30-05-2014 23:30:00 8.7 C 7.44 g/m*3 8.7 C 0 km/h
2298 30-05-2014 23:35:00 8.6 C 7.39 g/m*3 8.6 C 0 km/h
2299 30-05-2014 23:40:00 8.5 C 7.34 g/m*3 8.5 C 0 km/h
2300 30-05-2014 23:45:00 8.4 C 7.38 g/m*3 8.4 C 0 km/h
Sensor: Nr:Datum:Temp:Abs-Feuchte:Windchill:Wind:
Aussen-T/F 2301 30-05-2014 23:50:00 8.4 C 7.38 g/m*3 8.4 C 0 km/h
2302 30-05-2014 23:55:00 8.3 C 7.33 g/m*3 8.3 C 0 km/h
2303 31-05-2014 00:00:00 8.3 C 7.33 g/m*3 8.3 C 0 km/h
2304 31-05-2014 00:05:00 8.2 C 7.2 g/m*3 8.2 C 0 km/h
2305 31-05-2014 00:10:00 8.2 C 7.29 g/m*3 8.2 C 0 km/h
2306 31-05-2014 00:15:00 8.2 C 7.29 g/m*3 8.2 C 0 km/h
2307 31-05-2014 00:20:00 8.1 C 7.24 g/m*3 8.1 C 0 km/h
2308 31-05-2014 00:25:00 8 C 7.19 g/m*3 8 C 0 km/h
2309 31-05-2014 00:30:00 8 C 7.28 g/m*3 8 C 0 km/h
2310 31-05-2014 00:35:00 7.9 C 7.23 g/m*3 7.9 C 0 km/h
2311 31-05-2014 00:40:00 7.8 C 7.18 g/m*3 7.8 C 0 km/h
2312 31-05-2014 00:45:00 7.8 C 7.26 g/m*3 7.8 C 0 km/h
2313 31-05-2014 00:50:00 7.7 C 7.22 g/m*3 7.7 C 0 km/h
2314 31-05-2014 00:55:00 7.7 C 7.22 g/m*3 7.7 C 0 km/h
2315 31-05-2014 01:00:00 7.7 C 7.22 g/m*3 7.7 C 0 km/h
2316 31-05-2014 01:05:00 7.6 C 7.25 g/m*3 7.6 C 0 km/h
2317 31-05-2014 01:10:00 7.6 C 7.25 g/m*3 7.6 C 0 km/h
2318 31-05-2014 01:15:00 7.5 C 7.2 g/m*3 7.5 C 0 km/h
2319 31-05-2014 01:20:00 7.5 C 7.2 g/m*3 7.5 C 0 km/h
2320 31-05-2014 01:25:00 7.4 C 7.16 g/m*3 7.4 C 0 km/h
2321 31-05-2014 01:30:00 7.4 C 7.16 g/m*3 7.4 C 0 km/h
2322 31-05-2014 01:35:00 7.3 C 7.19 g/m*3 7.3 C 0 km/h
2323 31-05-2014 01:40:00 7.3 C 7.11 g/m*3 7.3 C 0 km/h
2324 31-05-2014 01:45:00 7.3 C 7.19 g/m*3 7.3 C 0 km/h
2325 31-05-2014 01:50:00 7.3 C 7.19 g/m*3 7.3 C 0 km/h
Sensor: Nr:Datum:Temp:Abs-Feuchte:Windchill:Wind:
Aussen-T/F 2326 31-05-2014 01:55:00 7.2 C 7.14 g/m*3 7.2 C 0 km/h
2327 31-05-2014 02:00:00 7.2 C 7.14 g/m*3 7.2 C 0 km/h
2328 31-05-2014 02:05:00 7.2 C 7.14 g/m*3 7.2 C 0 km/h
2329 31-05-2014 02:10:00 7.1 C 7.18 g/m*3 7.1 C 0 km/h
2330 31-05-2014 02:15:00 7.1 C 7.18 g/m*3 7.1 C 0 km/h
2331 31-05-2014 02:20:00 7 C 7.13 g/m*3 7 C 0 km/h
2332 31-05-2014 02:25:00 6.9 C 7.08 g/m*3 6.9 C 0 km/h
2333 31-05-2014 02:30:00 6.9 C 7.08 g/m*3 6.9 C 0 km/h
2334 31-05-2014 02:35:00 6.8 C 7.11 g/m*3 6.8 C 0 km/h
2335 31-05-2014 02:40:00 6.8 C 7.11 g/m*3 6.8 C 0 km/h
2336 31-05-2014 02:45:00 6.7 C 7.07 g/m*3 6.7 C 1.6 km/h
2337 31-05-2014 02:50:00 6.7 C 7.07 g/m*3 6.7 C 1.6 km/h
2338 31-05-2014 02:55:00 6.7 C 7.07 g/m*3 6.7 C 0 km/h
2339 31-05-2014 03:00:00 6.7 C 7.07 g/m*3 6.7 C 0 km/h
2340 31-05-2014 03:05:00 6.6 C 7.02 g/m*3 6.6 C 0 km/h
2341 31-05-2014 03:10:00 6.6 C 7.02 g/m*3 6.6 C 0 km/h
2342 31-05-2014 03:15:00 6.6 C 7.02 g/m*3 6.6 C 0 km/h
2343 31-05-2014 03:20:00 6.5 C 6.97 g/m*3 6.5 C 0 km/h
2344 31-05-2014 03:25:00 6.4 C 7 g/m*3 6.4 C 0 km/h
2345 31-05-2014 03:30:00 6.4 C 7 g/m*3 6.4 C 0 km/h
2346 31-05-2014 03:35:00 6.4 C 7 g/m*3 6.4 C 0 km/h
2347 31-05-2014 03:40:00 6.3 C 6.96 g/m*3 6.3 C 0 km/h
2348 31-05-2014 03:45:00 6.3 C 6.96 g/m*3 6.3 C 0 km/h
2349 31-05-2014 03:50:00 6.3 C 6.96 g/m*3 6.3 C 0 km/h
2350 31-05-2014 03:55:00 6.2 C 6.91 g/m*3 6.2 C 0 km/h
Sensor: Nr:Datum:Temp:Abs-Feuchte:Windchill:Wind:
Aussen-T/F 2351 31-05-2014 04:00:00 6.2 C 6.91 g/m*3 6.2 C 1.6 km/h
2352 31-05-2014 04:05:00 6.1 C 6.87 g/m*3 6.1 C 0 km/h
2353 31-05-2014 04:10:00 6.1 C 6.87 g/m*3 6.1 C 0 km/h
2354 31-05-2014 04:15:00 6.1 C 6.87 g/m*3 6.1 C 0 km/h
2355 31-05-2014 04:20:00 6 C 6.82 g/m*3 6 C 0 km/h
2356 31-05-2014 04:25:00 6 C 6.82 g/m*3 6 C 0 km/h
2357 31-05-2014 04:30:00 6 C 6.9 g/m*3 6 C 0 km/h
2358 31-05-2014 04:35:00 6 C 6.9 g/m*3 6 C 0 km/h
2359 31-05-2014 04:40:00 5.9 C 6.85 g/m*3 5.9 C 0 km/h
2360 31-05-2014 04:45:00 5.9 C 6.85 g/m*3 5.9 C 0 km/h
2361 31-05-2014 04:50:00 5.8 C 6.81 g/m*3 5.8 C 0 km/h
2362 31-05-2014 04:55:00 5.8 C 6.81 g/m*3 5.8 C 0 km/h
2363 31-05-2014 05:00:00 5.8 C 6.81 g/m*3 5.8 C 1.6 km/h
2364 31-05-2014 05:05:00 5.8 C 6.81 g/m*3 5.8 C 0 km/h
2365 31-05-2014 05:10:00 5.7 C 6.76 g/m*3 5.7 C 0 km/h
2366 31-05-2014 05:15:00 5.7 C 6.76 g/m*3 5.7 C 0 km/h
2367 31-05-2014 05:20:00 5.6 C 6.72 g/m*3 5.6 C 0 km/h
2368 31-05-2014 05:25:00 5.5 C 6.67 g/m*3 5.5 C 0 km/h
2369 31-05-2014 05:30:00 5.4 C 6.63 g/m*3 5.4 C 0 km/h
2370 31-05-2014 05:35:00 5.4 C 6.63 g/m*3 5.4 C 0 km/h
2371 31-05-2014 05:40:00 5.4 C 6.63 g/m*3 5.4 C 0 km/h
2372 31-05-2014 05:45:00 5.4 C 6.63 g/m*3 5.4 C 0 km/h
2373 31-05-2014 05:50:00 5.4 C 6.63 g/m*3 5.4 C 0 km/h
2374 31-05-2014 05:55:00 5.3 C 6.58 g/m*3 5.3 C 0 km/h
2375 31-05-2014 06:00:00 5.3 C 6.58 g/m*3 5.3 C 0 km/h
Sensor: Nr:Datum:Temp:Abs-Feuchte:Windchill:Wind:
Aussen-T/F 2376 31-05-2014 06:05:00 5.3 C 6.58 g/m*3 5.3 C 0 km/h
2377 31-05-2014 06:10:00 5.4 C 6.63 g/m*3 5.4 C 0 km/h
2378 31-05-2014 06:15:00 5.4 C 6.63 g/m*3 5.4 C 1.6 km/h
2379 31-05-2014 06:20:00 5.5 C 6.74 g/m*3 5.5 C 3.2 km/h
2380 31-05-2014 06:25:00 5.5 C 6.74 g/m*3 5.5 C 4.8 km/h
2381 31-05-2014 06:30:00 5.6 C 6.79 g/m*3 5.6 C 3.2 km/h
2382 31-05-2014 06:35:00 5.6 C 6.79 g/m*3 5.6 C 4.8 km/h
2383 31-05-2014 06:40:00 5.7 C 6.83 g/m*3 5.7 C 3.2 km/h
2384 31-05-2014 06:45:00 5.7 C 6.83 g/m*3 5.7 C 3.2 km/h
2385 31-05-2014 06:50:00 5.7 C 6.83 g/m*3 5.7 C 3.2 km/h
2386 31-05-2014 06:55:00 5.7 C 6.83 g/m*3 5.7 C 3.2 km/h
2387 31-05-2014 07:00:00 5.8 C 6.88 g/m*3 5.8 C 4.8 km/h
2388 31-05-2014 07:05:00 5.8 C 6.88 g/m*3 5.8 C 3.2 km/h
2389 31-05-2014 07:10:00 5.8 C 6.88 g/m*3 5.8 C 3.2 km/h
2390 31-05-2014 07:15:00 5.9 C 6.92 g/m*3 5.9 C 3.2 km/h
2391 31-05-2014 07:20:00 6 C 6.97 g/m*3 6 C 1.6 km/h
2392 31-05-2014 07:25:00 6.1 C 7.01 g/m*3 6.1 C 3.2 km/h
2393 31-05-2014 07:30:00 6.1 C 7.01 g/m*3 6.1 C 3.2 km/h
2394 31-05-2014 07:35:00 6.3 C 7.11 g/m*3 6.3 C 0 km/h
2395 31-05-2014 07:40:00 6.4 C 7.15 g/m*3 6.4 C 1.6 km/h
2396 31-05-2014 07:45:00 6.6 C 7.25 g/m*3 6.6 C 1.6 km/h
2397 31-05-2014 07:50:00 6.7 C 7.29 g/m*3 6.7 C 0 km/h
2398 31-05-2014 07:55:00 7 C 7.44 g/m*3 7 C 0 km/h
2399 31-05-2014 08:00:00 7.3 C 7.58 g/m*3 7.3 C 0 km/h
2400 31-05-2014 08:05:00 7.5 C 7.6 g/m*3 7.5 C 0 km/h
Sensor: Nr:Datum:Temp:Abs-Feuchte:Windchill:Wind:
Aussen-T/F 2401 31-05-2014 08:10:00 7.8 C 7.67 g/m*3 7.8 C 0 km/h
2402 31-05-2014 08:15:00 8.1 C 7.82 g/m*3 8.1 C 0 km/h
2403 31-05-2014 08:20:00 8.4 C 7.8 g/m*3 8.4 C 0 km/h
2404 31-05-2014 08:25:00 8.6 C 7.91 g/m*3 8.6 C 0 km/h
2405 31-05-2014 08:30:00 8.8 C 7.83 g/m*3 8.8 C 0 km/h
2406 31-05-2014 08:35:00 8.9 C 7.88 g/m*3 8.9 C 0 km/h
2407 31-05-2014 08:40:00 9.1 C 7.99 g/m*3 9.1 C 0 km/h
2408 31-05-2014 08:45:00 9.3 C 8.09 g/m*3 9.3 C 0 km/h
2409 31-05-2014 08:50:00 9.5 C 8.19 g/m*3 9.5 C 0 km/h
2410 31-05-2014 08:55:00 9.8 C 8.26 g/m*3 9.8 C 0 km/h
2411 31-05-2014 09:00:00 10.1 C 8.32 g/m*3 10.1 C 0 km/h
2412 31-05-2014 09:05:00 10.3 C 8.33 g/m*3 10.3 C 1.6 km/h
2413 31-05-2014 09:10:00 10.5 C 8.44 g/m*3 10.5 C 0 km/h
2414 31-05-2014 09:15:00 10.3 C 8.33 g/m*3 10.3 C 0 km/h
2415 31-05-2014 09:20:00 10.2 C 8.37 g/m*3 10.2 C 0 km/h
2416 31-05-2014 09:25:00 10.2 C 8.47 g/m*3 10.2 C 0 km/h
2417 31-05-2014 09:30:00 10.2 C 8.56 g/m*3 10.2 C 0 km/h
2418 31-05-2014 09:35:00 10.2 C 8.56 g/m*3 10.2 C 0 km/h
2419 31-05-2014 09:40:00 10.3 C 8.62 g/m*3 10.3 C 0 km/h
2420 31-05-2014 09:45:00 10.4 C 8.58 g/m*3 10.4 C 0 km/h
2421 31-05-2014 09:50:00 10.7 C 8.74 g/m*3 10.7 C 0 km/h
2422 31-05-2014 09:55:00 11.2 C 8.92 g/m*3 11.2 C 1.6 km/h
2423 31-05-2014 10:00:00 11.9 C 9.11 g/m*3 11.9 C 0 km/h
2424 31-05-2014 10:05:00 12.5 C 9.24 g/m*3 12.5 C 0 km/h
2425 31-05-2014 10:10:00 12.9 C 9.24 g/m*3 12.9 C 0 km/h
Sensor: Nr:Datum:Temp:Abs-Feuchte:Windchill:Wind:
Aussen-T/F 2426 31-05-2014 10:15:00 13.2 C 9.42 g/m*3 13.2 C 0 km/h
2427 31-05-2014 10:20:00 13.7 C 9.59 g/m*3 13.7 C 0 km/h
2428 31-05-2014 10:25:00 13.9 C 9.59 g/m*3 13.9 C 0 km/h
2429 31-05-2014 10:30:00 14.1 C 9.95 g/m*3 14.1 C 0 km/h
2430 31-05-2014 10:35:00 14.2 C 9.77 g/m*3 14.2 C 1.6 km/h
2431 31-05-2014 10:40:00 14.5 C 9.58 g/m*3 14.5 C 0 km/h
2432 31-05-2014 10:45:00 14.8 C 9.37 g/m*3 14.8 C 1.6 km/h
2433 31-05-2014 10:50:00 15.3 C 9.92 g/m*3 15.3 C 0 km/h
2434 31-05-2014 10:55:00 15.6 C 10.24 g/m*3 15.6 C 0 km/h
2435 31-05-2014 11:00:00 15.9 C 9.34 g/m*3 15.9 C 1.6 km/h
2436 31-05-2014 11:05:00 16.3 C 9.71 g/m*3 16.3 C 4.8 km/h
2437 31-05-2014 11:10:00 16.9 C 10.07 g/m*3 16.9 C 6.4 km/h
2438 31-05-2014 11:15:00 17.3 C 10.16 g/m*3 17.3 C 4.8 km/h
2439 31-05-2014 11:20:00 17.6 C 9.9 g/m*3 17.6 C 3.2 km/h
2440 31-05-2014 11:25:00 17.6 C 10.05 g/m*3 17.6 C 1.6 km/h
2441 31-05-2014 11:30:00 17.7 C 9.66 g/m*3 17.7 C 6.4 km/h
2442 31-05-2014 11:35:00 17.9 C 10.54 g/m*3 17.9 C 1.6 km/h
2443 31-05-2014 11:40:00 18 C 10.44 g/m*3 18 C 3.2 km/h
2444 31-05-2014 11:45:00 18.3 C 9.69 g/m*3 18.3 C 3.2 km/h
2445 31-05-2014 11:50:00 18.7 C 9.45 g/m*3 18.7 C 8.1 km/h
2446 31-05-2014 11:55:00 18.8 C 9.82 g/m*3 18.8 C 4.8 km/h
2447 31-05-2014 12:00:00 19.2 C 9.56 g/m*3 19.2 C 8.1 km/h
2448 31-05-2014 12:05:00 19.6 C 9.62 g/m*3 19.6 C 4.8 km/h
2449 31-05-2014 12:10:00 19.7 C 8.83 g/m*3 19.7 C 9.7 km/h
2450 31-05-2014 12:15:00 19.6 C 9.12 g/m*3 19.6 C 8.1 km/h
Sensor: Nr:Datum:Temp:Abs-Feuchte:Windchill:Wind:
Aussen-T/F 2451 31-05-2014 12:20:00 19.3 C 8.79 g/m*3 19.3 C 3.2 km/h
2452 31-05-2014 12:25:00 18.9 C 8.91 g/m*3 18.9 C 8.1 km/h
2453 31-05-2014 12:30:00 18.8 C 8.54 g/m*3 18.8 C 6.4 km/h
2454 31-05-2014 12:35:00 18.8 C 8.54 g/m*3 18.8 C 4.8 km/h
2455 31-05-2014 12:40:00 18.9 C 8.75 g/m*3 18.9 C 9.7 km/h
2456 31-05-2014 12:45:00 18.7 C 8.81 g/m*3 18.7 C 8.1 km/h
2457 31-05-2014 12:50:00 18.6 C 8.59 g/m*3 18.6 C 8.1 km/h
2458 31-05-2014 12:55:00 18.8 C 9.02 g/m*3 18.8 C 9.7 km/h
2459 31-05-2014 13:00:00 19.2 C 9.07 g/m*3 19.2 C 6.4 km/h
2460 31-05-2014 13:05:00 19.4 C 8.84 g/m*3 19.4 C 9.7 km/h
2461 31-05-2014 13:10:00 19.4 C 8.51 g/m*3 19.4 C 8.1 km/h
2462 31-05-2014 13:15:00 19.4 C 8.84 g/m*3 19.4 C 4.8 km/h
2463 31-05-2014 13:20:00 19.7 C 8.49 g/m*3 19.7 C 4.8 km/h
2464 31-05-2014 13:25:00 19.9 C 8.59 g/m*3 19.9 C 3.2 km/h
2465 31-05-2014 13:30:00 20.2 C 9.09 g/m*3 20.2 C 4.8 km/h
2466 31-05-2014 13:35:00 20.4 C 9.38 g/m*3 20.4 C 6.4 km/h
2467 31-05-2014 13:40:00 20.7 C 9.36 g/m*3 20.7 C 9.7 km/h
2468 31-05-2014 13:45:00 20.8 C 8.51 g/m*3 20.8 C 6.4 km/h
2469 31-05-2014 13:50:00 21.1 C 9.4 g/m*3 21.1 C 6.4 km/h
2470 31-05-2014 13:55:00 20.8 C 7.97 g/m*3 20.8 C 3.2 km/h
2471 31-05-2014 14:00:00 20.5 C 8.19 g/m*3 20.5 C 6.4 km/h
2472 31-05-2014 14:05:00 20.1 C 8.17 g/m*3 20.1 C 9.7 km/h
2473 31-05-2014 14:10:00 19.8 C 8.37 g/m*3 19.8 C 6.4 km/h
2474 31-05-2014 14:15:00 19.6 C 8.27 g/m*3 19.6 C 6.4 km/h
2475 31-05-2014 14:20:00 19.4 C 8.34 g/m*3 19.4 C 6.4 km/h
Sensor: Nr:Datum:Temp:Abs-Feuchte:Windchill:Wind:
Aussen-T/F 2476 31-05-2014 14:25:00 19.3 C 8.29 g/m*3 19.3 C 3.2 km/h
2477 31-05-2014 14:30:00 19.3 C 8.63 g/m*3 19.3 C 3.2 km/h
2478 31-05-2014 14:35:00 19.3 C 8.13 g/m*3 19.3 C 3.2 km/h
2479 31-05-2014 14:40:00 19.3 C 7.8 g/m*3 19.3 C 4.8 km/h
2480 31-05-2014 14:45:00 19.7 C 8.49 g/m*3 19.7 C 6.4 km/h
2481 31-05-2014 14:50:00 20.4 C 8.67 g/m*3 20.4 C 4.8 km/h
2482 31-05-2014 14:55:00 21 C 8.24 g/m*3 21 C 6.4 km/h
2483 31-05-2014 15:00:00 21.3 C 8.02 g/m*3 21.3 C 4.8 km/h
2484 31-05-2014 15:05:00 21.1 C 7.92 g/m*3 21.1 C 4.8 km/h
2485 31-05-2014 15:10:00 20.8 C 8.15 g/m*3 20.8 C 3.2 km/h
2486 31-05-2014 15:15:00 20.6 C 8.23 g/m*3 20.6 C 4.8 km/h
2487 31-05-2014 15:20:00 20.5 C 8.19 g/m*3 20.5 C 6.4 km/h
2488 31-05-2014 15:25:00 20.3 C 8.27 g/m*3 20.3 C 6.4 km/h
2489 31-05-2014 15:30:00 20.2 C 9.27 g/m*3 20.2 C 4.8 km/h
2490 31-05-2014 15:35:00 19.7 C 10.19 g/m*3 19.7 C 0 km/h
2491 31-05-2014 15:40:00 19.7 C 10.02 g/m*3 19.7 C 0 km/h
2492 31-05-2014 15:45:00 20.3 C 8.62 g/m*3 20.3 C 1.6 km/h
2493 31-05-2014 15:50:00 20.7 C 7.56 g/m*3 20.7 C 4.8 km/h
2494 31-05-2014 15:55:00 20.6 C 10.2 g/m*3 20.6 C 4.8 km/h
2495 31-05-2014 16:00:00 20.3 C 8.09 g/m*3 20.3 C 8.1 km/h
2496 31-05-2014 16:05:00 20.3 C 8.44 g/m*3 20.3 C 1.6 km/h
2497 31-05-2014 16:10:00 20.3 C 8.62 g/m*3 20.3 C 6.4 km/h
2498 31-05-2014 16:15:00 20.3 C 9.5 g/m*3 20.3 C 4.8 km/h
2499 31-05-2014 16:20:00 19.7 C 9.68 g/m*3 19.7 C 1.6 km/h
2500 31-05-2014 16:25:00 19.2 C 9.89 g/m*3 19.2 C 3.2 km/h
Sensor: Nr:Datum:Temp:Abs-Feuchte:Windchill:Wind:
Aussen-T/F 2501 31-05-2014 16:30:00 18.9 C 8.42 g/m*3 18.9 C 4.8 km/h
2502 31-05-2014 16:35:00 19.1 C 8.52 g/m*3 19.1 C 6.4 km/h
2503 31-05-2014 16:40:00 19.3 C 9.12 g/m*3 19.3 C 4.8 km/h
2504 31-05-2014 16:45:00 18.8 C 10.47 g/m*3 18.8 C 0 km/h
2505 31-05-2014 16:50:00 18.4 C 9.75 g/m*3 18.4 C 1.6 km/h
2506 31-05-2014 16:55:00 18.2 C 10.57 g/m*3 18.2 C 0 km/h
2507 31-05-2014 17:00:00 18 C 10.75 g/m*3 18 C 0 km/h
2508 31-05-2014 17:05:00 17.9 C 10.38 g/m*3 17.9 C 0 km/h
2509 31-05-2014 17:10:00 18.4 C 10.54 g/m*3 18.4 C 3.2 km/h
2510 31-05-2014 17:15:00 19.9 C 9.11 g/m*3 19.9 C 11.3 km/h
2511 31-05-2014 17:20:00 20.9 C 9.11 g/m*3 20.9 C 8.1 km/h
2512 31-05-2014 17:25:00 21.2 C 8.71 g/m*3 21.2 C 8.1 km/h
2513 31-05-2014 17:30:00 20.9 C 8.38 g/m*3 20.9 C 4.8 km/h
2514 31-05-2014 17:35:00 20.8 C 8.33 g/m*3 20.8 C 9.7 km/h
2515 31-05-2014 17:40:00 20.8 C 8.51 g/m*3 20.8 C 9.7 km/h
2516 31-05-2014 17:45:00 20.8 C 8.69 g/m*3 20.8 C 4.8 km/h
2517 31-05-2014 17:50:00 20.7 C 8.64 g/m*3 20.7 C 4.8 km/h
2518 31-05-2014 17:55:00 20.4 C 8.49 g/m*3 20.4 C 8.1 km/h
2519 31-05-2014 18:00:00 20.3 C 8.97 g/m*3 20.3 C 4.8 km/h
2520 31-05-2014 18:05:00 20.2 C 8.92 g/m*3 20.2 C 4.8 km/h
2521 31-05-2014 18:10:00 20.2 C 8.39 g/m*3 20.2 C 6.4 km/h
2522 31-05-2014 18:15:00 20.2 C 8.39 g/m*3 20.2 C 6.4 km/h
2523 31-05-2014 18:20:00 20.4 C 8.67 g/m*3 20.4 C 4.8 km/h
2524 31-05-2014 18:25:00 21 C 8.61 g/m*3 21 C 4.8 km/h
2525 31-05-2014 18:30:00 21.6 C 8.16 g/m*3 21.6 C 4.8 km/h
Sensor: Nr:Datum:Temp:Abs-Feuchte:Windchill:Wind:
Aussen-T/F 2526 31-05-2014 18:35:00 21.7 C 8.39 g/m*3 21.7 C 4.8 km/h
2527 31-05-2014 18:40:00 21.4 C 10.31 g/m*3 21.4 C 3.2 km/h
2528 31-05-2014 18:45:00 21.4 C 8.44 g/m*3 21.4 C 6.4 km/h
2529 31-05-2014 18:50:00 21.7 C 8.01 g/m*3 21.7 C 6.4 km/h
2530 31-05-2014 18:55:00 21.9 C 8.3 g/m*3 21.9 C 6.4 km/h
2531 31-05-2014 19:00:00 22.1 C 8.59 g/m*3 22.1 C 11.3 km/h
2532 31-05-2014 19:05:00 22 C 8.73 g/m*3 22 C 9.7 km/h
2533 31-05-2014 19:10:00 21.8 C 8.25 g/m*3 21.8 C 9.7 km/h
2534 31-05-2014 19:15:00 21.7 C 8.58 g/m*3 21.7 C 6.4 km/h
2535 31-05-2014 19:20:00 21.5 C 8.3 g/m*3 21.5 C 6.4 km/h
2536 31-05-2014 19:25:00 21.3 C 8.2 g/m*3 21.3 C 6.4 km/h
2537 31-05-2014 19:30:00 21 C 8.24 g/m*3 21 C 4.8 km/h
2538 31-05-2014 19:35:00 20.6 C 7.87 g/m*3 20.6 C 8.1 km/h
2539 31-05-2014 19:40:00 20.4 C 7.96 g/m*3 20.4 C 9.7 km/h
2540 31-05-2014 19:45:00 20.2 C 7.87 g/m*3 20.2 C 4.8 km/h
2541 31-05-2014 19:50:00 20.1 C 7.82 g/m*3 20.1 C 4.8 km/h
2542 31-05-2014 19:55:00 19.9 C 8.08 g/m*3 19.9 C 1.6 km/h
2543 31-05-2014 20:00:00 19.7 C 9.85 g/m*3 19.7 C 0 km/h
2544 31-05-2014 20:05:00 18.9 C 10.37 g/m*3 18.9 C 0 km/h
2545 31-05-2014 20:10:00 18.2 C 10.41 g/m*3 18.2 C 0 km/h
2546 31-05-2014 20:15:00 17.7 C 10.26 g/m*3 17.7 C 0 km/h
2547 31-05-2014 20:20:00 17.3 C 10.16 g/m*3 17.3 C 0 km/h
2548 31-05-2014 20:25:00 16.9 C 10.07 g/m*3 16.9 C 0 km/h
2549 31-05-2014 20:30:00 16.7 C 10.37 g/m*3 16.7 C 0 km/h
2550 31-05-2014 20:35:00 16.4 C 10.19 g/m*3 16.4 C 1.6 km/h
Sensor: Nr:Datum:Temp:Abs-Feuchte:Windchill:Wind:
Aussen-T/F 2551 31-05-2014 20:40:00 16.2 C 10.07 g/m*3 16.2 C 1.6 km/h
2552 31-05-2014 20:45:00 16 C 10.08 g/m*3 16 C 0 km/h
2553 31-05-2014 20:50:00 15.8 C 9.96 g/m*3 15.8 C 0 km/h
2554 31-05-2014 20:55:00 15.6 C 9.97 g/m*3 15.6 C 0 km/h
2555 31-05-2014 21:00:00 15.3 C 9.79 g/m*3 15.3 C 0 km/h
2556 31-05-2014 21:05:00 15.2 C 9.73 g/m*3 15.2 C 0 km/h
2557 31-05-2014 21:10:00 15 C 9.75 g/m*3 15 C 1.6 km/h
2558 31-05-2014 21:15:00 14.8 C 9.63 g/m*3 14.8 C 1.6 km/h
2559 31-05-2014 21:20:00 14.7 C 9.57 g/m*3 14.7 C 1.6 km/h
2560 31-05-2014 21:25:00 14.4 C 9.64 g/m*3 14.4 C 0 km/h
2561 31-05-2014 21:30:00 14.3 C 9.58 g/m*3 14.3 C 1.6 km/h
2562 31-05-2014 21:35:00 14.2 C 9.52 g/m*3 14.2 C 1.6 km/h
2563 31-05-2014 21:40:00 14.1 C 9.59 g/m*3 14.1 C 1.6 km/h
2564 31-05-2014 21:45:00 13.9 C 9.47 g/m*3 13.9 C 0 km/h
2565 31-05-2014 21:50:00 13.8 C 9.41 g/m*3 13.8 C 0 km/h
2566 31-05-2014 21:55:00 13.8 C 9.29 g/m*3 13.8 C 0 km/h
2567 31-05-2014 22:00:00 13.7 C 9.35 g/m*3 13.7 C 0 km/h
2568 31-05-2014 22:05:00 13.7 C 9.35 g/m*3 13.7 C 0 km/h
2569 31-05-2014 22:10:00 13.6 C 9.18 g/m*3 13.6 C 0 km/h
2570 31-05-2014 22:15:00 13.6 C 9.3 g/m*3 13.6 C 0 km/h
2571 31-05-2014 22:20:00 13.6 C 9.3 g/m*3 13.6 C 0 km/h
2572 31-05-2014 22:25:00 13.5 C 9.36 g/m*3 13.5 C 0 km/h
2573 31-05-2014 22:30:00 13.5 C 9.24 g/m*3 13.5 C 0 km/h
2574 31-05-2014 22:35:00 13.5 C 9.36 g/m*3 13.5 C 0 km/h
2575 31-05-2014 22:40:00 13.4 C 9.42 g/m*3 13.4 C 0 km/h
Sensor: Nr:Datum:Temp:Abs-Feuchte:Windchill:Wind:
Aussen-T/F 2576 31-05-2014 22:45:00 13.4 C 9.53 g/m*3 13.4 C 0 km/h
2577 31-05-2014 22:50:00 13.4 C 9.3 g/m*3 13.4 C 0 km/h
2578 31-05-2014 22:55:00 13.4 C 9.18 g/m*3 13.4 C 0 km/h
2579 31-05-2014 23:00:00 13.4 C 9.18 g/m*3 13.4 C 0 km/h
2580 31-05-2014 23:05:00 13.4 C 9.18 g/m*3 13.4 C 0 km/h
2581 31-05-2014 23:10:00 13.3 C 9.13 g/m*3 13.3 C 0 km/h
2582 31-05-2014 23:15:00 13.3 C 9.13 g/m*3 13.3 C 0 km/h
2583 31-05-2014 23:20:00 13.3 C 9.24 g/m*3 13.3 C 0 km/h
2584 31-05-2014 23:25:00 13.3 C 9.24 g/m*3 13.3 C 0 km/h
2585 31-05-2014 23:30:00 13.2 C 9.3 g/m*3 13.2 C 0 km/h
2586 31-05-2014 23:35:00 13.1 C 9.36 g/m*3 13.1 C 0 km/h
2587 31-05-2014 23:40:00 13 C 9.19 g/m*3 13 C 0 km/h
2588 31-05-2014 23:45:00 12.9 C 9.13 g/m*3 12.9 C 0 km/h
2589 31-05-2014 23:50:00 12.8 C 9.07 g/m*3 12.8 C 0 km/h
2590 31-05-2014 23:55:00 12.7 C 9.13 g/m*3 12.7 C 0 km/h
2591 01-06-2014 00:00:00 12.6 C 8.96 g/m*3 12.6 C 0 km/h
2592 01-06-2014 00:05:00 12.4 C 8.96 g/m*3 12.4 C 0 km/h
2593 01-06-2014 00:10:00 12.4 C 8.96 g/m*3 12.4 C 0 km/h
2594 01-06-2014 00:15:00 12.4 C 8.96 g/m*3 12.4 C 0 km/h
2595 01-06-2014 00:20:00 12.4 C 9.07 g/m*3 12.4 C 0 km/h
2596 01-06-2014 00:25:00 12.3 C 8.9 g/m*3 12.3 C 0 km/h
2597 01-06-2014 00:30:00 12.4 C 9.07 g/m*3 12.4 C 0 km/h
2598 01-06-2014 00:35:00 12.4 C 9.07 g/m*3 12.4 C 0 km/h
2599 01-06-2014 00:40:00 12.4 C 9.07 g/m*3 12.4 C 0 km/h
2600 01-06-2014 00:45:00 12.4 C 9.07 g/m*3 12.4 C 0 km/h
Sensor: Nr:Datum:Temp:Abs-Feuchte:Windchill:Wind:
Aussen-T/F 2601 01-06-2014 00:50:00 12.4 C 8.96 g/m*3 12.4 C 0 km/h
2602 01-06-2014 00:55:00 12.3 C 8.9 g/m*3 12.3 C 0 km/h
2603 01-06-2014 01:00:00 12.3 C 8.9 g/m*3 12.3 C 3.2 km/h
2604 01-06-2014 01:05:00 12.3 C 8.9 g/m*3 12.3 C 0 km/h
2605 01-06-2014 01:10:00 12.2 C 8.96 g/m*3 12.2 C 0 km/h
2606 01-06-2014 01:15:00 12.2 C 8.96 g/m*3 12.2 C 0 km/h
2607 01-06-2014 01:20:00 12.2 C 8.96 g/m*3 12.2 C 0 km/h
2608 01-06-2014 01:25:00 12.3 C 9.01 g/m*3 12.3 C 0 km/h
2609 01-06-2014 01:30:00 12.3 C 9.01 g/m*3 12.3 C 0 km/h
2610 01-06-2014 01:35:00 12.3 C 9.01 g/m*3 12.3 C 0 km/h
2611 01-06-2014 01:40:00 12.2 C 8.96 g/m*3 12.2 C 0 km/h
2612 01-06-2014 01:45:00 12.1 C 9.01 g/m*3 12.1 C 0 km/h
2613 01-06-2014 01:50:00 12.1 C 9.01 g/m*3 12.1 C 0 km/h
2614 01-06-2014 01:55:00 12 C 8.85 g/m*3 12 C 0 km/h
2615 01-06-2014 02:00:00 11.9 C 8.9 g/m*3 11.9 C 1.6 km/h
2616 01-06-2014 02:05:00 11.8 C 8.84 g/m*3 11.8 C 0 km/h
2617 01-06-2014 02:10:00 11.8 C 8.84 g/m*3 11.8 C 0 km/h
2618 01-06-2014 02:15:00 11.7 C 8.79 g/m*3 11.7 C 0 km/h
2619 01-06-2014 02:20:00 11.6 C 8.83 g/m*3 11.6 C 0 km/h
2620 01-06-2014 02:25:00 11.5 C 8.78 g/m*3 11.5 C 0 km/h
2621 01-06-2014 02:30:00 11.4 C 8.72 g/m*3 11.4 C 0 km/h
2622 01-06-2014 02:35:00 11.3 C 8.67 g/m*3 11.3 C 0 km/h
2623 01-06-2014 02:40:00 11.3 C 8.67 g/m*3 11.3 C 0 km/h
2624 01-06-2014 02:45:00 11.2 C 8.62 g/m*3 11.2 C 0 km/h
2625 01-06-2014 02:50:00 11.1 C 8.56 g/m*3 11.1 C 0 km/h
Sensor: Nr:Datum:Temp:Abs-Feuchte:Windchill:Wind:
Aussen-T/F 2626 01-06-2014 02:55:00 11 C 8.51 g/m*3 11 C 0 km/h
2627 01-06-2014 03:00:00 10.9 C 8.45 g/m*3 10.9 C 0 km/h
2628 01-06-2014 03:05:00 10.8 C 8.5 g/m*3 10.8 C 0 km/h
2629 01-06-2014 03:10:00 10.6 C 8.49 g/m*3 10.6 C 0 km/h
2630 01-06-2014 03:15:00 10.5 C 8.34 g/m*3 10.5 C 0 km/h
2631 01-06-2014 03:20:00 10.4 C 8.38 g/m*3 10.4 C 0 km/h
2632 01-06-2014 03:25:00 10.3 C 8.33 g/m*3 10.3 C 0 km/h
2633 01-06-2014 03:30:00 10.3 C 8.43 g/m*3 10.3 C 0 km/h
2634 01-06-2014 03:35:00 10.3 C 8.43 g/m*3 10.3 C 0 km/h
2635 01-06-2014 03:40:00 10.3 C 8.43 g/m*3 10.3 C 1.6 km/h
2636 01-06-2014 03:45:00 10.4 C 8.48 g/m*3 10.4 C 1.6 km/h
2637 01-06-2014 03:50:00 10.4 C 8.48 g/m*3 10.4 C 0 km/h
2638 01-06-2014 03:55:00 10.4 C 8.48 g/m*3 10.4 C 0 km/h
2639 01-06-2014 04:00:00 10.4 C 8.48 g/m*3 10.4 C 0 km/h
2640 01-06-2014 04:05:00 10.3 C 8.43 g/m*3 10.3 C 0 km/h
2641 01-06-2014 04:10:00 10.3 C 8.52 g/m*3 10.3 C 0 km/h
2642 01-06-2014 04:15:00 10.2 C 8.47 g/m*3 10.2 C 0 km/h
2643 01-06-2014 04:20:00 10.2 C 8.47 g/m*3 10.2 C 0 km/h
2644 01-06-2014 04:25:00 10.2 C 8.47 g/m*3 10.2 C 0 km/h
2645 01-06-2014 04:30:00 10.2 C 8.47 g/m*3 10.2 C 0 km/h
2646 01-06-2014 04:35:00 10.2 C 8.56 g/m*3 10.2 C 0 km/h
2647 01-06-2014 04:40:00 10.2 C 8.56 g/m*3 10.2 C 0 km/h
2648 01-06-2014 04:45:00 10.2 C 8.56 g/m*3 10.2 C 0 km/h
2649 01-06-2014 04:50:00 10.2 C 8.56 g/m*3 10.2 C 0 km/h
2650 01-06-2014 04:55:00 10.3 C 8.62 g/m*3 10.3 C 0 km/h
Sensor: Nr:Datum:Temp:Abs-Feuchte:Windchill:Wind:
Aussen-T/F 2651 01-06-2014 05:00:00 10.3 C 8.62 g/m*3 10.3 C 0 km/h
2652 01-06-2014 05:05:00 10.3 C 8.62 g/m*3 10.3 C 0 km/h
2653 01-06-2014 05:10:00 10.3 C 8.62 g/m*3 10.3 C 0 km/h
2654 01-06-2014 05:15:00 10.2 C 8.56 g/m*3 10.2 C 0 km/h
2655 01-06-2014 05:20:00 10.2 C 8.56 g/m*3 10.2 C 0 km/h
2656 01-06-2014 05:25:00 10.3 C 8.71 g/m*3 10.3 C 0 km/h
2657 01-06-2014 05:30:00 10.3 C 8.71 g/m*3 10.3 C 0 km/h
2658 01-06-2014 05:35:00 10.3 C 8.71 g/m*3 10.3 C 0 km/h
2659 01-06-2014 05:40:00 10.6 C 8.78 g/m*3 10.6 C 1.6 km/h
2660 01-06-2014 05:45:00 10.7 C 8.84 g/m*3 10.7 C 1.6 km/h
2661 01-06-2014 05:50:00 10.8 C 8.8 g/m*3 10.8 C 0 km/h
2662 01-06-2014 05:55:00 10.9 C 8.85 g/m*3 10.9 C 0 km/h
2663 01-06-2014 06:00:00 11.1 C 8.96 g/m*3 11.1 C 1.6 km/h
2664 01-06-2014 06:05:00 11.2 C 8.92 g/m*3 11.2 C 1.6 km/h
2665 01-06-2014 06:10:00 11.2 C 8.92 g/m*3 11.2 C 0 km/h
2666 01-06-2014 06:15:00 11.3 C 8.98 g/m*3 11.3 C 1.6 km/h
2667 01-06-2014 06:20:00 11.4 C 8.83 g/m*3 11.4 C 6.4 km/h
2668 01-06-2014 06:25:00 11.4 C 8.83 g/m*3 11.4 C 0 km/h
2669 01-06-2014 06:30:00 11.6 C 8.94 g/m*3 11.6 C 3.2 km/h
2670 01-06-2014 06:35:00 11.6 C 8.73 g/m*3 11.6 C 0 km/h
2671 01-06-2014 06:40:00 11.7 C 8.79 g/m*3 11.7 C 3.2 km/h
2672 01-06-2014 06:45:00 11.8 C 8.84 g/m*3 11.8 C 1.6 km/h
2673 01-06-2014 06:50:00 11.8 C 8.74 g/m*3 11.8 C 0 km/h
2674 01-06-2014 06:55:00 11.8 C 8.84 g/m*3 11.8 C 3.2 km/h
2675 01-06-2014 07:00:00 11.8 C 8.84 g/m*3 11.8 C 4.8 km/h
Sensor: Nr:Datum:Temp:Abs-Feuchte:Windchill:Wind:
Aussen-T/F 2676 01-06-2014 07:05:00 11.8 C 8.74 g/m*3 11.8 C 1.6 km/h
2677 01-06-2014 07:10:00 11.9 C 8.9 g/m*3 11.9 C 0 km/h
2678 01-06-2014 07:15:00 11.9 C 8.9 g/m*3 11.9 C 0 km/h
2679 01-06-2014 07:20:00 12 C 8.85 g/m*3 12 C 0 km/h
2680 01-06-2014 07:25:00 12.1 C 8.9 g/m*3 12.1 C 0 km/h
2681 01-06-2014 07:30:00 12.2 C 9.06 g/m*3 12.2 C 0 km/h
2682 01-06-2014 07:35:00 12.3 C 9.12 g/m*3 12.3 C 6.4 km/h
2683 01-06-2014 07:40:00 12.3 C 9.01 g/m*3 12.3 C 1.6 km/h
2684 01-06-2014 07:45:00 12.4 C 8.96 g/m*3 12.4 C 1.6 km/h
2685 01-06-2014 07:50:00 12.4 C 8.96 g/m*3 12.4 C 0 km/h
2686 01-06-2014 07:55:00 12.4 C 8.96 g/m*3 12.4 C 1.6 km/h
2687 01-06-2014 08:00:00 12.4 C 8.85 g/m*3 12.4 C 1.6 km/h
2688 01-06-2014 08:05:00 12.6 C 9.07 g/m*3 12.6 C 0 km/h
2689 01-06-2014 08:10:00 12.8 C 9.18 g/m*3 12.8 C 3.2 km/h
2690 01-06-2014 08:15:00 12.9 C 9.13 g/m*3 12.9 C 3.2 km/h
2691 01-06-2014 08:20:00 12.9 C 9.02 g/m*3 12.9 C 3.2 km/h
2692 01-06-2014 08:25:00 13 C 9.3 g/m*3 13 C 0 km/h
2693 01-06-2014 08:30:00 13.1 C 9.24 g/m*3 13.1 C 3.2 km/h
2694 01-06-2014 08:35:00 13.2 C 9.19 g/m*3 13.2 C 0 km/h
2695 01-06-2014 08:40:00 13.2 C 9.19 g/m*3 13.2 C 0 km/h
2696 01-06-2014 08:45:00 13.2 C 9.19 g/m*3 13.2 C 1.6 km/h
2697 01-06-2014 08:50:00 13.3 C 9.36 g/m*3 13.3 C 0 km/h
2698 01-06-2014 08:55:00 13.5 C 9.47 g/m*3 13.5 C 1.6 km/h
2699 01-06-2014 09:00:00 13.7 C 9.47 g/m*3 13.7 C 3.2 km/h
2700 01-06-2014 09:05:00 13.7 C 9.47 g/m*3 13.7 C 3.2 km/h
Sensor: Nr:Datum:Temp:Abs-Feuchte:Windchill:Wind:
Aussen-T/F 2701 01-06-2014 09:10:00 13.7 C 9.47 g/m*3 13.7 C 1.6 km/h
2702 01-06-2014 09:15:00 13.7 C 9.47 g/m*3 13.7 C 3.2 km/h
2703 01-06-2014 09:20:00 13.7 C 9.47 g/m*3 13.7 C 1.6 km/h
2704 01-06-2014 09:25:00 14.1 C 9.59 g/m*3 14.1 C 3.2 km/h
2705 01-06-2014 09:30:00 14.1 C 9.47 g/m*3 14.1 C 3.2 km/h
2706 01-06-2014 09:35:00 14 C 9.29 g/m*3 14 C 3.2 km/h
2707 01-06-2014 09:40:00 14.1 C 9.47 g/m*3 14.1 C 1.6 km/h
2708 01-06-2014 09:45:00 14.2 C 9.65 g/m*3 14.2 C 3.2 km/h
2709 01-06-2014 09:50:00 14.4 C 9.77 g/m*3 14.4 C 1.6 km/h
2710 01-06-2014 09:55:00 14.7 C 9.57 g/m*3 14.7 C 3.2 km/h
2711 01-06-2014 10:00:00 15.1 C 9.8 g/m*3 15.1 C 3.2 km/h
2712 01-06-2014 10:05:00 15.5 C 9.78 g/m*3 15.5 C 3.2 km/h
2713 01-06-2014 10:10:00 15.9 C 9.62 g/m*3 15.9 C 4.8 km/h
2714 01-06-2014 10:15:00 16.1 C 9.6 g/m*3 16.1 C 4.8 km/h
2715 01-06-2014 10:20:00 16.3 C 9.85 g/m*3 16.3 C 1.6 km/h
2716 01-06-2014 10:25:00 16.4 C 9.63 g/m*3 16.4 C 3.2 km/h
2717 01-06-2014 10:30:00 16.5 C 9.55 g/m*3 16.5 C 4.8 km/h
2718 01-06-2014 10:35:00 16.5 C 9.69 g/m*3 16.5 C 4.8 km/h
2719 01-06-2014 10:40:00 16.7 C 9.52 g/m*3 16.7 C 4.8 km/h
2720 01-06-2014 10:45:00 16.9 C 9.78 g/m*3 16.9 C 8.1 km/h
2721 01-06-2014 10:50:00 17.1 C 9.61 g/m*3 17.1 C 4.8 km/h
2722 01-06-2014 10:55:00 17.3 C 9.87 g/m*3 17.3 C 6.4 km/h
2723 01-06-2014 11:00:00 17.4 C 9.19 g/m*3 17.4 C 9.7 km/h
2724 01-06-2014 11:05:00 17.6 C 9.6 g/m*3 17.6 C 9.7 km/h
2725 01-06-2014 11:10:00 17.8 C 9.71 g/m*3 17.8 C 6.4 km/h
Sensor: Nr:Datum:Temp:Abs-Feuchte:Windchill:Wind:
Aussen-T/F 2726 01-06-2014 11:15:00 18.1 C 9.58 g/m*3 18.1 C 4.8 km/h
2727 01-06-2014 11:20:00 18.2 C 9.33 g/m*3 18.2 C 9.7 km/h
2728 01-06-2014 11:25:00 18.3 C 9.07 g/m*3 18.3 C 8.1 km/h
2729 01-06-2014 11:30:00 18.3 C 9.85 g/m*3 18.3 C 8.1 km/h
2730 01-06-2014 11:35:00 18.4 C 9.44 g/m*3 18.4 C 9.7 km/h
2731 01-06-2014 11:40:00 18.4 C 9.91 g/m*3 18.4 C 4.8 km/h
2732 01-06-2014 11:45:00 18.6 C 9.71 g/m*3 18.6 C 4.8 km/h
2733 01-06-2014 11:50:00 18.8 C 9.34 g/m*3 18.8 C 8.1 km/h
2734 01-06-2014 11:55:00 19.1 C 9.84 g/m*3 19.1 C 4.8 km/h
2735 01-06-2014 12:00:00 19.2 C 9.56 g/m*3 19.2 C 9.7 km/h
2736 01-06-2014 12:05:00 19.2 C 9.73 g/m*3 19.2 C 8.1 km/h
2737 01-06-2014 12:10:00 19.4 C 9.84 g/m*3 19.4 C 11.3 km/h
2738 01-06-2014 12:15:00 19.6 C 9.62 g/m*3 19.6 C 6.4 km/h
2739 01-06-2014 12:20:00 19.7 C 10.19 g/m*3 19.7 C 6.4 km/h
2740 01-06-2014 12:25:00 19.9 C 8.93 g/m*3 19.9 C 9.7 km/h
2741 01-06-2014 12:30:00 19.7 C 9.51 g/m*3 19.7 C 8.1 km/h
2742 01-06-2014 12:35:00 20 C 9.51 g/m*3 20 C 4.8 km/h
2743 01-06-2014 12:40:00 20.3 C 9.5 g/m*3 20.3 C 11.3 km/h
2744 01-06-2014 12:45:00 20.3 C 9.15 g/m*3 20.3 C 8.1 km/h
2745 01-06-2014 12:50:00 20.4 C 9.73 g/m*3 20.4 C 11.3 km/h
2746 01-06-2014 12:55:00 20.7 C 9.18 g/m*3 20.7 C 4.8 km/h
2747 01-06-2014 13:00:00 20.6 C 9.13 g/m*3 20.6 C 11.3 km/h
2748 01-06-2014 13:05:00 20.4 C 9.2 g/m*3 20.4 C 9.7 km/h
2749 01-06-2014 13:10:00 20.5 C 9.43 g/m*3 20.5 C 6.4 km/h
2750 01-06-2014 13:15:00 20.6 C 9.13 g/m*3 20.6 C 8.1 km/h
Sensor: Nr:Datum:Temp:Abs-Feuchte:Windchill:Wind:
Aussen-T/F 2751 01-06-2014 13:20:00 20.7 C 9.36 g/m*3 20.7 C 8.1 km/h
2752 01-06-2014 13:25:00 20.6 C 9.84 g/m*3 20.6 C 8.1 km/h
2753 01-06-2014 13:30:00 20.8 C 8.87 g/m*3 20.8 C 8.1 km/h
2754 01-06-2014 13:35:00 21.1 C 10.32 g/m*3 21.1 C 8.1 km/h
2755 01-06-2014 13:40:00 21.1 C 9.21 g/m*3 21.1 C 3.2 km/h
2756 01-06-2014 13:45:00 21.1 C 9.03 g/m*3 21.1 C 14.5 km/h
2757 01-06-2014 13:50:00 20.9 C 9.29 g/m*3 20.9 C 8.1 km/h
2758 01-06-2014 13:55:00 20.7 C 9.36 g/m*3 20.7 C 9.7 km/h
2759 01-06-2014 14:00:00 20.4 C 9.02 g/m*3 20.4 C 11.3 km/h
2760 01-06-2014 14:05:00 20.1 C 8.87 g/m*3 20.1 C 8.1 km/h
2761 01-06-2014 14:10:00 19.8 C 8.71 g/m*3 19.8 C 8.1 km/h
2762 01-06-2014 14:15:00 19.8 C 8.71 g/m*3 19.8 C 11.3 km/h
2763 01-06-2014 14:55:00 21.7 C 8.58 g/m*3 21.7 C 12.9 km/h
2764 01-06-2014 15:00:00 21.7 C 8.58 g/m*3 21.7 C 12.9 km/h
2765 01-06-2014 15:05:00 21.7 C 8.58 g/m*3 21.7 C 14.5 km/h
2766 01-06-2014 15:25:00 22.1 C 8.98 g/m*3 22.1 C 8.1 km/h
2767 01-06-2014 15:30:00 22.2 C 9.23 g/m*3 22.2 C 12.9 km/h
2768 01-06-2014 15:35:00 22.3 C 9.28 g/m*3 22.3 C 9.7 km/h
2769 01-06-2014 15:40:00 22.4 C 8.94 g/m*3 22.4 C 12.9 km/h
2770 01-06-2014 15:45:00 22.3 C 8.69 g/m*3 22.3 C 11.3 km/h
2771 01-06-2014 15:50:00 21.7 C 8.77 g/m*3 21.7 C 11.3 km/h
2772 01-06-2014 15:55:00 21.2 C 8.71 g/m*3 21.2 C 11.3 km/h
2773 01-06-2014 16:00:00 21 C 8.61 g/m*3 21 C 12.9 km/h
2774 01-06-2014 16:05:00 21 C 8.98 g/m*3 21 C 9.7 km/h
2775 01-06-2014 16:10:00 21 C 8.98 g/m*3 21 C 12.9 km/h
Sensor: Nr:Datum:Temp:Abs-Feuchte:Windchill:Wind:
Aussen-T/F 2776 01-06-2014 16:30:00 20.9 C 8.74 g/m*3 20.9 C 12.9 km/h
2777 01-06-2014 16:35:00 20.9 C 9.11 g/m*3 20.9 C 8.1 km/h
2778 01-06-2014 16:40:00 21.1 C 8.84 g/m*3 21.1 C 11.3 km/h
2779 01-06-2014 16:45:00 21.1 C 8.66 g/m*3 21.1 C 8.1 km/h
2780 01-06-2014 16:50:00 20.9 C 8.92 g/m*3 20.9 C 11.3 km/h
2781 01-06-2014 16:55:00 20.8 C 8.33 g/m*3 20.8 C 9.7 km/h
2782 01-06-2014 17:00:00 20.4 C 8.49 g/m*3 20.4 C 11.3 km/h
2783 01-06-2014 17:05:00 20.2 C 8.22 g/m*3 20.2 C 9.7 km/h
2784 01-06-2014 17:10:00 20 C 8.47 g/m*3 20 C 11.3 km/h
2785 01-06-2014 17:15:00 19.9 C 8.76 g/m*3 19.9 C 8.1 km/h
2786 01-06-2014 17:20:00 19.9 C 8.59 g/m*3 19.9 C 8.1 km/h
2787 01-06-2014 17:25:00 20 C 8.64 g/m*3 20 C 8.1 km/h
2788 01-06-2014 17:30:00 20.4 C 8.85 g/m*3 20.4 C 6.4 km/h
2789 01-06-2014 17:35:00 20.5 C 8.72 g/m*3 20.5 C 11.3 km/h
2790 01-06-2014 17:40:00 20.6 C 8.41 g/m*3 20.6 C 11.3 km/h
2791 01-06-2014 17:45:00 20.6 C 8.59 g/m*3 20.6 C 9.7 km/h
2792 01-06-2014 17:50:00 20.3 C 8.27 g/m*3 20.3 C 14.5 km/h
2793 01-06-2014 17:55:00 20.1 C 8 g/m*3 20.1 C 12.9 km/h
2794 01-06-2014 18:00:00 19.9 C 8.25 g/m*3 19.9 C 6.4 km/h
2795 01-06-2014 18:05:00 19.6 C 8.1 g/m*3 19.6 C 11.3 km/h
2796 01-06-2014 18:10:00 19.6 C 8.44 g/m*3 19.6 C 6.4 km/h
2797 01-06-2014 18:15:00 19.4 C 8.18 g/m*3 19.4 C 8.1 km/h
2798 01-06-2014 18:20:00 19.3 C 8.13 g/m*3 19.3 C 9.7 km/h
2799 01-06-2014 18:25:00 19.4 C 8.51 g/m*3 19.4 C 8.1 km/h
2800 01-06-2014 18:30:00 19.4 C 8.01 g/m*3 19.4 C 8.1 km/h
Sensor: Nr:Datum:Temp:Abs-Feuchte:Windchill:Wind:
Aussen-T/F 2801 01-06-2014 18:35:00 19.4 C 7.84 g/m*3 19.4 C 9.7 km/h
2802 01-06-2014 18:40:00 19.4 C 8.01 g/m*3 19.4 C 8.1 km/h
2803 01-06-2014 18:45:00 19.3 C 8.13 g/m*3 19.3 C 9.7 km/h
2804 01-06-2014 18:50:00 19.2 C 8.08 g/m*3 19.2 C 9.7 km/h
2805 01-06-2014 18:55:00 19.2 C 8.08 g/m*3 19.2 C 6.4 km/h
2806 01-06-2014 19:00:00 19.3 C 8.13 g/m*3 19.3 C 6.4 km/h
2807 01-06-2014 19:05:00 19.4 C 8.01 g/m*3 19.4 C 9.7 km/h
2808 01-06-2014 19:10:00 19.3 C 7.96 g/m*3 19.3 C 6.4 km/h
2809 01-06-2014 19:15:00 19.1 C 7.7 g/m*3 19.1 C 4.8 km/h
2810 01-06-2014 19:20:00 19 C 8.15 g/m*3 19 C 4.8 km/h
2811 01-06-2014 19:25:00 19 C 8.31 g/m*3 19 C 8.1 km/h
2812 01-06-2014 19:30:00 19.1 C 8.2 g/m*3 19.1 C 6.4 km/h
2813 01-06-2014 19:35:00 19.1 C 8.2 g/m*3 19.1 C 8.1 km/h
2814 01-06-2014 19:40:00 19.2 C 8.24 g/m*3 19.2 C 8.1 km/h
2815 01-06-2014 19:45:00 19 C 8.15 g/m*3 19 C 8.1 km/h
2816 01-06-2014 19:50:00 18.9 C 8.1 g/m*3 18.9 C 6.4 km/h
2817 01-06-2014 19:55:00 18.8 C 8.21 g/m*3 18.8 C 4.8 km/h
2818 01-06-2014 20:00:00 18.7 C 8.01 g/m*3 18.7 C 4.8 km/h
2819 01-06-2014 20:05:00 18.6 C 8.12 g/m*3 18.6 C 6.4 km/h
2820 01-06-2014 20:10:00 18.5 C 8.07 g/m*3 18.5 C 1.6 km/h
2821 01-06-2014 20:15:00 18.3 C 7.97 g/m*3 18.3 C 3.2 km/h
2822 01-06-2014 20:20:00 18.2 C 7.93 g/m*3 18.2 C 4.8 km/h
2823 01-06-2014 20:25:00 18.1 C 8.03 g/m*3 18.1 C 3.2 km/h
2824 01-06-2014 20:30:00 18 C 8.45 g/m*3 18 C 0 km/h
2825 01-06-2014 20:35:00 17.8 C 9.26 g/m*3 17.8 C 0 km/h
Sensor: Nr:Datum:Temp:Abs-Feuchte:Windchill:Wind:
Aussen-T/F 2826 01-06-2014 20:40:00 17.4 C 9.34 g/m*3 17.4 C 0 km/h
2827 01-06-2014 20:45:00 17 C 9.12 g/m*3 17 C 0 km/h
2828 01-06-2014 20:50:00 16.7 C 9.24 g/m*3 16.7 C 0 km/h
2829 01-06-2014 20:55:00 16.4 C 8.93 g/m*3 16.4 C 0 km/h
2830 01-06-2014 21:00:00 16.3 C 9.02 g/m*3 16.3 C 0 km/h
2831 01-06-2014 21:05:00 16.2 C 9.38 g/m*3 16.2 C 0 km/h
2832 01-06-2014 21:10:00 16 C 9.4 g/m*3 16 C 0 km/h
2833 01-06-2014 21:15:00 15.9 C 9.62 g/m*3 15.9 C 0 km/h
2834 01-06-2014 21:20:00 15.8 C 9.83 g/m*3 15.8 C 0 km/h
2835 01-06-2014 21:25:00 15.7 C 9.63 g/m*3 15.7 C 0 km/h
2836 01-06-2014 21:30:00 15.6 C 9.58 g/m*3 15.6 C 0 km/h
2837 01-06-2014 21:35:00 15.5 C 9.39 g/m*3 15.5 C 0 km/h
2838 01-06-2014 21:40:00 15.4 C 9.2 g/m*3 15.4 C 0 km/h
2839 01-06-2014 21:45:00 15.3 C 9.4 g/m*3 15.3 C 0 km/h
2840 01-06-2014 21:50:00 15.3 C 9.53 g/m*3 15.3 C 0 km/h
2841 01-06-2014 21:55:00 15.3 C 9.53 g/m*3 15.3 C 1.6 km/h
2842 01-06-2014 22:00:00 15.3 C 9.4 g/m*3 15.3 C 1.6 km/h
2843 01-06-2014 22:05:00 15.6 C 9.31 g/m*3 15.6 C 1.6 km/h
2844 01-06-2014 22:10:00 15.6 C 9.44 g/m*3 15.6 C 1.6 km/h
2845 01-06-2014 22:15:00 15.4 C 9.33 g/m*3 15.4 C 0 km/h
2846 01-06-2014 22:20:00 15.2 C 9.35 g/m*3 15.2 C 0 km/h
2847 01-06-2014 22:25:00 15.1 C 9.42 g/m*3 15.1 C 0 km/h
2848 01-06-2014 22:30:00 14.9 C 9.3 g/m*3 14.9 C 0 km/h
2849 01-06-2014 22:35:00 14.8 C 9.37 g/m*3 14.8 C 0 km/h
2850 01-06-2014 22:40:00 14.7 C 9.44 g/m*3 14.7 C 0 km/h
Sensor: Nr:Datum:Temp:Abs-Feuchte:Windchill:Wind:
Aussen-T/F 2851 01-06-2014 22:45:00 14.6 C 9.26 g/m*3 14.6 C 0 km/h
2852 01-06-2014 22:50:00 14.6 C 9.26 g/m*3 14.6 C 0 km/h
2853 01-06-2014 22:55:00 14.6 C 9.26 g/m*3 14.6 C 0 km/h
2854 01-06-2014 23:00:00 14.5 C 9.2 g/m*3 14.5 C 0 km/h
2855 01-06-2014 23:05:00 14.4 C 9.27 g/m*3 14.4 C 0 km/h
2856 01-06-2014 23:10:00 14.3 C 9.09 g/m*3 14.3 C 0 km/h
2857 01-06-2014 23:15:00 14.2 C 8.91 g/m*3 14.2 C 0 km/h
2858 01-06-2014 23:20:00 14 C 8.68 g/m*3 14 C 0 km/h
2859 01-06-2014 23:25:00 13.9 C 8.75 g/m*3 13.9 C 0 km/h
2860 01-06-2014 23:30:00 13.8 C 8.94 g/m*3 13.8 C 0 km/h
2861 01-06-2014 23:35:00 13.8 C 9.06 g/m*3 13.8 C 1.6 km/h
2862 01-06-2014 23:40:00 13.7 C 9 g/m*3 13.7 C 1.6 km/h
2863 01-06-2014 23:45:00 13.7 C 9.24 g/m*3 13.7 C 1.6 km/h
2864 01-06-2014 23:50:00 13.7 C 9 g/m*3 13.7 C 0 km/h
2865 01-06-2014 23:55:00 13.8 C 9.06 g/m*3 13.8 C 0 km/h
2866 02-06-2014 00:00:00 13.7 C 9.24 g/m*3 13.7 C 0 km/h
2867 02-06-2014 00:05:00 13.7 C 9.24 g/m*3 13.7 C 0 km/h
2868 02-06-2014 00:10:00 13.6 C 8.94 g/m*3 13.6 C 0 km/h
2869 02-06-2014 00:15:00 13.6 C 9.06 g/m*3 13.6 C 0 km/h
2870 02-06-2014 00:20:00 13.5 C 9.01 g/m*3 13.5 C 0 km/h
2871 02-06-2014 00:25:00 13.5 C 9.01 g/m*3 13.5 C 0 km/h
2872 02-06-2014 00:30:00 13.4 C 8.83 g/m*3 13.4 C 0 km/h
2873 02-06-2014 00:35:00 13.4 C 8.95 g/m*3 13.4 C 0 km/h
2874 02-06-2014 00:40:00 13.3 C 8.9 g/m*3 13.3 C 0 km/h
2875 02-06-2014 00:45:00 13.3 C 9.01 g/m*3 13.3 C 0 km/h
Sensor: Nr:Datum:Temp:Abs-Feuchte:Windchill:Wind:
Aussen-T/F 2876 02-06-2014 00:50:00 13.2 C 8.84 g/m*3 13.2 C 0 km/h
2877 02-06-2014 00:55:00 13.2 C 9.07 g/m*3 13.2 C 0 km/h
2878 02-06-2014 01:00:00 13.1 C 8.9 g/m*3 13.1 C 0 km/h
2879 02-06-2014 01:05:00 13.1 C 8.9 g/m*3 13.1 C 0 km/h
2880 02-06-2014 01:10:00 13.1 C 9.01 g/m*3 13.1 C 0 km/h
2881 02-06-2014 01:15:00 13.1 C 8.56 g/m*3 13.1 C 0 km/h
2882 02-06-2014 01:20:00 13.2 C 8.73 g/m*3 13.2 C 1.6 km/h
2883 02-06-2014 01:25:00 13.2 C 8.73 g/m*3 13.2 C 1.6 km/h
2884 02-06-2014 01:30:00 13.3 C 9.01 g/m*3 13.3 C 0 km/h
2885 02-06-2014 01:35:00 13.2 C 8.84 g/m*3 13.2 C 0 km/h
2886 02-06-2014 01:40:00 13.1 C 8.79 g/m*3 13.1 C 0 km/h
2887 02-06-2014 01:45:00 12.9 C 8.9 g/m*3 12.9 C 0 km/h
2888 02-06-2014 01:50:00 12.7 C 8.68 g/m*3 12.7 C 0 km/h
2889 02-06-2014 01:55:00 12.3 C 8.47 g/m*3 12.3 C 0 km/h
2890 02-06-2014 02:00:00 12.2 C 8.52 g/m*3 12.2 C 1.6 km/h
2891 02-06-2014 02:05:00 12.1 C 8.47 g/m*3 12.1 C 0 km/h
2892 02-06-2014 02:10:00 12 C 8.42 g/m*3 12 C 0 km/h
2893 02-06-2014 02:15:00 11.9 C 8.37 g/m*3 11.9 C 0 km/h
2894 02-06-2014 02:20:00 11.8 C 8.42 g/m*3 11.8 C 0 km/h
2895 02-06-2014 02:25:00 11.7 C 8.47 g/m*3 11.7 C 0 km/h
2896 02-06-2014 02:30:00 11.6 C 8.42 g/m*3 11.6 C 0 km/h
2897 02-06-2014 02:35:00 11.4 C 8.31 g/m*3 11.4 C 0 km/h
2898 02-06-2014 02:40:00 11.3 C 8.36 g/m*3 11.3 C 0 km/h
2899 02-06-2014 02:45:00 11.2 C 8.21 g/m*3 11.2 C 0 km/h
2900 02-06-2014 02:50:00 11.1 C 8.26 g/m*3 11.1 C 0 km/h
Sensor: Nr:Datum:Temp:Abs-Feuchte:Windchill:Wind:
Aussen-T/F 2901 02-06-2014 02:55:00 10.9 C 8.26 g/m*3 10.9 C 0 km/h
2902 02-06-2014 03:00:00 10.8 C 8.2 g/m*3 10.8 C 0 km/h
2903 02-06-2014 03:05:00 10.7 C 8.25 g/m*3 10.7 C 0 km/h
2904 02-06-2014 03:10:00 10.6 C 8.2 g/m*3 10.6 C 0 km/h
2905 02-06-2014 03:15:00 10.5 C 8.15 g/m*3 10.5 C 0 km/h
2906 02-06-2014 03:20:00 10.4 C 8.19 g/m*3 10.4 C 0 km/h
2907 02-06-2014 03:25:00 10.3 C 8.14 g/m*3 10.3 C 0 km/h
2908 02-06-2014 03:30:00 10.2 C 8.18 g/m*3 10.2 C 0 km/h
2909 02-06-2014 03:35:00 10.1 C 8.13 g/m*3 10.1 C 0 km/h
2910 02-06-2014 03:40:00 10.1 C 8.13 g/m*3 10.1 C 0 km/h
2911 02-06-2014 03:45:00 10 C 8.08 g/m*3 10 C 0 km/h
2912 02-06-2014 03:50:00 9.9 C 8.12 g/m*3 9.9 C 0 km/h
2913 02-06-2014 03:55:00 9.8 C 8.07 g/m*3 9.8 C 0 km/h
2914 02-06-2014 04:00:00 9.7 C 8.02 g/m*3 9.7 C 0 km/h
2915 02-06-2014 04:05:00 9.7 C 8.02 g/m*3 9.7 C 0 km/h
2916 02-06-2014 04:10:00 9.6 C 8.06 g/m*3 9.6 C 0 km/h
2917 02-06-2014 04:15:00 9.5 C 8.01 g/m*3 9.5 C 0 km/h
2918 02-06-2014 04:20:00 9.4 C 8.05 g/m*3 9.4 C 0 km/h
2919 02-06-2014 04:25:00 9.4 C 8.05 g/m*3 9.4 C 0 km/h
2920 02-06-2014 04:30:00 9.3 C 8 g/m*3 9.3 C 0 km/h
2921 02-06-2014 04:35:00 9.3 C 8 g/m*3 9.3 C 0 km/h
2922 02-06-2014 04:40:00 9.2 C 8.04 g/m*3 9.2 C 0 km/h
2923 02-06-2014 04:45:00 9.2 C 8.04 g/m*3 9.2 C 0 km/h
2924 02-06-2014 04:50:00 9.1 C 7.9 g/m*3 9.1 C 0 km/h
2925 02-06-2014 04:55:00 9.1 C 7.99 g/m*3 9.1 C 0 km/h
Sensor: Nr:Datum:Temp:Abs-Feuchte:Windchill:Wind:
Aussen-T/F 2926 02-06-2014 05:00:00 9.1 C 7.99 g/m*3 9.1 C 0 km/h
2927 02-06-2014 05:05:00 8.9 C 7.88 g/m*3 8.9 C 0 km/h
2928 02-06-2014 05:10:00 8.9 C 7.88 g/m*3 8.9 C 0 km/h
2929 02-06-2014 05:15:00 8.8 C 7.92 g/m*3 8.8 C 0 km/h
2930 02-06-2014 05:20:00 8.8 C 7.92 g/m*3 8.8 C 0 km/h
2931 02-06-2014 05:25:00 8.8 C 7.92 g/m*3 8.8 C 0 km/h
2932 02-06-2014 05:30:00 8.7 C 7.87 g/m*3 8.7 C 0 km/h
2933 02-06-2014 05:35:00 8.7 C 7.96 g/m*3 8.7 C 0 km/h
2934 02-06-2014 05:40:00 8.7 C 7.96 g/m*3 8.7 C 0 km/h
2935 02-06-2014 05:45:00 8.7 C 7.96 g/m*3 8.7 C 0 km/h
2936 02-06-2014 05:50:00 8.7 C 7.96 g/m*3 8.7 C 0 km/h
2937 02-06-2014 05:55:00 8.7 C 7.96 g/m*3 8.7 C 0 km/h
2938 02-06-2014 06:00:00 8.7 C 7.96 g/m*3 8.7 C 0 km/h
2939 02-06-2014 06:05:00 8.7 C 7.96 g/m*3 8.7 C 0 km/h
2940 02-06-2014 06:10:00 8.7 C 7.96 g/m*3 8.7 C 0 km/h
2941 02-06-2014 06:15:00 8.7 C 7.96 g/m*3 8.7 C 0 km/h
2942 02-06-2014 06:20:00 8.7 C 7.96 g/m*3 8.7 C 1.6 km/h
2943 02-06-2014 06:25:00 8.8 C 8.01 g/m*3 8.8 C 0 km/h
2944 02-06-2014 06:30:00 8.8 C 8.09 g/m*3 8.8 C 0 km/h
2945 02-06-2014 06:35:00 8.8 C 8.09 g/m*3 8.8 C 0 km/h
2946 02-06-2014 06:40:00 8.8 C 8.09 g/m*3 8.8 C 0 km/h
2947 02-06-2014 06:45:00 8.9 C 8.15 g/m*3 8.9 C 1.6 km/h
2948 02-06-2014 06:50:00 8.9 C 8.15 g/m*3 8.9 C 0 km/h
2949 02-06-2014 06:55:00 9 C 8.11 g/m*3 9 C 0 km/h
2950 02-06-2014 07:00:00 9.1 C 8.16 g/m*3 9.1 C 0 km/h
Sensor: Nr:Datum:Temp:Abs-Feuchte:Windchill:Wind:
Aussen-T/F 2951 02-06-2014 07:05:00 9.2 C 8.3 g/m*3 9.2 C 3.2 km/h
2952 02-06-2014 07:10:00 9.4 C 8.32 g/m*3 8.68 C 6.4 km/h
2953 02-06-2014 07:15:00 9.5 C 8.28 g/m*3 9.5 C 4.8 km/h
2954 02-06-2014 07:20:00 9.6 C 8.34 g/m*3 9.6 C 1.6 km/h
2955 02-06-2014 07:25:00 9.7 C 8.3 g/m*3 9.7 C 3.2 km/h
2956 02-06-2014 07:30:00 9.8 C 8.35 g/m*3 9.8 C 4.8 km/h
2957 02-06-2014 07:35:00 9.8 C 8.26 g/m*3 9.8 C 0 km/h
2958 02-06-2014 07:40:00 9.9 C 8.31 g/m*3 9.9 C 0 km/h
2959 02-06-2014 07:45:00 9.9 C 8.4 g/m*3 9.9 C 3.2 km/h
2960 02-06-2014 07:50:00 10.2 C 8.56 g/m*3 10.2 C 0 km/h
2961 02-06-2014 07:55:00 10.4 C 8.67 g/m*3 10.4 C 0 km/h
2962 02-06-2014 08:00:00 10.7 C 8.74 g/m*3 10.7 C 0 km/h
2963 02-06-2014 08:05:00 11.1 C 8.96 g/m*3 11.1 C 0 km/h
2964 02-06-2014 08:10:00 11.2 C 8.92 g/m*3 11.2 C 0 km/h
2965 02-06-2014 08:15:00 11.4 C 9.03 g/m*3 11.4 C 0 km/h
2966 02-06-2014 08:20:00 11.6 C 8.94 g/m*3 11.6 C 0 km/h
2967 02-06-2014 08:25:00 11.8 C 9.05 g/m*3 11.8 C 0 km/h
2968 02-06-2014 08:30:00 11.9 C 9 g/m*3 11.9 C 0 km/h
2969 02-06-2014 08:35:00 11.9 C 9 g/m*3 11.9 C 0 km/h
2970 02-06-2014 08:40:00 11.9 C 9 g/m*3 11.9 C 0 km/h
2971 02-06-2014 09:15:00 14.2 C 12.21 g/m*3 14.2 C 0 km/h
2972 02-06-2014 09:20:00 14.2 C 9.65 g/m*3 14.2 C 0 km/h
2973 02-06-2014 09:25:00 14.1 C 9.34 g/m*3 14.1 C 0 km/h
2974 02-06-2014 09:30:00 14.1 C 9.47 g/m*3 14.1 C 0 km/h
2975 02-06-2014 09:35:00 14.2 C 9.52 g/m*3 14.2 C 3.2 km/h
Sensor: Nr:Datum:Temp:Abs-Feuchte:Windchill:Wind:
Aussen-T/F 2976 02-06-2014 09:40:00 14.5 C 9.7 g/m*3 14.5 C 3.2 km/h
2977 02-06-2014 09:45:00 14.7 C 9.44 g/m*3 14.7 C 1.6 km/h
2978 02-06-2014 09:50:00 14.8 C 9.5 g/m*3 14.8 C 1.6 km/h
2979 02-06-2014 09:55:00 14.9 C 9.43 g/m*3 14.9 C 3.2 km/h
2980 02-06-2014 10:00:00 15.2 C 9.73 g/m*3 15.2 C 4.8 km/h
2981 02-06-2014 10:05:00 15.2 C 9.73 g/m*3 15.2 C 3.2 km/h
2982 02-06-2014 10:10:00 15.5 C 9.52 g/m*3 15.5 C 1.6 km/h
2983 02-06-2014 10:15:00 15.6 C 9.31 g/m*3 15.6 C 3.2 km/h
2984 02-06-2014 10:20:00 15.7 C 9.77 g/m*3 15.7 C 3.2 km/h
2985 02-06-2014 10:25:00 15.9 C 9.34 g/m*3 15.9 C 1.6 km/h
2986 02-06-2014 10:30:00 16 C 9.95 g/m*3 16 C 1.6 km/h
2987 02-06-2014 10:35:00 16.1 C 9.87 g/m*3 16.1 C 3.2 km/h
2988 02-06-2014 10:40:00 16.1 C 9.87 g/m*3 16.1 C 3.2 km/h
2989 02-06-2014 12:25:00 20.8 C 9.05 g/m*3 20.8 C 4.8 km/h
2990 02-06-2014 12:30:00 20.8 C 9.05 g/m*3 20.8 C 8.1 km/h
2991 02-06-2014 12:35:00 20.8 C 9.05 g/m*3 20.8 C 9.7 km/h
2992 02-06-2014 13:25:00 20.9 C 8.92 g/m*3 20.9 C 3.2 km/h
2993 02-06-2014 13:30:00 20.8 C 8.87 g/m*3 20.8 C 6.4 km/h
2994 02-06-2014 13:35:00 20.8 C 8.87 g/m*3 20.8 C 6.4 km/h
2995 02-06-2014 13:40:00 21.2 C 8.71 g/m*3 21.2 C 9.7 km/h
2996 02-06-2014 13:45:00 21.2 C 8.71 g/m*3 21.2 C 8.1 km/h
2997 02-06-2014 13:50:00 21.3 C 8.39 g/m*3 21.3 C 3.2 km/h
2998 02-06-2014 13:55:00 21.3 C 9.13 g/m*3 21.3 C 9.7 km/h
2999 02-06-2014 14:00:00 21.3 C 9.13 g/m*3 21.3 C 9.7 km/h
3000 02-06-2014 14:05:00 21.3 C 9.13 g/m*3 21.3 C 9.7 km/h
Sensor: Nr:Datum:Temp:Abs-Feuchte:Windchill:Wind:
Aussen-T/F 3001 02-06-2014 14:10:00 21.4 C 9.19 g/m*3 21.4 C 8.1 km/h
3002 02-06-2014 14:15:00 21.4 C 9.56 g/m*3 21.4 C 3.2 km/h
3003 02-06-2014 14:20:00 21.7 C 8.97 g/m*3 21.7 C 4.8 km/h
3004 02-06-2014 14:25:00 21.8 C 9.59 g/m*3 21.8 C 9.7 km/h
3005 02-06-2014 14:30:00 22.2 C 9.03 g/m*3 22.2 C 9.7 km/h
3006 02-06-2014 14:35:00 22 C 8.73 g/m*3 22 C 6.4 km/h
3007 02-06-2014 14:40:00 21.9 C 8.68 g/m*3 21.9 C 4.8 km/h
3008 02-06-2014 14:45:00 22.2 C 9.03 g/m*3 22.2 C 6.4 km/h
3009 02-06-2014 14:50:00 22.4 C 8.94 g/m*3 22.4 C 11.3 km/h
3010 02-06-2014 14:55:00 22.6 C 8.84 g/m*3 22.6 C 4.8 km/h
3011 02-06-2014 15:00:00 22.7 C 8.89 g/m*3 22.7 C 12.9 km/h
3012 02-06-2014 15:05:00 22.6 C 8.64 g/m*3 22.6 C 12.9 km/h
3013 02-06-2014 15:10:00 22.1 C 8.39 g/m*3 22.1 C 6.4 km/h
3014 02-06-2014 15:15:00 21.9 C 8.68 g/m*3 21.9 C 6.4 km/h
3015 02-06-2014 15:20:00 22.1 C 8.78 g/m*3 22.1 C 6.4 km/h
3016 02-06-2014 15:25:00 22.3 C 8.69 g/m*3 22.3 C 6.4 km/h
3017 02-06-2014 15:30:00 22.6 C 8.84 g/m*3 22.6 C 6.4 km/h
3018 02-06-2014 15:35:00 22.6 C 8.84 g/m*3 22.6 C 4.8 km/h
3019 02-06-2014 15:40:00 22.7 C 8.69 g/m*3 22.7 C 4.8 km/h
3020 02-06-2014 15:45:00 22.8 C 9.14 g/m*3 22.8 C 4.8 km/h
3021 02-06-2014 15:50:00 23.2 C 8.52 g/m*3 23.2 C 1.6 km/h
3022 02-06-2014 15:55:00 23.2 C 8.11 g/m*3 23.2 C 4.8 km/h
3023 02-06-2014 16:00:00 22.5 C 8.59 g/m*3 22.5 C 1.6 km/h
3024 02-06-2014 16:05:00 22.1 C 8.2 g/m*3 22.1 C 4.8 km/h
3025 02-06-2014 16:10:00 21.8 C 8.06 g/m*3 21.8 C 8.1 km/h
Sensor: Nr:Datum:Temp:Abs-Feuchte:Windchill:Wind:
Aussen-T/F 3026 02-06-2014 16:15:00 21.8 C 8.06 g/m*3 21.8 C 6.4 km/h
3027 02-06-2014 16:20:00 22.5 C 8.99 g/m*3 22.5 C 8.1 km/h
3028 02-06-2014 16:25:00 23.1 C 8.68 g/m*3 23.1 C 9.7 km/h
3029 02-06-2014 16:30:00 23.2 C 8.52 g/m*3 23.2 C 9.7 km/h
3030 02-06-2014 16:35:00 23.4 C 9.46 g/m*3 23.4 C 9.7 km/h
3031 02-06-2014 16:40:00 23.8 C 8.6 g/m*3 23.8 C 6.4 km/h
3032 02-06-2014 16:45:00 23.6 C 8.72 g/m*3 23.6 C 6.4 km/h
3033 02-06-2014 16:50:00 23.7 C 8.77 g/m*3 23.7 C 6.4 km/h
3034 02-06-2014 16:55:00 23.6 C 8.29 g/m*3 23.6 C 8.1 km/h
3035 02-06-2014 17:00:00 23.4 C 8.83 g/m*3 23.4 C 6.4 km/h
3036 02-06-2014 17:05:00 23.6 C 8.93 g/m*3 23.6 C 11.3 km/h
3037 02-06-2014 17:10:00 23.8 C 8.39 g/m*3 23.8 C 8.1 km/h
3038 02-06-2014 17:15:00 23.7 C 8.13 g/m*3 23.7 C 11.3 km/h
3039 02-06-2014 17:20:00 23.7 C 8.56 g/m*3 23.7 C 8.1 km/h
3040 02-06-2014 17:25:00 23.7 C 8.56 g/m*3 23.7 C 8.1 km/h
3041 02-06-2014 17:30:00 23.8 C 8.82 g/m*3 23.8 C 11.3 km/h
3042 02-06-2014 17:35:00 23.8 C 8.82 g/m*3 23.8 C 6.4 km/h
3043 02-06-2014 17:40:00 23.8 C 8.39 g/m*3 23.8 C 4.8 km/h
3044 02-06-2014 17:45:00 24 C 8.27 g/m*3 24 C 8.1 km/h
3045 02-06-2014 17:50:00 24 C 8.27 g/m*3 24 C 6.4 km/h
3046 02-06-2014 18:30:00 23.7 C 8.56 g/m*3 23.7 C 6.4 km/h
3047 02-06-2014 18:35:00 23.6 C 8.93 g/m*3 23.6 C 9.7 km/h
3048 02-06-2014 18:40:00 23.6 C 8.29 g/m*3 23.6 C 8.1 km/h
3049 02-06-2014 18:45:00 23.7 C 8.56 g/m*3 23.7 C 6.4 km/h
3050 02-06-2014 18:50:00 23.6 C 8.29 g/m*3 23.6 C 8.1 km/h
Sensor: Nr:Datum:Temp:Abs-Feuchte:Windchill:Wind:
Aussen-T/F 3051 02-06-2014 18:55:00 23.5 C 8.46 g/m*3 23.5 C 4.8 km/h
3052 02-06-2014 19:00:00 23.5 C 8.46 g/m*3 23.5 C 4.8 km/h
3053 02-06-2014 19:05:00 23.4 C 8.41 g/m*3 23.4 C 8.1 km/h
3054 02-06-2014 19:10:00 23.4 C 8.2 g/m*3 23.4 C 9.7 km/h
3055 02-06-2014 19:15:00 22.8 C 8.13 g/m*3 22.8 C 6.4 km/h
3056 02-06-2014 19:20:00 22.5 C 8.19 g/m*3 22.5 C 8.1 km/h
3057 02-06-2014 19:25:00 22.4 C 8.14 g/m*3 22.4 C 8.1 km/h
3058 02-06-2014 19:30:00 22.3 C 8.29 g/m*3 22.3 C 9.7 km/h
3059 02-06-2014 19:35:00 22.1 C 8.39 g/m*3 22.1 C 8.1 km/h
3060 02-06-2014 19:40:00 22 C 8.15 g/m*3 22 C 4.8 km/h
3061 02-06-2014 19:45:00 21.8 C 8.25 g/m*3 21.8 C 6.4 km/h
3062 02-06-2014 19:50:00 21.7 C 8.01 g/m*3 21.7 C 6.4 km/h
3063 02-06-2014 19:55:00 21.6 C 7.97 g/m*3 21.6 C 3.2 km/h
3064 02-06-2014 20:00:00 21.4 C 7.87 g/m*3 21.4 C 4.8 km/h
3065 02-06-2014 20:05:00 21.3 C 8.02 g/m*3 21.3 C 4.8 km/h
3066 02-06-2014 20:10:00 21.2 C 7.97 g/m*3 21.2 C 4.8 km/h
3067 02-06-2014 20:15:00 21.1 C 7.92 g/m*3 21.1 C 6.4 km/h
3068 02-06-2014 20:20:00 20.9 C 8.2 g/m*3 20.9 C 3.2 km/h
3069 02-06-2014 20:25:00 20.8 C 7.97 g/m*3 20.8 C 3.2 km/h
3070 02-06-2014 20:30:00 20.4 C 9.73 g/m*3 20.4 C 6.4 km/h
3071 02-06-2014 20:35:00 19.7 C 9.51 g/m*3 19.7 C 1.6 km/h
3072 02-06-2014 20:40:00 19.3 C 9.79 g/m*3 19.3 C 1.6 km/h
3073 02-06-2014 20:45:00 18.9 C 10.53 g/m*3 18.9 C 0 km/h
3074 02-06-2014 20:50:00 18.6 C 10.35 g/m*3 18.6 C 0 km/h
3075 02-06-2014 20:55:00 18.2 C 10.26 g/m*3 18.2 C 0 km/h
Sensor: Nr:Datum:Temp:Abs-Feuchte:Windchill:Wind:
Aussen-T/F 3076 02-06-2014 21:00:00 17.8 C 10.17 g/m*3 17.8 C 0 km/h
3077 02-06-2014 21:05:00 17.6 C 9.9 g/m*3 17.6 C 0 km/h
3078 02-06-2014 21:10:00 17.4 C 9.93 g/m*3 17.4 C 0 km/h
3079 02-06-2014 21:15:00 17.2 C 9.96 g/m*3 17.2 C 0 km/h
3080 02-06-2014 21:20:00 17 C 9.98 g/m*3 17 C 0 km/h
3081 02-06-2014 21:25:00 16.8 C 10.01 g/m*3 16.8 C 1.6 km/h
3082 02-06-2014 21:30:00 16.7 C 9.81 g/m*3 16.7 C 0 km/h
3083 02-06-2014 21:35:00 16.6 C 9.89 g/m*3 16.6 C 1.6 km/h
3084 02-06-2014 21:40:00 16.5 C 9.97 g/m*3 16.5 C 1.6 km/h
3085 02-06-2014 21:45:00 16.4 C 9.35 g/m*3 16.4 C 0 km/h
3086 02-06-2014 21:50:00 16.3 C 9.57 g/m*3 16.3 C 0 km/h
3087 02-06-2014 21:55:00 16.3 C 9.57 g/m*3 16.3 C 0 km/h
3088 02-06-2014 22:00:00 16.3 C 9.57 g/m*3 16.3 C 0 km/h
3089 02-06-2014 22:05:00 16.2 C 9.38 g/m*3 16.2 C 0 km/h
3090 02-06-2014 22:10:00 16.2 C 9.24 g/m*3 16.2 C 0 km/h
3091 02-06-2014 22:15:00 16.1 C 9.46 g/m*3 16.1 C 0 km/h
3092 02-06-2014 22:20:00 16 C 9.4 g/m*3 16 C 0 km/h
3093 02-06-2014 22:25:00 15.9 C 9.48 g/m*3 15.9 C 0 km/h
3094 02-06-2014 22:30:00 15.9 C 9.48 g/m*3 15.9 C 0 km/h
3095 02-06-2014 22:35:00 15.9 C 9.48 g/m*3 15.9 C 0 km/h
3096 02-06-2014 22:40:00 15.9 C 9.75 g/m*3 15.9 C 0 km/h
3097 02-06-2014 22:45:00 15.9 C 9.75 g/m*3 15.9 C 0 km/h
3098 02-06-2014 22:50:00 15.9 C 9.34 g/m*3 15.9 C 0 km/h
3099 02-06-2014 22:55:00 15.9 C 9.62 g/m*3 15.9 C 0 km/h
3100 02-06-2014 23:00:00 15.9 C 9.34 g/m*3 15.9 C 0 km/h
Sensor: Nr:Datum:Temp:Abs-Feuchte:Windchill:Wind:
Aussen-T/F 3101 02-06-2014 23:05:00 15.8 C 9.42 g/m*3 15.8 C 0 km/h
3102 02-06-2014 23:10:00 15.8 C 9.29 g/m*3 15.8 C 0 km/h
3103 02-06-2014 23:15:00 15.8 C 9.29 g/m*3 15.8 C 0 km/h
3104 02-06-2014 23:20:00 15.8 C 9.69 g/m*3 15.8 C 0 km/h
3105 02-06-2014 23:25:00 15.7 C 9.37 g/m*3 15.7 C 0 km/h
3106 02-06-2014 23:30:00 15.7 C 9.5 g/m*3 15.7 C 0 km/h
3107 02-06-2014 23:35:00 15.5 C 9.25 g/m*3 15.5 C 1.6 km/h
3108 02-06-2014 23:40:00 15.4 C 9.2 g/m*3 15.4 C 0 km/h
3109 02-06-2014 23:45:00 15.3 C 9.14 g/m*3 15.3 C 1.6 km/h
3110 02-06-2014 23:50:00 15.2 C 9.35 g/m*3 15.2 C 0 km/h
3111 02-06-2014 23:55:00 15.1 C 9.16 g/m*3 15.1 C 0 km/h
3112 03-06-2014 00:00:00 15 C 9.23 g/m*3 15 C 0 km/h
3113 03-06-2014 00:05:00 14.9 C 9.3 g/m*3 14.9 C 0 km/h
3114 03-06-2014 00:10:00 14.8 C 9.25 g/m*3 14.8 C 0 km/h
3115 03-06-2014 00:15:00 14.8 C 9.37 g/m*3 14.8 C 0 km/h
3116 03-06-2014 00:20:00 14.7 C 9.19 g/m*3 14.7 C 0 km/h
3117 03-06-2014 00:25:00 14.7 C 9.32 g/m*3 14.7 C 0 km/h
3118 03-06-2014 00:30:00 14.6 C 9.26 g/m*3 14.6 C 0 km/h
3119 03-06-2014 00:35:00 14.6 C 9.39 g/m*3 14.6 C 0 km/h
3120 03-06-2014 00:40:00 14.4 C 9.27 g/m*3 14.4 C 0 km/h
3121 03-06-2014 00:45:00 14.2 C 9.16 g/m*3 14.2 C 0 km/h
3122 03-06-2014 00:50:00 14.1 C 9.22 g/m*3 14.1 C 0 km/h
3123 03-06-2014 00:55:00 14 C 9.17 g/m*3 14 C 0 km/h
3124 03-06-2014 01:00:00 13.9 C 9.11 g/m*3 13.9 C 0 km/h
3125 03-06-2014 01:05:00 13.8 C 9.17 g/m*3 13.8 C 0 km/h
Sensor: Nr:Datum:Temp:Abs-Feuchte:Windchill:Wind:
Aussen-T/F 3126 03-06-2014 01:10:00 13.7 C 9.24 g/m*3 13.7 C 0 km/h
3127 03-06-2014 01:15:00 13.7 C 9.24 g/m*3 13.7 C 0 km/h
3128 03-06-2014 01:20:00 13.6 C 9.18 g/m*3 13.6 C 0 km/h
3129 03-06-2014 01:25:00 13.4 C 9.18 g/m*3 13.4 C 0 km/h
3130 03-06-2014 01:30:00 13.4 C 9.18 g/m*3 13.4 C 0 km/h
3131 03-06-2014 01:35:00 13.3 C 9.13 g/m*3 13.3 C 0 km/h
3132 03-06-2014 01:40:00 13.2 C 9.07 g/m*3 13.2 C 0 km/h
3133 03-06-2014 01:45:00 13.2 C 9.07 g/m*3 13.2 C 0 km/h
3134 03-06-2014 01:50:00 13.1 C 9.13 g/m*3 13.1 C 0 km/h
3135 03-06-2014 01:55:00 12.9 C 9.02 g/m*3 12.9 C 0 km/h
3136 03-06-2014 02:00:00 12.8 C 9.07 g/m*3 12.8 C 0 km/h
3137 03-06-2014 02:05:00 12.7 C 9.02 g/m*3 12.7 C 3.2 km/h
3138 03-06-2014 02:10:00 12.7 C 9.02 g/m*3 12.7 C 3.2 km/h
3139 03-06-2014 02:15:00 12.5 C 8.91 g/m*3 12.5 C 0 km/h
3140 03-06-2014 02:20:00 12.4 C 8.96 g/m*3 12.4 C 0 km/h
3141 03-06-2014 02:25:00 12.3 C 8.9 g/m*3 12.3 C 0 km/h
3142 03-06-2014 02:30:00 12.2 C 8.85 g/m*3 12.2 C 0 km/h
3143 03-06-2014 02:35:00 12.1 C 8.79 g/m*3 12.1 C 0 km/h
3144 03-06-2014 02:40:00 11.9 C 8.79 g/m*3 11.9 C 0 km/h
3145 03-06-2014 02:45:00 11.8 C 8.74 g/m*3 11.8 C 0 km/h
3146 03-06-2014 02:50:00 11.8 C 8.74 g/m*3 11.8 C 0 km/h
3147 03-06-2014 02:55:00 11.7 C 8.79 g/m*3 11.7 C 0 km/h
3148 03-06-2014 03:00:00 11.7 C 8.79 g/m*3 11.7 C 0 km/h
3149 03-06-2014 03:05:00 11.5 C 8.78 g/m*3 11.5 C 0 km/h
3150 03-06-2014 03:10:00 11.4 C 8.72 g/m*3 11.4 C 0 km/h
Sensor: Nr:Datum:Temp:Abs-Feuchte:Windchill:Wind:
Aussen-T/F 3151 03-06-2014 03:15:00 11.3 C 8.67 g/m*3 11.3 C 0 km/h
3152 03-06-2014 03:20:00 11.2 C 8.62 g/m*3 11.2 C 0 km/h
3153 03-06-2014 03:25:00 11.1 C 8.66 g/m*3 11.1 C 0 km/h
3154 03-06-2014 03:30:00 11.1 C 8.66 g/m*3 11.1 C 0 km/h
3155 03-06-2014 03:35:00 10.9 C 8.55 g/m*3 10.9 C 0 km/h
3156 03-06-2014 03:40:00 10.9 C 8.55 g/m*3 10.9 C 0 km/h
3157 03-06-2014 03:45:00 10.8 C 8.6 g/m*3 10.8 C 0 km/h
3158 03-06-2014 03:50:00 10.8 C 8.6 g/m*3 10.8 C 0 km/h
3159 03-06-2014 03:55:00 10.8 C 8.6 g/m*3 10.8 C 0 km/h
3160 03-06-2014 04:00:00 10.7 C 8.55 g/m*3 10.7 C 0 km/h
3161 03-06-2014 04:05:00 10.6 C 8.49 g/m*3 10.6 C 0 km/h
3162 03-06-2014 04:10:00 10.5 C 8.53 g/m*3 10.5 C 0 km/h
3163 03-06-2014 04:15:00 10.4 C 8.48 g/m*3 10.4 C 0 km/h
3164 03-06-2014 04:20:00 10.4 C 8.48 g/m*3 10.4 C 0 km/h
3165 03-06-2014 04:25:00 10.3 C 8.52 g/m*3 10.3 C 0 km/h
3166 03-06-2014 04:30:00 10.3 C 8.52 g/m*3 10.3 C 0 km/h
3167 03-06-2014 04:35:00 10.2 C 8.47 g/m*3 10.2 C 0 km/h
3168 03-06-2014 04:40:00 10.2 C 8.47 g/m*3 10.2 C 0 km/h
3169 03-06-2014 04:45:00 10.1 C 8.51 g/m*3 10.1 C 0 km/h
3170 03-06-2014 04:50:00 10.1 C 8.51 g/m*3 10.1 C 0 km/h
3171 03-06-2014 04:55:00 10 C 8.46 g/m*3 10 C 0 km/h
3172 03-06-2014 05:00:00 9.9 C 8.4 g/m*3 9.9 C 0 km/h
3173 03-06-2014 05:05:00 9.9 C 8.5 g/m*3 9.9 C 0 km/h
3174 03-06-2014 05:10:00 9.9 C 8.5 g/m*3 9.9 C 0 km/h
3175 03-06-2014 05:15:00 9.9 C 8.5 g/m*3 9.9 C 0 km/h
Sensor: Nr:Datum:Temp:Abs-Feuchte:Windchill:Wind:
Aussen-T/F 3176 03-06-2014 05:20:00 9.8 C 8.44 g/m*3 9.8 C 0 km/h
3177 03-06-2014 05:25:00 9.8 C 8.44 g/m*3 9.8 C 0 km/h
3178 03-06-2014 05:30:00 9.8 C 8.54 g/m*3 9.8 C 0 km/h
3179 03-06-2014 05:35:00 9.8 C 8.54 g/m*3 9.8 C 0 km/h
3180 03-06-2014 05:40:00 9.8 C 8.54 g/m*3 9.8 C 0 km/h
3181 03-06-2014 05:45:00 9.8 C 8.54 g/m*3 9.8 C 0 km/h
3182 03-06-2014 05:50:00 9.8 C 8.54 g/m*3 9.8 C 0 km/h
3183 03-06-2014 05:55:00 9.8 C 8.54 g/m*3 9.8 C 0 km/h
3184 03-06-2014 06:00:00 9.8 C 8.54 g/m*3 9.8 C 0 km/h
3185 03-06-2014 06:05:00 9.8 C 8.54 g/m*3 9.8 C 0 km/h
3186 03-06-2014 06:10:00 9.9 C 8.68 g/m*3 9.25 C 6.4 km/h
3187 03-06-2014 06:15:00 10 C 8.74 g/m*3 9.37 C 6.4 km/h
3188 03-06-2014 06:20:00 10.1 C 8.7 g/m*3 10.1 C 0 km/h
3189 03-06-2014 06:25:00 10.1 C 8.7 g/m*3 10.1 C 0 km/h
3190 03-06-2014 06:30:00 10.2 C 8.76 g/m*3 10.2 C 0 km/h
3191 03-06-2014 06:35:00 10.2 C 8.76 g/m*3 10.2 C 0 km/h
3192 03-06-2014 06:40:00 10.3 C 8.81 g/m*3 10.3 C 0 km/h
3193 03-06-2014 06:45:00 10.4 C 8.87 g/m*3 10.4 C 0 km/h
3194 03-06-2014 06:50:00 10.5 C 8.92 g/m*3 10.5 C 3.2 km/h
3195 03-06-2014 06:55:00 10.6 C 8.88 g/m*3 10.6 C 0 km/h
3196 03-06-2014 07:00:00 10.7 C 8.94 g/m*3 10.7 C 0 km/h
3197 03-06-2014 07:05:00 10.8 C 8.99 g/m*3 10.8 C 0 km/h
3198 03-06-2014 07:10:00 10.9 C 9.05 g/m*3 10.9 C 1.6 km/h
3199 03-06-2014 07:15:00 11 C 9.01 g/m*3 11 C 3.2 km/h
3200 03-06-2014 07:20:00 11.1 C 9.07 g/m*3 11.1 C 3.2 km/h
Sensor: Nr:Datum:Temp:Abs-Feuchte:Windchill:Wind:
Aussen-T/F 3201 03-06-2014 07:25:00 11.3 C 9.18 g/m*3 11.3 C 4.8 km/h
3202 03-06-2014 07:30:00 11.4 C 9.14 g/m*3 11.4 C 4.8 km/h
3203 03-06-2014 07:35:00 11.6 C 9.25 g/m*3 11.6 C 3.2 km/h
3204 03-06-2014 07:40:00 11.7 C 9.2 g/m*3 11.7 C 4.8 km/h
3205 03-06-2014 07:45:00 11.8 C 9.26 g/m*3 11.8 C 4.8 km/h
3206 03-06-2014 07:50:00 12.1 C 9.44 g/m*3 12.1 C 3.2 km/h
3207 03-06-2014 07:55:00 12.2 C 9.28 g/m*3 12.2 C 4.8 km/h
3208 03-06-2014 08:00:00 12.3 C 9.34 g/m*3 12.3 C 4.8 km/h
3209 03-06-2014 08:05:00 12.4 C 9.4 g/m*3 12.4 C 3.2 km/h
3210 03-06-2014 08:10:00 12.5 C 9.35 g/m*3 12.5 C 3.2 km/h
3211 03-06-2014 08:15:00 12.6 C 9.4 g/m*3 12.6 C 1.6 km/h
3212 03-06-2014 08:20:00 12.7 C 9.46 g/m*3 12.7 C 1.6 km/h
3213 03-06-2014 08:25:00 12.9 C 9.58 g/m*3 12.9 C 1.6 km/h
3214 03-06-2014 08:30:00 13.1 C 9.47 g/m*3 13.1 C 3.2 km/h
3215 03-06-2014 08:35:00 13.3 C 9.59 g/m*3 13.3 C 1.6 km/h
3216 03-06-2014 08:40:00 13.4 C 9.65 g/m*3 13.4 C 3.2 km/h
3217 03-06-2014 08:45: